[[{"header":{"parameterUnit":"m.s-1","parameterCategory":1,"la1":30.6,"la2":28.766,"lo1":-90.7593,"lo2":-88.6598,"dy":0.0162,"dx":0.0183,"nx":116,"ny":114,"refTime":"2023-04-18T06:00:00:Z","depth":0,"parameterNumber":2,"parameterNumberName":"U-component_of_WINDS"},"data":[0.0,0.0,0.0,0.0,0.0,0.0,0.0,0.0,0.0,0.0,0.0,0.0,0.0,0.0,0.0,0.0,0.0,0.0,0.0,0.0,0.0,0.0,0.0,0.0,0.0,0.0,0.0,0.0,0.0,0.0,0.0,0.0,0.0,0.0,0.0,0.0,0.0,0.0,0.0,0.0,0.0,0.0,0.0,0.0,0.0,0.0,0.0,0.0,0.0,0.0,0.0,0.0,0.0,0.0,0.0,0.0,0.0,0.0,0.0,0.0,0.0,0.0,0.0,0.0,0.0,0.0,0.0,0.0,0.0,0.0,0.0,0.0,0.0,0.0,0.0,0.0,0.0,0.0,0.0,0.0,0.0,0.0,0.0,0.0,0.0,0.0,0.0,0.0,0.0,0.0,0.0,0.0,0.0,0.0,0.0,0.0,0.0,0.0,0.0,0.0,0.0,0.0,0.0,0.0,0.0,0.0,0.0,0.0,0.0,0.0,0.0,0.0,0.0,0.0,0.0,0.0,0.0,0.0,0.0,0.0,0.0,0.0,0.0,0.0,0.0,0.0,0.0,0.0,0.0,0.0,0.0,0.0,0.0,0.0,0.0,0.0,0.0,0.0,0.0,0.0,0.0,0.0,0.0,0.0,0.0,0.0,0.0,0.0,0.0,0.0,0.0,0.0,0.0,0.0,0.0,0.0,0.0,0.0,0.0,0.0,0.0,0.0,0.0,0.0,0.0,0.0,0.0,0.0,0.0,0.0,0.0,0.0,0.0,0.0,0.0,0.0,0.0,0.0,0.0,0.0,0.0,0.0,0.0,0.0,0.0,0.0,0.0,0.0,0.0,0.0,0.0,0.0,0.0,0.0,0.0,0.0,0.0,0.0,0.0,0.0,0.0,0.0,0.0,0.0,0.0,0.0,0.0,0.0,0.0,0.0,0.0,0.0,0.0,0.0,0.0,0.0,0.0,0.0,0.0,0.0,0.0,0.0,0.0,0.0,0.0,0.0,0.0,0.0,0.0,0.0,0.0,0.0,0.0,0.0,0.0,0.0,0.0,0.0,0.0,0.0,0.0,0.0,0.0,0.0,0.0,0.0,0.0,0.0,0.0,0.0,0.0,0.0,0.0,0.0,0.0,0.0,0.0,0.0,0.0,0.0,0.0,0.0,0.0,0.0,0.0,0.0,0.0,0.0,0.0,0.0,0.0,0.0,0.0,0.0,0.0,0.0,0.0,0.0,0.0,0.0,0.0,0.0,0.0,0.0,0.0,0.0,0.0,0.0,0.0,0.0,0.0,0.0,0.0,0.0,0.0,0.0,0.0,0.0,0.0,0.0,0.0,0.0,0.0,0.0,0.0,0.0,0.0,0.0,0.0,0.0,0.0,0.0,0.0,0.0,0.0,0.0,0.0,0.0,0.0,0.0,0.0,0.0,0.0,0.0,0.0,0.0,0.0,0.0,0.0,0.0,0.0,0.0,0.0,0.0,0.0,0.0,0.0,0.0,0.0,0.0,0.0,0.0,0.0,0.0,0.0,0.0,0.0,0.0,0.0,0.0,0.0,0.0,0.0,0.0,0.0,0.0,0.0,0.0,0.0,0.0,0.0,0.0,0.0,0.0,0.0,0.0,0.0,0.0,0.0,0.0,0.0,0.0,0.0,0.0,0.0,0.0,0.0,0.0,0.0,0.0,0.0,0.0,0.0,0.0,0.0,0.0,0.0,0.0,0.0,0.0,0.0,0.0,0.0,0.0,0.0,0.0,0.0,0.0,0.0,0.0,0.0,0.0,0.0,0.0,0.0,0.0,0.0,0.0,0.0,0.0,0.0,0.0,0.0,0.0,0.0,0.0,0.0,0.0,0.0,0.0,0.0,0.0,0.0,0.0,0.0,0.0,0.0,0.0,0.0,0.0,0.0,0.0,0.0,0.0,0.0,0.0,0.0,0.0,0.0,0.0,0.0,0.0,0.0,0.0,0.0,0.0,0.0,0.0,0.0,0.0,0.0,0.0,0.0,0.0,0.0,0.0,0.0,0.0,0.0,0.0,0.0,0.0,0.0,0.0,0.0,0.0,0.0,0.0,0.0,0.0,0.0,0.0,0.0,0.0,0.0,0.0,0.0,0.0,0.0,0.0,0.0,0.0,0.0,0.0,0.0,0.0,0.0,0.0,0.0,0.0,0.0,0.0,0.0,0.0,0.0,0.0,0.0,0.0,0.0,0.0,0.0,0.0,0.0,0.0,0.0,0.0,0.0,0.0,0.0,0.0,0.0,0.0,0.0,0.0,0.0,0.0,0.0,0.0,0.0,0.0,0.0,0.0,0.0,0.0,0.0,0.0,0.0,0.0,0.0,0.0,0.0,0.0,0.0,0.0,0.0,0.0,0.0,0.0,0.0,0.0,0.0,0.0,0.0,0.0,0.0,0.0,0.0,0.0,0.0,0.0,0.0,0.0,0.0,0.0,0.0,0.0,0.0,0.0,0.0,0.0,0.0,0.0,0.0,0.0,0.0,0.0,0.0,0.0,0.0,0.0,0.0,0.0,0.0,0.0,0.0,0.0,0.0,0.0,0.0,0.0,0.0,0.0,0.0,0.0,0.0,0.0,0.0,0.0,0.0,0.0,0.0,0.0,0.0,0.0,0.0,0.0,0.0,0.0,0.0,0.0,0.0,0.0,0.0,0.0,0.0,0.0,0.0,0.0,0.0,0.0,0.0,0.0,0.0,0.0,0.0,0.0,0.0,0.0,0.0,0.0,0.0,0.0,0.0,0.0,0.0,0.0,0.0,0.0,0.0,0.0,0.0,0.0,0.0,0.0,0.0,0.0,0.0,0.0,0.0,0.0,0.0,0.0,0.0,0.0,0.0,0.0,0.0,0.0,0.0,0.0,0.0,0.0,0.0,0.0,0.0,0.0,0.0,0.0,0.0,0.0,0.0,0.0,0.0,0.0,0.0,0.0,0.0,0.0,0.0,0.0,0.0,0.0,0.0,0.0,0.0,0.0,0.0,0.0,0.0,0.0,0.0,0.0,0.0,0.0,0.0,0.0,0.0,0.0,0.0,0.0,0.0,0.0,0.0,0.0,0.0,0.0,0.0,0.0,0.0,0.0,0.0,0.0,0.0,0.0,0.0,0.0,0.0,0.0,0.0,0.0,0.0,0.0,0.0,0.0,0.0,0.0,0.0,0.0,0.0,0.0,0.0,0.0,0.0,0.0,0.0,0.0,0.0,0.0,0.0,0.0,0.0,0.0,0.0,0.0,0.0,0.0,0.0,0.0,0.0,0.0,0.0,0.0,0.0,0.0,0.0,0.0,0.0,0.0,0.0,0.0,0.0,0.0,0.0,0.0,0.0,0.0,0.0,0.0,0.0,0.0,0.0,0.0,0.0,0.0,0.0,0.0,0.0,0.0,0.0,0.0,0.0,0.0,0.0,0.0,0.0,0.0,0.0,0.0,0.0,0.0,0.0,0.0,0.0,0.0,0.0,0.0,0.0,0.0,0.0,0.0,0.0,0.0,0.0,0.0,0.0,0.0,0.0,0.0,0.0,0.0,0.0,0.0,0.0,0.0,0.0,0.0,0.0,0.0,0.0,0.0,0.0,0.0,0.0,0.0,0.0,0.0,0.0,0.0,0.0,0.0,0.0,0.0,0.0,0.0,0.0,0.0,0.0,0.0,0.0,0.0,0.0,0.0,0.0,0.0,0.0,0.0,0.0,0.0,0.0,0.0,0.0,0.0,0.0,0.0,0.0,0.0,0.0,0.0,0.0,0.0,0.0,0.0,0.0,0.0,0.0,0.0,0.0,0.0,0.0,0.0,0.0,0.0,0.0,0.0,0.0,0.0,0.0,0.0,0.0,0.0,0.0,0.0,0.0,0.0,0.0,0.0,0.0,0.0,0.0,0.0,0.0,0.0,0.0,0.0,0.0,0.0,0.0,0.0,0.0,0.0,0.0,0.0,0.0,0.0,0.0,0.0,0.0,0.0,0.0,0.0,0.0,0.0,0.0,0.0,0.0,0.0,0.0,0.0,0.0,0.0,0.0,0.0,0.0,0.0,0.0,0.0,0.0,0.0,0.0,0.0,0.0,0.0,0.0,0.0,0.0,0.0,0.0,0.0,0.0,0.0,0.0,0.0,0.0,0.0,0.0,0.0,0.0,0.0,0.0,0.0,0.0,0.0,0.0,0.0,0.0,0.0,0.0,0.0,0.0,0.0,0.0,0.0,0.0,0.0,0.0,0.0,0.0,0.0,0.0,0.0,0.0,0.0,0.0,0.0,0.0,0.0,0.0,0.0,0.0,0.0,0.0,0.0,0.0,0.0,0.0,0.0,0.0,0.0,0.0,0.0,0.0,0.0,0.0,0.0,0.0,0.0,0.0,0.0,0.0,0.0,0.0,0.0,0.0,0.0,0.0,0.0,0.0,0.0,0.0,0.0,0.0,0.0,0.0,0.0,0.0,0.0,0.0,0.0,0.0,0.0,0.0,0.0,0.0,0.0,0.0,0.0,0.0,0.0,0.0,0.0,0.0,0.0,0.0,0.0,0.0,0.0,0.0,0.0,0.0,0.0,0.0,0.0,0.0,0.0,0.0,0.0,0.0,0.0,0.0,0.0,0.0,0.0,0.0,0.0,0.0,0.0,0.0,0.0,0.0,0.0,0.0,0.0,0.0,0.0,0.0,0.0,0.0,0.0,0.0,0.0,0.0,0.0,0.0,0.0,0.0,0.0,0.0,0.0,0.0,0.0,0.0,0.0,0.0,0.0,0.0,0.0,0.0,0.0,0.0,0.0,0.0,0.0,0.0,0.0,0.0,0.0,0.0,0.0,0.0,0.0,0.0,0.0,0.0,0.0,0.0,0.0,0.0,0.0,0.0,0.0,0.0,0.0,0.0,0.0,0.0,0.0,0.0,0.0,0.0,0.0,0.0,0.0,0.0,0.0,0.0,0.0,0.0,0.0,0.0,0.0,0.0,0.0,0.0,0.0,0.0,0.0,0.0,0.0,0.0,0.0,0.0,0.0,0.0,0.0,0.0,0.0,0.0,0.0,0.0,0.0,0.0,0.0,0.0,0.0,0.0,0.0,0.0,0.0,0.0,0.0,0.0,0.0,0.0,0.0,0.0,0.0,0.0,0.0,0.0,0.0,0.0,0.0,0.0,0.0,0.0,0.0,0.0,0.0,0.0,0.0,0.0,0.0,0.0,0.0,0.0,0.0,0.0,0.0,0.0,0.0,0.0,0.0,0.0,0.0,0.0,0.0,0.0,0.0,0.0,0.0,0.0,0.0,0.0,0.0,0.0,0.0,0.0,0.0,0.0,0.0,0.0,0.0,0.0,0.0,0.0,0.0,0.0,0.0,0.0,0.0,0.0,0.0,0.0,0.0,0.0,0.0,0.0,0.0,0.0,0.0,0.0,0.0,0.0,0.0,0.0,0.0,0.0,0.0,0.0,0.0,0.0,0.0,0.0,0.0,0.0,0.0,0.0,0.0,0.0,0.0,0.0,0.0,0.0,0.0,0.0,0.0,0.0,0.0,0.0,0.0,0.0,0.0,0.0,0.0,0.0,0.0,0.0,0.0,0.0,0.0,0.0,0.0,0.0,0.0,0.0,0.0,0.0,0.0,0.0,0.0,0.0,0.0,0.0,0.0,0.0,0.0,0.0,0.0,0.0,0.0,0.0,0.0,0.0,0.0,0.0,0.0,0.0,0.0,0.0,0.0,0.0,0.0,0.0,0.0,0.0,0.0,0.0,0.0,0.0,0.0,0.0,0.0,0.0,0.0,0.0,0.0,0.0,0.0,0.0,0.0,0.0,0.0,0.0,0.0,0.0,0.0,0.0,0.0,0.0,0.0,0.0,0.0,0.0,0.0,0.0,0.0,0.0,0.0,0.0,0.0,0.0,0.0,0.0,0.0,0.0,0.0,0.0,0.0,0.0,0.0,0.0,0.0,0.0,0.0,0.0,0.0,0.0,0.0,0.0,0.0,0.0,0.0,0.0,0.0,0.0,0.0,0.0,0.0,0.0,0.0,0.0,0.0,0.0,0.0,0.0,0.0,0.0,0.0,0.0,0.0,0.0,0.0,0.0,0.0,0.0,0.0,0.0,0.0,0.0,0.0,-3.8514,-3.8514,0.0,0.0,0.0,0.0,0.0,0.0,0.0,0.0,0.0,0.0,0.0,0.0,0.0,0.0,0.0,0.0,0.0,0.0,0.0,0.0,0.0,0.0,0.0,0.0,0.0,0.0,0.0,0.0,0.0,0.0,0.0,0.0,0.0,0.0,0.0,0.0,0.0,0.0,-3.522,-3.5481,-3.5975,-3.5782,-3.5431,-3.4982,0.0,0.0,0.0,0.0,0.0,0.0,0.0,0.0,0.0,0.0,0.0,0.0,0.0,0.0,0.0,0.0,0.0,0.0,0.0,0.0,0.0,0.0,0.0,0.0,0.0,0.0,0.0,0.0,0.0,0.0,0.0,0.0,0.0,0.0,0.0,0.0,0.0,0.0,0.0,0.0,0.0,0.0,0.0,0.0,0.0,0.0,0.0,0.0,0.0,0.0,0.0,0.0,0.0,0.0,0.0,0.0,0.0,0.0,0.0,0.0,0.0,0.0,0.0,0.0,0.0,0.0,0.0,0.0,0.0,0.0,-3.9309,-3.8988,0.0,0.0,0.0,0.0,0.0,0.0,0.0,0.0,0.0,0.0,0.0,0.0,0.0,0.0,0.0,0.0,0.0,0.0,0.0,0.0,0.0,0.0,0.0,-3.2697,-3.3123,-3.3244,-3.4211,-3.4825,0.0,0.0,0.0,0.0,0.0,0.0,0.0,-3.522,-3.5504,-3.5504,-3.5657,-3.5784,-3.5868,-3.631,-3.6365,-3.6045,-3.523,0.0,0.0,0.0,0.0,0.0,0.0,0.0,0.0,0.0,0.0,0.0,0.0,0.0,0.0,0.0,0.0,0.0,0.0,0.0,0.0,0.0,0.0,0.0,0.0,0.0,0.0,0.0,0.0,0.0,0.0,0.0,0.0,0.0,0.0,0.0,0.0,0.0,0.0,0.0,0.0,0.0,0.0,0.0,0.0,0.0,0.0,0.0,0.0,0.0,0.0,0.0,0.0,0.0,0.0,0.0,0.0,0.0,0.0,0.0,0.0,0.0,0.0,0.0,-3.9631,-3.9884,-4.0502,-4.062,-4.1001,-4.1525,-4.0307,-3.9681,-3.9563,-3.9428,0.0,0.0,0.0,0.0,0.0,0.0,0.0,0.0,0.0,0.0,0.0,0.0,0.0,0.0,0.0,0.0,0.0,0.0,0.0,0.0,0.0,-3.3111,-3.3651,-3.4266,-3.4953,-3.5402,-3.5402,0.0,0.0,0.0,0.0,0.0,-3.537,-3.5459,-3.5504,-3.5504,-3.619,-3.6559,-3.6559,-3.7331,-3.7946,-3.8375,-3.6887,-3.623,-3.623,0.0,0.0,0.0,0.0,0.0,0.0,0.0,0.0,0.0,0.0,0.0,0.0,0.0,0.0,0.0,0.0,0.0,0.0,0.0,0.0,0.0,0.0,0.0,0.0,0.0,0.0,0.0,0.0,0.0,0.0,0.0,0.0,0.0,0.0,0.0,0.0,0.0,0.0,0.0,0.0,0.0,-3.9573,-3.9191,0.0,0.0,0.0,0.0,0.0,0.0,0.0,0.0,0.0,0.0,0.0,0.0,0.0,-4.0485,-4.1847,-4.1136,-4.1474,-4.2801,-4.2168,-4.1914,-4.2016,-4.2675,-4.3003,-4.3088,-4.2885,0.0,-4.1813,-4.117,0.0,0.0,0.0,0.0,0.0,0.0,0.0,0.0,0.0,0.0,0.0,0.0,0.0,0.0,0.0,0.0,0.0,0.0,0.0,0.0,0.0,-3.4024,-3.4577,-3.4518,-3.5759,-3.6267,-3.5549,-3.5848,0.0,0.0,0.0,-3.5504,-3.5504,-3.5504,-3.5863,-3.6582,-3.6918,-3.7477,-3.8227,-3.8702,-3.9058,-3.9335,-3.88,-3.8142,-3.7439,-3.7151,0.0,0.0,0.0,0.0,0.0,0.0,0.0,0.0,0.0,0.0,0.0,0.0,0.0,0.0,0.0,0.0,0.0,0.0,0.0,0.0,0.0,0.0,0.0,0.0,0.0,0.0,0.0,0.0,0.0,0.0,0.0,0.0,0.0,0.0,0.0,0.0,0.0,0.0,0.0,-3.9503,-4.029,-4.0781,-4.1068,-4.0832,0.0,0.0,0.0,0.0,0.0,0.0,0.0,0.0,0.0,-4.0713,-4.1525,-4.2269,-4.2912,-4.3047,-4.3436,-4.4062,-4.3741,-4.3599,-4.3616,-4.3927,-4.4299,-4.4688,-4.4248,-4.3876,-4.3515,-4.2303,-4.1136,-4.0079,0.0,0.0,0.0,0.0,-3.8159,-3.8514,0.0,0.0,0.0,0.0,0.0,0.0,0.0,0.0,0.0,0.0,0.0,0.0,-3.3739,-3.4951,-3.5489,-3.4801,-3.6237,-3.6701,-3.5579,-3.5968,-3.6013,-3.5534,-3.5504,-3.5504,-3.5504,-3.5833,-3.6637,-3.7986,-3.8272,-3.9127,-4.0471,-4.0573,-4.0827,-4.1234,-4.111,-4.0106,-3.844,-3.7949,-3.7369,-3.6692,0.0,0.0,0.0,0.0,0.0,0.0,0.0,0.0,0.0,0.0,0.0,0.0,0.0,0.0,0.0,0.0,0.0,0.0,0.0,0.0,0.0,0.0,0.0,0.0,0.0,0.0,0.0,0.0,0.0,0.0,0.0,0.0,0.0,0.0,0.0,0.0,0.0,-4.0265,-4.0807,-4.188,-4.1525,-4.1136,0.0,0.0,0.0,0.0,0.0,0.0,-4.0916,-4.1457,-4.1863,-4.2066,-4.3132,-4.3893,-4.4282,-4.4801,-4.5218,-4.5432,-4.5387,-4.5257,-4.5088,-4.5274,-4.565,-4.611,-4.5583,-4.5257,-4.4964,-4.3284,-4.1813,-4.0654,-4.0408,-4.0003,-3.9446,-3.8856,-3.8991,-3.9497,0.0,0.0,0.0,0.0,0.0,0.0,0.0,0.0,0.0,0.0,0.0,-3.4459,-3.4459,-3.5672,-3.6178,-3.5504,-3.6118,-3.6237,-3.5549,-3.5534,-3.5549,-3.5504,-3.5504,-3.5504,-3.5504,-3.6701,-3.8039,-3.9568,-4.0671,-4.1941,-4.3377,-4.3195,-4.3883,-4.5264,-4.3979,-4.1842,-3.9127,-3.8655,-3.8061,-3.7384,-3.6722,0.0,0.0,0.0,0.0,0.0,0.0,0.0,0.0,0.0,0.0,0.0,0.0,0.0,0.0,0.0,0.0,0.0,0.0,0.0,0.0,0.0,0.0,0.0,0.0,0.0,0.0,0.0,0.0,0.0,0.0,0.0,0.0,0.0,0.0,0.0,0.0,0.0,0.0,-4.1255,-4.1221,0.0,0.0,0.0,0.0,-4.1085,-4.1136,-4.1762,-4.3156,-4.3257,-4.3639,-4.4412,-4.4513,-4.5196,-4.6616,-4.6473,-4.6861,-4.772,-4.7535,-4.7087,-4.6413,-4.7137,-4.7399,-4.7326,-4.7429,-4.7053,-4.6258,-4.4181,-4.2895,-4.2117,-4.1276,-4.092,-4.0886,-4.0711,-4.0675,-4.0809,0.0,0.0,0.0,0.0,0.0,0.0,0.0,0.0,-3.314,-3.314,-3.4307,-3.5459,-3.6267,-3.7165,-3.7614,-3.7389,-3.7973,-3.7734,-3.6237,-3.6133,-3.5953,-3.5534,-3.5504,-3.5893,-3.6701,-3.7584,-3.9168,-4.144,-4.2226,-4.3337,-4.4679,-4.4168,-4.4238,-4.4739,-4.3986,-4.3036,-4.1963,-4.0771,-3.9367,-3.7897,-3.7351,-3.6892,0.0,0.0,0.0,0.0,0.0,0.0,0.0,0.0,0.0,0.0,0.0,0.0,0.0,0.0,0.0,0.0,0.0,0.0,0.0,0.0,0.0,0.0,0.0,0.0,0.0,0.0,0.0,0.0,0.0,0.0,0.0,0.0,0.0,0.0,0.0,0.0,0.0,-4.1914,-4.2777,0.0,-4.3024,-4.3007,-4.3108,-4.3352,-4.3369,-4.3606,-4.413,-4.4621,-4.4953,-4.512,-4.6047,-4.6759,-4.7299,-4.8104,-4.8709,-4.9118,-4.8961,-4.8763,-4.8511,-4.878,-4.885,-4.8818,-4.8882,-4.8463,-4.7675,-4.6478,-4.481,-4.2946,-4.2132,-4.1765,-4.1701,-4.1648,-4.1584,-4.1552,0.0,0.0,0.0,0.0,0.0,0.0,0.0,0.0,-3.3499,-3.3499,-3.4861,-3.6237,-3.73,-3.8197,-3.8646,-3.8407,-3.8811,-3.8332,-3.6596,-3.6282,-3.6052,-3.5812,-3.6008,-3.6544,-3.7389,-3.8721,-4.0536,-4.2826,-4.3608,-4.4599,-4.5712,-4.4963,-4.4794,-4.5047,-4.4479,-4.4227,-4.417,-4.2734,-4.0995,-3.9142,-3.821,-3.7558,-3.7095,0.0,0.0,0.0,0.0,0.0,0.0,0.0,0.0,0.0,0.0,0.0,0.0,0.0,0.0,0.0,0.0,0.0,0.0,0.0,0.0,0.0,0.0,0.0,0.0,0.0,0.0,0.0,0.0,0.0,0.0,0.0,0.0,0.0,0.0,-4.1897,-4.2861,-4.3386,-4.4581,-4.5229,-4.4993,-4.4959,-4.4959,-4.4959,-4.4914,-4.5076,-4.5583,-4.6014,-4.6342,-4.6441,-4.7651,-4.8406,-4.8627,-4.969,-5.0325,-5.0489,-5.0342,-5.0109,-4.9858,-4.9858,-4.9708,-4.9442,-4.9491,-4.9073,-4.8354,-4.7682,-4.6331,-4.4625,-4.3586,-4.3116,-4.3015,-4.2708,-4.2557,-4.2439,0.0,0.0,0.0,0.0,0.0,0.0,0.0,-3.308,-3.3499,-3.3529,-3.5235,-3.6716,-3.7404,-3.8616,-3.9125,-3.8512,-3.8407,-3.7853,-3.6567,-3.5863,-3.578,-3.6367,-3.7044,-3.744,-3.7509,-4.0083,-4.2168,-4.3683,-4.476,-4.5783,-4.6652,-4.5742,-4.5768,-4.6542,-4.5686,-4.5405,-4.5526,-4.4386,-4.2925,-4.1138,-3.9349,-3.851,-3.826,0.0,0.0,0.0,0.0,0.0,0.0,0.0,0.0,0.0,0.0,0.0,0.0,0.0,0.0,0.0,0.0,0.0,0.0,0.0,0.0,0.0,0.0,0.0,0.0,0.0,0.0,0.0,0.0,0.0,0.0,0.0,0.0,0.0,-4.232,-4.3014,-4.4051,-4.5602,-4.6413,-4.6583,-4.5872,-4.5805,-4.5805,-4.5805,-4.563,-4.6148,-4.7561,-4.7524,-4.778,-4.8467,-4.9187,-4.9923,-5.0643,-5.1193,-5.156,-5.1798,-5.1593,-5.1107,-5.0442,-5.0442,-4.9975,-4.916,-4.9294,-4.896,-4.8245,-4.7669,-4.7431,-4.7297,-4.5593,-4.4933,-4.482,-4.3973,-4.3648,-4.3532,0.0,0.0,0.0,0.0,0.0,0.0,0.0,-3.338,-3.3664,-3.4174,-3.5115,-3.6567,-3.8646,-3.8751,-3.899,-3.9768,-3.896,-3.7853,-3.6567,-3.5863,-3.5779,-3.6426,-3.7059,-3.8331,-4.0247,-4.1512,-4.3317,-4.5695,-4.5455,-4.6265,-4.8091,-4.6168,-4.5768,-4.6542,-4.5686,-4.535,-4.5328,-4.4665,-4.4116,-4.3492,-4.1488,-3.9793,-3.8429,0.0,0.0,0.0,0.0,0.0,0.0,0.0,0.0,0.0,0.0,0.0,0.0,0.0,0.0,0.0,0.0,0.0,0.0,0.0,0.0,0.0,0.0,0.0,0.0,0.0,0.0,0.0,0.0,0.0,0.0,0.0,-4.2388,-4.2489,-4.3031,-4.4705,-4.6227,-4.7192,-4.7953,-4.8325,-4.8122,-4.8105,-4.8044,-4.797,-4.8332,-4.8505,-4.8245,-4.8733,-4.8771,-4.8308,-4.8492,-4.8942,-4.9676,-5.0274,-5.0888,-5.1593,-5.1438,-5.1269,-5.107,-5.107,-5.0919,-5.0685,-5.0155,-5.0139,-5.0289,-4.8563,-4.8148,-4.8463,-4.6624,-4.5838,-4.5666,-4.5435,-4.4989,-4.4577,0.0,0.0,0.0,0.0,0.0,0.0,0.0,-3.332,-3.3724,-3.4414,-3.507,-3.6282,-3.8347,-3.8212,-3.8407,-3.9469,-3.8586,-3.7554,-3.6552,-3.6366,-3.6474,-3.6851,-3.8024,-3.9662,-4.1804,-4.246,-4.3868,-4.6072,-4.555,-4.599,-4.7241,-4.5934,-4.5563,-4.6037,-4.5537,-4.5289,-4.5316,-4.5116,-4.5006,-4.4916,-4.35,-4.2121,-4.0932,-4.0671,-4.0685,-4.0841,-4.0605,-4.0834,-4.1069,-3.9862,0.0,0.0,0.0,0.0,0.0,0.0,0.0,0.0,0.0,0.0,0.0,0.0,0.0,0.0,0.0,0.0,0.0,0.0,0.0,0.0,0.0,0.0,0.0,0.0,-4.3639,-4.4508,-4.5486,-4.6828,-4.8003,-4.8731,-4.97,-5.0057,-4.9449,-4.9287,-4.9089,-4.8692,-4.8949,-4.8903,-4.8405,-4.8741,-4.8694,-4.8131,-4.8712,-4.9244,-4.9659,-5.0619,-5.14,-5.1903,-5.1798,-5.1779,-5.1779,-5.1779,-5.1597,-5.1299,-5.0833,-5.0734,-5.0717,-4.9127,-4.8713,-4.8945,0.0,0.0,0.0,0.0,-4.5906,-4.5341,0.0,0.0,0.0,0.0,0.0,0.0,0.0,-3.3125,-3.3769,-3.4533,-3.513,-3.5998,-3.727,-3.7345,-3.7569,-3.8227,-3.7689,-3.7045,-3.6417,-3.7008,-3.7438,-3.7528,-3.9523,-4.1249,-4.2554,-4.3227,-4.421,-4.5595,-4.5475,-4.5563,-4.5789,-4.5672,-4.563,-4.568,-4.572,-4.5663,-4.5529,-4.5721,-4.5789,-4.5766,-4.524,-4.4721,-4.4154,-4.3482,-4.414,-4.535,-4.4793,-4.3864,-4.2868,-4.2618,0.0,0.0,0.0,0.0,0.0,0.0,0.0,0.0,0.0,0.0,0.0,0.0,0.0,0.0,0.0,0.0,0.0,0.0,0.0,0.0,0.0,0.0,0.0,0.0,-4.5201,-4.7376,-4.8824,-4.9217,-4.9565,-5.0207,-5.1207,-5.1311,-4.9983,-4.9702,-4.9287,-4.8502,-4.8442,-4.8378,-4.8179,-4.8132,0.0,0.0,0.0,-5.0005,-5.0088,-5.1446,-5.2175,-5.2293,-5.2376,-5.2409,-5.2409,-5.2409,-5.2061,-5.1431,-5.1348,-5.0966,-5.0386,-4.9574,-4.9226,-4.9144,-4.8315,-4.8001,-4.7918,-4.7272,-4.656,-4.593,0.0,0.0,0.0,0.0,0.0,0.0,0.0,-3.341,-3.3933,-3.5145,-3.5429,-3.5998,-3.727,-3.6971,-3.6911,-3.7539,-3.703,-3.6387,-3.5744,-3.6742,-3.7646,-3.8167,-4.069,-4.2432,-4.313,-4.4424,-4.5469,-4.6302,-4.6184,-4.705,-4.8816,-4.8086,-4.783,-4.7987,-4.8347,-4.7908,-4.692,-4.6948,-4.6948,-4.6931,-4.6289,-4.4874,-4.3107,-4.2439,-4.2782,-4.3606,-4.346,-4.4761,-4.6303,-4.465,-4.4391,-4.4367,-4.2048,-4.0905,0.0,0.0,0.0,0.0,0.0,0.0,0.0,0.0,0.0,0.0,0.0,0.0,0.0,0.0,0.0,0.0,0.0,0.0,0.0,-4.6969,-4.7365,-4.8209,-5.0843,-5.1212,-5.1313,-5.1447,-5.0642,-4.9972,-4.9704,-4.9638,-4.9222,-4.8326,-4.931,-4.941,-4.8132,-4.8564,-4.8614,-4.8017,-4.8282,-4.8713,-4.9326,-5.0204,-5.0916,-5.1531,-5.2127,0.0,-5.2409,-5.2409,-5.2343,-5.2161,-5.1564,-5.158,-5.186,-5.0551,-5.0005,-4.9856,-4.8531,-4.8001,-4.7984,-4.7835,-4.7322,-4.6775,0.0,0.0,0.0,0.0,0.0,0.0,0.0,-3.383,-3.4352,-3.537,-3.5504,-3.5744,-3.6387,-3.6178,-3.6118,-3.6432,-3.6163,-3.5998,-3.5998,-3.7524,-3.8856,-3.9843,-4.1843,-4.3709,-4.5464,-4.5096,-4.5951,-4.8112,-4.7224,-4.7709,-4.9489,-4.9023,-4.8847,-4.8966,-4.9178,-4.894,-4.8282,-4.8282,-4.8282,-4.8222,-4.7578,-4.6406,-4.5087,-4.4902,-4.5063,-4.5401,-4.572,-4.6086,-4.6355,-4.6203,-4.5887,-4.534,-4.4039,-4.2858,-4.187,0.0,0.0,0.0,0.0,0.0,0.0,0.0,0.0,0.0,0.0,0.0,0.0,0.0,0.0,-4.3206,-4.4221,0.0,-4.6102,-4.8243,-4.885,-4.9807,-5.1896,-5.1896,-5.1546,-5.1296,-5.0827,-5.0426,-5.0042,-4.9593,-4.9177,-4.8696,-4.8995,-4.8862,-4.8034,-4.8349,-4.8382,-4.8017,-4.8365,-4.873,-4.911,-4.9839,-5.0568,-5.1315,-5.168,-5.2061,-5.2409,-5.2409,-5.2409,-5.2393,-5.2028,-5.2078,-5.2291,-5.1197,-5.0535,-5.0104,-4.8995,-4.8547,-4.8514,-4.815,-4.7769,-4.7504,0.0,0.0,0.0,0.0,0.0,0.0,0.0,-3.4283,-3.4775,-3.5464,-3.5537,-3.5504,-3.5504,-3.5504,-3.5504,-3.5504,-3.5504,-3.5833,-3.6611,-3.8392,-4.0008,-4.1324,-4.2782,-4.463,-4.7004,-4.5532,-4.6148,-4.9043,-4.8116,-4.8162,-4.912,-4.9509,-4.9554,-4.9329,-4.9584,-4.9614,-4.9449,-4.9449,-4.9449,-4.9404,-4.8745,-4.7997,-4.7321,-4.7614,-4.7754,-4.7907,-4.8486,-4.7429,-4.6002,-4.7391,-4.6911,-4.5702,-4.5816,-4.5133,-4.4035,-4.2834,-4.1559,0.0,0.0,0.0,0.0,0.0,0.0,0.0,0.0,-4.2422,-4.3335,-4.4694,-4.5083,-4.5532,-4.6673,-4.7452,-4.8161,-4.8955,-5.0176,-5.1394,-5.2439,-5.2171,-5.1625,-5.0894,-5.1076,-5.1073,-5.0607,-4.9791,-4.9326,-4.9326,-4.8763,-4.8365,-4.8216,-4.8216,-4.8216,-4.8216,-4.8796,-4.911,-4.911,-4.9839,-5.0502,-5.1082,-5.1398,-5.1829,-5.2409,-5.2409,-5.2409,-5.2409,-5.2409,-5.2409,-5.2359,-5.1779,-5.1148,-5.0551,-4.9674,-4.9326,-4.9226,-4.8332,-4.8001,-4.8001,0.0,0.0,0.0,0.0,0.0,0.0,0.0,0.0,-3.4918,-3.5612,-3.5572,-3.5504,-3.5504,-3.5504,-3.5504,-3.5504,-3.5504,-3.6013,-3.7225,-3.8631,-4.0008,-4.1324,-4.329,-4.4456,-4.4675,-4.5721,-4.6407,-4.6665,-4.8265,-4.8865,-4.8431,-5.0182,-5.0376,-4.9359,-5.0481,-5.0676,-5.0091,-5.0091,-5.0091,-5.0031,-4.9419,-4.8416,-4.7294,-4.7334,-4.7891,-4.8691,-4.8909,-4.85,-4.79,-4.8097,-4.7836,-4.7281,-4.6615,-4.687,-4.6841,-4.3957,-4.2611,-4.1736,-4.0306,-4.0011,-4.0265,-4.0916,-4.1559,-4.2422,0.0,-4.479,-4.5493,-4.6157,-4.6817,-4.7463,-4.8147,-4.874,-4.9576,-5.0925,-5.1753,-5.2262,-5.2393,-5.2873,-5.2707,-5.1383,-5.0702,-5.0569,-5.1133,-5.0502,-5.0088,-5.0088,-5.0005,-4.9674,-4.9011,-4.8978,-4.8978,-4.8978,-4.9061,-4.911,-4.911,-4.9839,-5.0253,-5.0353,-5.1645,-5.2343,-5.2409,-5.2409,-5.2409,-5.2409,-5.2409,-5.2409,-5.2373,-5.2326,-5.2208,-5.2009,-5.0618,-5.0088,-4.9922,-4.8514,-4.8001,-4.8001,0.0,0.0,0.0,0.0,0.0,0.0,0.0,0.0,0.0,-3.5689,-3.5638,-3.5604,-3.5504,-3.5145,-3.507,-3.5474,-3.513,-3.5609,-3.73,-3.9394,-4.1145,-4.2462,-4.4459,-4.595,-4.6767,-4.6527,-4.6955,-4.8171,-4.8531,-4.894,-4.9434,-4.9883,-5.0197,-5.0406,-5.0571,-5.0659,-5.0764,-5.0764,-5.0539,-5.0166,-4.9942,-4.8865,-4.751,-4.7892,-4.7685,-4.7019,-4.6213,-4.6063,0.0,-4.6044,-4.6059,-4.6192,-4.6555,-4.5976,-4.4901,-4.3581,-4.2038,-4.0675,-4.0069,-4.0575,-4.1353,-4.1736,-4.2672,-4.3855,-4.5373,-4.6211,-4.7113,-4.8629,-4.9184,-4.9721,-5.0693,-5.0726,-5.1023,-5.2381,-5.2511,-5.2672,-5.3516,-5.2788,-5.2108,-5.1978,-5.0916,-5.0336,-5.0634,-4.9988,-4.9574,-4.9574,-4.9574,-4.9442,-4.9127,-4.9525,-4.9558,-4.9127,-4.911,-4.911,-4.911,-4.8978,-4.9574,-5.0833,-5.1032,-5.1562,-5.2409,-5.2409,-5.2409,-5.2409,-5.2409,-5.2409,-5.2409,-5.2409,-5.2161,-5.1713,-5.1065,-5.032,-4.9442,-4.8398,-4.8001,-4.8001,0.0,0.0,0.0,0.0,0.0,0.0,0.0,0.0,0.0,0.0,-3.5816,-3.5735,-3.5572,-3.5087,-3.4966,-3.5459,-3.5055,-3.5519,-3.7285,-3.9379,-4.1309,-4.2985,-4.4631,-4.6256,-4.7908,-4.687,-4.7144,-4.8889,-4.8469,-4.873,-4.9464,-4.9404,-4.9809,-5.059,-5.0275,-5.0515,-5.1131,-5.0936,-5.0575,-5.014,-5.014,-4.9042,-4.745,-4.7932,-4.7045,-4.5484,-4.4586,-4.4199,-4.4131,-4.3945,-4.4103,-4.4543,-4.5429,-4.4827,-4.3631,-4.2981,-4.1315,-3.9863,-4.0579,-4.1396,-4.2358,-4.3406,-4.4428,-4.5635,-4.7519,-4.8327,-4.9268,-5.1212,-5.1296,-5.1279,-5.2124,-5.1655,-5.1503,-5.2658,-5.2572,-5.2672,-5.35,-5.2605,-5.1761,-5.1512,-5.0734,-5.0137,-4.9939,-4.9607,-4.9409,-4.9409,-4.9409,-4.9326,-4.9127,-4.9988,-5.0171,-4.9442,-4.9607,-4.9607,-4.9409,-4.8879,-4.9409,-5.0982,-5.0651,-5.1164,-5.2409,-5.2409,-5.2409,-5.2409,-5.2409,-5.2409,-5.2409,-5.2409,-5.2111,-5.1597,-5.1398,-5.0518,-4.9326,-4.858,-4.8166,-4.8001,0.0,0.0,0.0,0.0,0.0,0.0,0.0,0.0,0.0,0.0,0.0,0.0,0.0,-3.5557,-3.5489,-3.5504,-3.5489,-3.6028,-3.733,-3.8078,-3.9685,-4.2306,-4.306,-4.4347,-4.6349,-4.6337,-4.6651,-4.7367,-4.7967,-4.8114,-4.7701,-4.8966,-4.9385,-4.9075,-4.9666,-5.0318,-5.094,-5.0257,-4.991,-4.9924,-4.9924,-4.8683,-4.6917,-4.685,-4.5997,-4.4913,-4.5436,-4.4331,-4.2563,-4.2559,-4.2705,-4.2877,-4.291,-4.3977,-4.4779,-4.2434,-4.0769,-4.0172,-4.2312,-4.2523,-4.2914,-4.6293,-4.723,-4.8065,-5.0961,-5.1816,-5.2337,-5.3623,-5.2769,-5.1731,-5.1576,-5.0804,-5.0485,-5.1249,-5.1962,-5.2177,-5.1498,-5.2523,-5.2324,-4.9541,-4.9806,-4.9939,-4.921,-4.9773,-5.0187,-5.0187,-5.0187,-4.9856,-4.9144,-5.0469,-5.0916,-5.0204,-5.085,-5.0883,-5.0187,-5.0154,-5.0187,-5.0253,-5.0932,-5.168,-5.2409,-5.2409,-5.2409,-5.2409,-5.2409,-5.2409,-5.2409,-5.2409,-5.2409,-5.231,-5.1597,-5.0833,-5.0088,-4.9342,-4.8614,-4.8001,0.0,0.0,0.0,0.0,0.0,0.0,0.0,0.0,0.0,0.0,0.0,0.0,0.0,0.0,0.0,0.0,-3.5135,-3.5385,-3.6716,-3.7946,-3.9183,-4.0551,-4.2605,-4.4016,-4.4695,-4.557,-4.6143,-4.6354,-4.709,-4.7555,-4.7794,-4.8291,-4.891,-4.9575,-4.9378,-4.9651,-5.0242,-5.0,-4.9393,-4.8513,-4.7619,-4.6097,-4.4341,-4.3289,-4.2098,-4.1011,0.0,-4.1705,-4.1567,-4.0294,-4.0194,-4.0711,-4.1303,-4.147,-4.1282,-4.0352,-4.079,-4.1743,-4.256,-4.4436,-4.66,-4.8495,-4.9636,-5.0877,-5.2974,-5.3041,-5.272,-5.3065,-5.1194,-4.9276,-4.858,-4.8199,-4.8249,-4.8978,-5.0535,-5.1597,-5.1348,-5.128,-5.075,-4.9276,-4.9756,-4.9922,-4.9177,-4.9326,-4.9475,-4.9475,-5.0369,-5.0601,-4.9889,-5.1214,-5.1713,-5.0932,-5.0701,-5.0452,-5.022,-4.9243,-4.9475,-5.0932,-5.1696,-5.2177,-5.2409,-5.2409,-5.2409,-5.2409,-5.2409,-5.2409,-5.2409,-5.2409,-5.2127,-5.1696,-5.1945,-5.0966,-4.9508,-4.9756,-4.9061,-4.8001,0.0,0.0,0.0,0.0,0.0,0.0,0.0,0.0,0.0,0.0,0.0,0.0,0.0,0.0,0.0,0.0,0.0,-3.5383,-3.6255,-3.7424,-3.8484,-3.939,-4.1388,-4.2682,-4.3167,-4.4016,-4.447,-4.447,-4.4965,-4.543,-4.5849,-4.5905,-4.6417,-4.7265,-4.7139,-4.7413,-4.7993,-4.7764,-4.7154,-4.6285,-4.5148,-4.3853,-4.2417,-4.1201,-4.0153,0.0,-3.9147,-3.9628,-4.0231,-3.9139,-3.8909,-3.9214,-4.0007,-3.9867,-3.9571,-4.0227,-4.151,-4.309,-4.4997,-4.7122,-4.9256,-5.1195,-5.2134,-5.2938,-5.4267,-5.3981,-5.3122,-5.2181,-4.9859,-4.7573,-4.6119,-4.5547,-4.5665,-4.6659,-4.8233,-4.9542,-5.0038,-5.0171,-4.9839,-4.8845,-4.9607,-4.9922,-4.9177,-4.9342,-4.9392,-4.9127,-5.0452,-5.085,-4.9872,-5.1446,-5.2078,-5.1332,-5.0833,-5.0469,-5.022,-4.9011,-4.9243,-5.0899,-5.191,-5.2409,-5.2409,-5.2409,-5.2409,-5.2409,-5.2409,-5.2409,-5.2409,-5.2409,-5.2127,-5.1746,-5.2227,-5.1363,-4.9906,-5.0137,-4.9442,-4.8365,0.0,0.0,0.0,0.0,0.0,0.0,0.0,0.0,0.0,0.0,0.0,0.0,0.0,0.0,0.0,0.0,0.0,0.0,-3.6005,-3.6596,-3.7506,-3.8702,-3.9429,-4.0415,-4.1719,-4.181,-4.1841,-4.1841,-4.1886,-4.196,-4.2181,-4.2212,-4.2352,-4.2633,-4.3248,-4.3917,-4.4471,-4.3824,-4.3531,-4.3454,-4.2725,-4.1938,-4.1155,-4.0464,-4.0102,-3.9768,-3.8496,-3.8286,-3.8639,-3.9094,-3.8887,-3.8528,-3.922,-3.9431,-3.9879,-4.1955,-4.292,-4.4369,-4.9159,-5.0308,-5.0959,-5.4312,-5.4594,-5.4242,-5.4979,-5.4619,-5.3429,-5.1078,-4.875,-4.6424,-4.404,-4.2966,-4.2916,-4.4291,-4.5367,-4.6493,-4.7868,-4.9293,-4.9674,-4.8233,-4.9342,-4.9939,-4.9226,-4.9839,-4.9988,-4.9276,-5.0518,-5.0752,-4.9293,-5.1231,-5.2094,-5.1398,-5.1299,-5.0899,-5.022,-4.9525,-4.9525,-5.0237,-5.1694,-5.2409,-5.2409,-5.2409,-5.2409,-5.2409,-5.2409,-5.2409,-5.2409,-5.2409,-5.2409,-5.2409,-5.2409,-5.1945,-5.1166,-5.0469,-4.9723,-4.8945,0.0,0.0,0.0,0.0,0.0,0.0,0.0,0.0,0.0,0.0,0.0,0.0,0.0,0.0,0.0,0.0,0.0,0.0,-3.6005,-3.6252,-3.656,-3.6863,-3.8139,-3.9017,-3.937,-4.0366,-4.0872,-4.0872,-4.1408,-4.1705,-4.1776,-4.2247,-4.2529,-4.2617,-4.2786,-4.294,-4.3094,-4.2925,-4.2571,-4.1986,-4.0786,-3.9887,-3.9092,-3.7932,-3.7654,-3.7829,-3.7528,-3.7695,-3.8096,-3.8706,-3.9413,-4.0139,-4.0857,-4.136,-4.1905,-4.2986,-4.5438,-4.8042,-4.9326,-5.156,-5.3916,-5.5512,-5.5255,-5.4831,-5.5729,-5.3675,-5.1095,-4.9274,-4.5434,-4.1805,-3.9993,-4.0774,-4.1806,-4.2187,-4.6096,-4.9028,-4.8845,-4.9624,-4.9872,-4.8945,-4.9657,-5.0137,-4.9955,-5.0585,-5.0932,-5.0734,-5.1614,-5.173,-5.0767,-5.1812,-5.2291,-5.2144,-5.1048,-5.0402,-5.022,-5.0021,-5.0021,-5.0237,-5.1694,-5.2409,-5.2409,-5.2409,-5.2409,-5.2409,-5.2409,-5.2409,-5.2409,-5.2409,-5.2409,-5.2409,-5.2409,-5.1595,-5.0469,-5.0286,-4.9392,-4.8249,0.0,0.0,0.0,0.0,0.0,0.0,0.0,0.0,0.0,0.0,0.0,0.0,0.0,0.0,0.0,0.0,0.0,0.0,0.0,-3.6289,-3.6352,-3.6352,-3.7151,-3.7631,-3.7631,-3.8369,-3.8754,-3.8754,-3.917,-3.9354,-3.937,-3.9754,-3.9924,-3.9939,-4.0232,-4.037,-4.037,-4.037,-4.0139,0.0,0.0,-3.8115,-3.7903,-3.6894,-3.6784,-3.7207,-3.6967,-3.7371,-3.831,-4.0122,-4.1084,-4.1666,-4.2432,-4.3265,-4.4224,-4.5709,-4.7897,-5.0209,-5.1911,-5.3883,-5.5703,-5.6867,-5.6061,-5.4718,-5.3939,-5.1715,-4.8852,-4.5604,-4.2344,-3.9634,-3.8006,-3.9239,-4.0796,-4.1711,-4.5202,-4.81,-4.8978,-4.9475,-4.969,-4.9607,-5.0237,-5.0551,-5.0237,-5.085,-5.1315,-5.1315,-5.1696,-5.1746,-5.1332,-5.2011,-5.2409,-5.2409,-5.0966,-4.9906,-4.9243,-4.9889,-5.022,-5.0237,-5.1694,-5.2409,-5.2409,-5.2409,-5.2409,-5.2409,-5.2409,-5.2409,-5.2409,-5.2409,-5.2409,-5.2409,-5.2409,-5.1877,-5.1131,-5.08,-4.9955,-4.8978,0.0,0.0,0.0,0.0,0.0,0.0,0.0,0.0,0.0,0.0,0.0,0.0,0.0,0.0,0.0,0.0,0.0,0.0,0.0,0.0,-3.6492,-3.6492,-3.6492,-3.6492,-3.6492,-3.6492,-3.6492,-3.6492,-3.6492,-3.6492,-3.6492,-3.6492,-3.6492,-3.6522,-3.7107,-3.7369,-3.7369,-3.7369,-3.7369,-3.7323,-3.6722,-3.6816,-3.7208,0.0,-3.6861,-3.7358,-3.6983,-3.7533,-3.8928,-4.2133,-4.3015,-4.296,-4.4173,-4.5269,-4.6605,-4.8993,-5.0293,-5.1694,-5.5244,-5.6352,-5.6787,-5.7959,-5.6633,-5.4257,-5.1229,-4.9202,-4.6541,-4.1472,-3.9694,-3.8609,-3.721,-3.8228,-4.0044,-4.2286,-4.4059,-4.6129,-4.8995,-4.9392,-4.9591,-5.0154,-5.085,-5.0999,-5.0286,-5.085,-5.1348,-5.1448,-5.1365,-5.1348,-5.1448,-5.2061,-5.2291,-5.2092,-5.0767,-4.9409,-4.8017,-4.9475,-5.022,-5.0237,-5.1694,-5.2409,-5.2409,-5.2409,-5.2409,-5.2409,-5.2409,-5.2409,-5.2409,-5.2409,-5.2409,-5.2409,-5.2409,-5.2359,-5.2194,-5.1547,-5.0817,-5.022,0.0,0.0,0.0,0.0,0.0,0.0,0.0,0.0,0.0,0.0,-3.6492,-3.6492,0.0,0.0,0.0,0.0,0.0,0.0,0.0,0.0,0.0,-3.6492,-3.6492,-3.6492,-3.6492,-3.6492,-3.6492,-3.6492,-3.6492,-3.6492,-3.6492,-3.6492,-3.6492,-3.6492,-3.6615,-3.6661,-3.6661,-3.6661,-3.6661,-3.6661,-3.6538,-3.6554,-3.6631,-3.6554,0.0,0.0,-3.8423,-3.8865,-3.9483,-4.2398,-4.3188,-4.3533,-4.6881,-4.7899,-4.8326,-5.0694,-5.247,-5.4,-5.5735,-5.7105,-5.7942,-5.757,-5.617,-5.3906,-5.0426,-4.7089,-4.3739,-4.0242,-3.7965,-3.6514,-3.6241,-3.788,-4.0183,-4.2953,-4.5682,-4.8233,-5.0603,-5.0934,-5.0734,-5.027,-5.085,-5.0999,-5.0286,-5.085,-5.1564,-5.2177,-5.1647,-5.158,-5.2194,-5.2307,-5.1827,-5.0634,-4.9756,-4.8895,-4.8017,-4.9475,-5.022,-5.0237,-5.1694,-5.2409,-5.2409,-5.2409,-5.2409,-5.2409,-5.2409,-5.2409,-5.2409,-5.2409,-5.2409,-5.2409,-5.2409,-5.2045,-5.1481,-5.1365,-5.0817,-5.022,0.0,0.0,0.0,0.0,0.0,0.0,0.0,-3.6492,-3.6492,-3.6492,-3.6492,-3.6492,-3.6492,-3.6492,-3.6492,0.0,0.0,0.0,0.0,0.0,0.0,0.0,0.0,0.0,-3.6492,-3.6492,-3.6492,-3.6492,0.0,-3.6492,-3.6492,-3.6492,-3.6492,-3.6492,-3.6492,-3.6492,-3.6492,-3.6492,-3.6492,-3.6492,-3.6492,-3.6492,-3.6492,0.0,0.0,0.0,0.0,-3.8739,-3.9221,-4.2343,-4.3019,-4.3339,-4.7897,-4.9702,-5.0443,-5.1949,-5.3422,-5.4876,-5.6254,-5.7423,-5.8174,-5.7802,-5.5449,-5.2162,-4.8043,-4.4543,-4.12,-3.7733,-3.6158,-3.5545,-3.5926,-3.7483,-3.9553,-4.2042,-4.4277,-4.6626,-4.921,-4.9906,-5.0303,-5.0717,-5.1413,-5.1711,-5.138,-5.1645,-5.2028,-5.2393,-5.2078,-5.2045,-5.2393,-5.2061,-5.1514,-5.0783,-4.969,-4.8945,-4.858,-4.9657,-5.022,-5.0237,-5.1694,-5.2409,-5.2409,-5.2409,-5.2409,-5.2409,-5.2409,-5.2409,-5.2409,-5.2409,-5.2409,-5.2409,-5.2409,-5.2194,-5.1879,-5.1879,-5.1396,-5.0817,0.0,0.0,0.0,0.0,0.0,0.0,0.0,-3.6492,-3.6492,-3.6492,-3.6492,-3.6492,-3.6492,-3.6492,-3.6492,0.0,0.0,0.0,0.0,0.0,0.0,0.0,0.0,0.0,0.0,0.0,0.0,-3.6492,-3.6492,0.0,0.0,0.0,0.0,0.0,-3.6492,-3.6492,-3.6492,-3.6492,-3.6492,0.0,0.0,-3.6492,0.0,0.0,0.0,0.0,0.0,-3.8306,-3.8811,-4.2059,-4.2749,-4.2976,-4.7507,-4.9817,-5.1078,-5.1966,-5.3419,-5.5085,-5.6425,-5.7513,-5.8102,-5.763,-5.479,-5.0777,-4.5734,-4.2534,-3.9544,-3.5693,-3.4899,-3.5131,-3.586,-3.6953,-3.8543,-4.1011,-4.2357,-4.431,-4.7752,-4.8746,-4.9641,-5.1133,-5.1962,-5.2359,-5.2194,-5.2326,-5.2409,-5.2409,-5.2409,-5.2409,-5.2409,-5.1713,-5.1249,-5.1083,-4.979,-4.9028,-4.8879,-4.9756,-5.022,-5.0237,-5.1694,-5.2409,-5.2409,-5.2409,-5.2409,-5.2409,-5.2409,-5.2409,-5.2409,-5.2409,-5.2409,-5.2409,-5.2409,-5.2409,-5.2409,-5.2409,-5.2045,-5.163,0.0,0.0,0.0,0.0,0.0,0.0,0.0,-3.6492,-3.6492,-3.6492,-3.6492,-3.6492,-3.6492,-3.6492,-3.6492,0.0,0.0,0.0,0.0,0.0,0.0,0.0,0.0,0.0,0.0,0.0,0.0,-3.6492,-3.6492,0.0,0.0,0.0,0.0,0.0,0.0,-3.6492,-3.6492,-3.6492,0.0,0.0,0.0,0.0,0.0,0.0,0.0,0.0,0.0,-3.8306,-3.8702,-4.1456,-4.245,-4.2898,-4.5298,-4.6958,-4.8253,-4.9602,-5.2186,-5.4884,-5.5953,-5.7452,-5.8152,-5.6152,-5.4303,-5.1262,-4.4771,-4.1992,-3.9659,-3.5717,-3.4899,-3.5131,-3.586,-3.6108,-3.735,-4.0845,-4.1496,-4.3317,-4.8315,-4.9061,-4.9641,-5.1133,-5.1962,-5.2161,-5.1481,-5.2028,-5.2409,-5.2409,-5.2409,-5.2409,-5.2409,-5.1713,-5.0982,-5.0336,-4.9525,-4.8796,-4.8117,-4.9508,-5.022,-5.0237,-5.1694,-5.2409,-5.2409,-5.2409,-5.2409,-5.2409,-5.2409,-5.2409,-5.2409,-5.2409,-5.2409,-5.2409,-5.2409,-5.2409,-5.2409,-5.2409,-5.2376,-5.2326,0.0,0.0,0.0,0.0,0.0,0.0,-3.6492,-3.6492,-3.6492,-3.6492,-3.6492,-3.6492,-3.6492,-3.6492,-3.6492,-3.6492,0.0,0.0,0.0,0.0,0.0,0.0,0.0,0.0,0.0,0.0,-3.6492,-3.6492,-3.6492,0.0,0.0,0.0,0.0,0.0,0.0,-3.6492,-3.6492,-3.6492,0.0,0.0,0.0,0.0,0.0,0.0,0.0,0.0,0.0,0.0,-3.8107,-4.0244,-4.0752,-4.0707,-4.1768,-4.3087,-4.492,-4.8138,-5.0925,-5.3312,-5.5082,-5.6748,-5.7601,-5.5835,-5.328,-4.9747,-4.433,-4.1502,-3.9046,-3.561,-3.4899,-3.4982,-3.528,-3.5346,-3.6108,-3.8444,-3.9189,-4.0812,-4.4575,-4.6278,-4.7819,-4.974,-5.0999,-5.1812,-5.1962,-5.2243,-5.2409,-5.2409,-5.2409,-5.2409,-5.2409,-5.1713,-5.1183,-5.0866,-4.9723,-4.8961,-4.8663,-4.969,-5.022,-5.0237,-5.1694,-5.2409,-5.2409,-5.2409,-5.2409,-5.2409,-5.2409,-5.2409,-5.2409,-5.2409,-5.2409,-5.2409,-5.2409,-5.2409,-5.2409,-5.2409,-5.2409,-5.2409,0.0,0.0,0.0,0.0,0.0,-3.6492,-3.6492,-3.6492,-3.6492,-3.6492,-3.6492,-3.6492,-3.6492,-3.6492,-3.6492,-3.6492,-3.6492,0.0,0.0,0.0,0.0,0.0,0.0,0.0,0.0,0.0,-3.6492,-3.6492,-3.6492,-3.6492,0.0,0.0,-3.6492,-3.6492,0.0,0.0,0.0,0.0,0.0,0.0,0.0,0.0,0.0,0.0,0.0,0.0,0.0,0.0,0.0,0.0,0.0,-3.9028,-3.9582,-4.0503,-4.2074,-4.5516,-4.8631,-5.1296,-5.302,-5.4923,-5.6109,-5.503,-5.1967,-4.8164,-4.3942,-4.1036,-3.8369,-3.5494,-3.4899,-3.4899,-3.4899,-3.4899,-3.5379,-3.687,-3.7549,-3.8974,-4.2059,-4.4042,-4.598,-4.8199,-4.9558,-5.0684,-5.1645,-5.2125,-5.2409,-5.2409,-5.2409,-5.2409,-5.2409,-5.1713,-5.1216,-5.0966,-4.9972,-4.9326,-4.911,-5.0055,-5.0535,-5.0551,-5.1794,-5.2409,-5.2409,-5.2409,-5.2409,-5.2409,-5.2409,-5.2409,-5.2409,-5.2409,-5.2409,-5.2409,-5.2409,-5.2409,-5.2409,-5.2409,-5.2409,-5.2409,0.0,0.0,0.0,0.0,0.0,0.0,-3.6492,-3.6492,-3.6492,-3.6492,-3.6492,-3.6492,-3.6492,-3.6492,-3.6492,-3.6492,-3.6492,0.0,0.0,0.0,0.0,0.0,0.0,0.0,0.0,0.0,-3.6492,-3.6492,-3.6492,-3.6492,-3.6492,-3.6492,-3.6492,-3.6492,0.0,0.0,0.0,0.0,0.0,0.0,0.0,0.0,0.0,0.0,0.0,0.0,0.0,0.0,0.0,0.0,0.0,0.0,0.0,-3.9824,-3.9969,-4.1128,-4.4963,-4.8969,-4.96,-5.1613,-5.3501,-5.3297,-5.0451,-4.6871,-4.3551,-4.0544,-3.7744,-3.5387,-3.4899,-3.4899,-3.4899,-3.4899,-3.5379,-3.687,-3.7119,-3.8377,-4.1976,-4.3135,-4.4426,-4.6659,-4.7587,-4.8614,-5.0088,-5.1529,-5.2409,-5.2409,-5.2409,-5.2409,-5.2409,-5.1713,-5.0949,-5.0237,-5.022,-4.9856,-4.911,-5.0551,-5.1299,-5.1315,-5.2061,-5.2409,-5.2409,-5.2409,-5.2409,-5.2409,-5.2409,-5.2409,-5.2409,-5.2409,-5.2409,-5.2409,-5.2409,-5.2409,-5.2409,-5.2409,-5.2409,-5.2409,0.0,0.0,0.0,0.0,0.0,0.0,0.0,-3.6492,-3.6492,-3.6492,-3.6492,-3.6492,-3.6492,-3.6492,-3.6492,-3.6492,-3.6492,0.0,0.0,0.0,0.0,0.0,0.0,0.0,0.0,0.0,-3.6492,-3.6492,-3.6492,-3.6492,-3.6492,-3.6492,-3.6492,-3.6492,-3.6492,-3.6492,0.0,0.0,0.0,0.0,0.0,0.0,-3.6492,0.0,0.0,0.0,0.0,0.0,0.0,0.0,0.0,0.0,0.0,0.0,0.0,-3.9927,-4.2582,-4.5755,-4.7088,-4.8406,-4.9259,-4.8692,-4.682,-4.4307,-4.1238,-3.9365,-3.7766,-3.6009,-3.5644,-3.581,-3.6307,-3.5992,-3.6141,-3.759,-3.7433,-3.803,-4.068,-4.2965,-4.4986,-4.6692,-4.9326,-5.1181,-5.1645,-5.2108,-5.2409,-5.2409,-5.2409,-5.2409,-5.2409,-5.1214,-5.0667,-5.0932,-5.0469,-5.0104,-4.9856,-5.08,-5.1315,-5.1315,-5.2061,-5.2409,-5.2409,-5.2409,-5.2409,-5.2409,-5.2409,-5.2409,-5.2409,-5.2409,-5.2409,-5.2409,-5.2409,-5.2409,-5.2409,-5.2409,-5.2409,-5.2409,0.0,0.0,0.0,0.0,0.0,0.0,0.0,-3.6492,-3.6492,-3.6492,-3.6492,-3.6492,-3.6492,-3.6492,-3.6492,-3.6492,-3.6492,0.0,0.0,0.0,0.0,0.0,0.0,0.0,-3.6492,-3.6492,-3.6492,-3.6492,-3.6492,-3.6492,-3.6492,-3.6492,-3.6492,-3.6492,-3.6492,-3.6492,0.0,0.0,0.0,0.0,0.0,0.0,-3.6492,0.0,0.0,0.0,0.0,0.0,0.0,0.0,0.0,0.0,0.0,0.0,0.0,0.0,-4.0448,-4.2582,-4.4524,-4.5617,-4.6234,-4.629,-4.4666,-4.251,-4.034,-3.8771,-3.7466,-3.6257,-3.6009,-3.6224,-3.697,-3.6721,-3.682,-3.803,-3.7814,-3.8195,-4.0144,-4.2386,-4.4622,-4.6659,-4.9657,-5.1446,-5.1164,-5.1893,-5.2258,-5.2028,-5.226,-5.2293,-5.2011,-5.085,-5.0535,-5.1299,-5.0585,-5.022,-5.022,-5.1197,-5.173,-5.173,-5.2194,-5.2409,-5.2409,-5.2409,-5.2409,-5.2409,-5.2409,-5.2409,0.0,-5.2409,-5.2409,-5.2409,-5.2409,-5.2409,-5.2409,-5.2409,-5.2409,-5.2409,0.0,0.0,0.0,0.0,0.0,0.0,0.0,-3.6492,-3.6492,-3.6492,-3.6492,-3.6492,-3.6492,-3.6492,-3.6492,-3.6492,0.0,0.0,0.0,0.0,0.0,0.0,0.0,0.0,-3.6492,-3.6492,-3.6492,-3.6492,-3.6492,-3.6492,-3.6492,-3.6492,-3.6492,-3.6492,-3.6492,-3.6492,-3.6492,0.0,0.0,0.0,0.0,0.0,0.0,0.0,0.0,0.0,0.0,0.0,0.0,0.0,0.0,0.0,0.0,0.0,0.0,0.0,0.0,0.0,0.0,-4.3141,-4.4051,-4.5324,-4.3548,-4.1305,-4.0453,-3.8642,0.0,-3.6307,-3.6158,-3.639,-3.7119,-3.7218,-3.7433,-3.8179,-3.8219,-3.8725,-4.021,-4.1789,-4.3893,-4.6792,-4.9044,-5.0088,-4.9342,-5.1148,-5.2127,-5.1431,-5.1978,-5.2028,-5.1348,-5.0551,-5.0436,-5.1133,-5.0485,-5.022,-5.0369,-5.1711,-5.2409,-5.2409,-5.2409,-5.2409,-5.2409,-5.2409,-5.2409,-5.2409,-5.2409,-5.2409,-5.2409,-5.2409,-5.2409,-5.2409,-5.2409,-5.2409,-5.2409,-5.2409,-5.2409,-5.2409,0.0,0.0,0.0,0.0,0.0,0.0,0.0,0.0,0.0,0.0,-3.6492,-3.6492,-3.6492,-3.6492,-3.6492,0.0,0.0,0.0,0.0,0.0,0.0,0.0,0.0,0.0,-3.6492,-3.6492,-3.6492,-3.6492,-3.6492,-3.6492,-3.6492,-3.6492,-3.6492,-3.6492,-3.6492,-3.6492,-3.6492,-3.6492,0.0,0.0,0.0,0.0,0.0,0.0,0.0,0.0,-3.6492,-3.6492,0.0,0.0,0.0,0.0,0.0,0.0,0.0,0.0,-3.8772,-3.9415,-3.9983,0.0,-4.0502,-4.0812,-4.0381,-3.9657,0.0,-3.8328,-3.7897,-3.7731,-3.7698,-3.7914,-3.8669,-3.8311,-3.8179,-3.8934,-3.8576,-3.8725,-4.021,-4.3545,-4.6758,-4.9144,-5.0883,-5.1578,-5.0833,-5.1779,-5.2343,-5.2161,-5.1796,-5.1498,-5.1315,-5.0071,-4.9442,-4.9607,-4.9458,-5.0171,-5.186,-5.2208,-5.2409,-5.2409,-5.2409,-5.2409,-5.2409,-5.2409,-5.2409,-5.2409,-5.2409,-5.2409,-5.2409,-5.2409,-5.2409,-5.2409,-5.2409,-5.2409,-5.2409,-5.2409,-5.2409,-5.2409,0.0,0.0,0.0,0.0,0.0,0.0,0.0,0.0,0.0,0.0,0.0,0.0,0.0,0.0,0.0,0.0,0.0,0.0,0.0,0.0,0.0,0.0,0.0,-3.6492,-3.6492,-3.6492,-3.6492,-3.6492,-3.6492,-3.6492,-3.6492,-3.6492,-3.6492,-3.6492,-3.6492,-3.6492,-3.6492,-3.6492,-3.6492,0.0,-3.6492,0.0,0.0,0.0,0.0,0.0,-3.6492,-3.6492,0.0,-3.6274,-3.6799,-3.7415,0.0,0.0,0.0,0.0,-3.8339,-3.8898,-3.9218,-3.9299,-3.9299,-3.9299,-3.9299,-3.9116,-3.8377,-3.8186,-3.8186,-3.8186,-3.8186,-3.8427,-3.9166,-3.8984,-3.8825,-3.9232,-3.9239,-3.9951,-4.2054,-4.4986,-4.7719,-4.9955,-5.1197,-5.163,-5.0866,-5.1761,-5.1995,-5.0949,-5.1131,-5.0982,-5.032,-4.9856,-4.9607,-4.9607,-4.9922,-5.0518,-5.138,-5.1711,-5.2078,-5.2409,-5.2409,-5.2409,-5.2409,-5.2409,-5.2409,-5.2409,-5.2409,-5.2409,-5.2409,-5.2409,-5.2409,-5.2409,-5.2409,-5.2409,-5.2409,-5.2409,-5.2409,-5.2409,0.0,0.0,0.0,0.0,0.0,0.0,0.0,0.0,0.0,0.0,0.0,0.0,0.0,0.0,0.0,0.0,0.0,0.0,0.0,0.0,0.0,0.0,-3.6492,-3.6492,-3.6492,-3.6492,-3.6492,-3.6492,-3.6599,-3.6645,-3.6645,-3.6753,-3.6738,-3.6645,-3.6538,-3.6492,-3.6492,-3.6492,-3.6492,-3.6492,-3.6492,0.0,0.0,0.0,0.0,0.0,0.0,0.0,0.0,-3.6242,-3.6492,-3.6753,-3.5943,0.0,0.0,0.0,0.0,0.0,-3.9121,-3.9299,-3.9299,-3.9299,-3.9299,-3.9149,-3.851,-3.8377,-3.8377,-3.8377,-3.8377,-3.8593,-3.9332,-3.9481,-3.9497,-3.9613,-4.0442,-4.2,-4.4655,-4.6394,-4.8067,-4.9839,-5.0866,-5.1115,-5.0286,-5.1429,-5.1396,-4.9425,-5.0303,-5.0452,-4.9342,-4.9657,-4.9988,-5.0204,-5.0684,-5.0767,-5.0369,-5.1082,-5.1796,-5.2409,-5.2409,-5.2409,-5.2409,-5.2409,-5.2409,-5.2409,-5.2409,-5.2409,-5.2409,-5.2409,-5.2409,-5.2409,-5.2409,-5.2409,-5.2409,-5.2409,-5.2409,-5.2409,0.0,0.0,0.0,0.0,0.0,0.0,0.0,0.0,0.0,0.0,0.0,0.0,0.0,0.0,0.0,0.0,0.0,0.0,0.0,0.0,0.0,-3.6492,-3.6492,-3.6492,-3.6492,-3.6492,-3.6492,-3.6492,-3.7061,-3.7353,-3.7353,-3.7938,-3.7892,-3.7323,-3.6738,-3.6492,-3.6492,-3.6492,-3.6492,-3.6492,-3.6492,0.0,0.0,0.0,0.0,0.0,0.0,0.0,0.0,-3.6132,-3.6414,-3.6753,-3.5814,0.0,0.0,0.0,0.0,0.0,-3.9121,-3.9299,-3.9299,-3.9299,-3.9299,-3.9265,-3.9166,-3.9133,-3.9133,-3.9133,-3.9133,-3.9365,-4.0111,-4.0243,-4.0426,-4.0994,-4.2734,-4.4622,-4.6311,-4.8382,-4.9607,-4.9309,-5.1015,-5.1694,-5.0336,-5.0966,-5.1048,-5.0104,-4.9674,-4.9607,-5.0021,-4.8961,-4.8912,-5.0171,-4.9707,-4.9972,-5.1133,-5.1879,-5.231,-5.2409,-5.2409,-5.2409,-5.2409,-5.2409,-5.2409,-5.2409,-5.2409,-5.2409,-5.2409,-5.2409,-5.2409,-5.2409,-5.2409,-5.2409,-5.2409,-5.2409,-5.2409,-5.2409,0.0,0.0,0.0,0.0,0.0,0.0,0.0,0.0,0.0,0.0,0.0,0.0,0.0,0.0,0.0,0.0,0.0,0.0,0.0,0.0,-3.6492,-3.6492,-3.6492,-3.6492,-3.6492,-3.6846,-3.703,-3.703,-3.7707,-3.8046,-3.8046,-3.7984,-3.76,-3.6953,-3.663,-3.6492,-3.6492,-3.6492,-3.6492,-3.6492,0.0,0.0,0.0,0.0,0.0,0.0,0.0,0.0,0.0,0.0,-3.6227,-3.6321,-3.5782,0.0,0.0,0.0,0.0,0.0,-3.8197,-3.8761,-3.9301,-3.9335,-3.932,-3.9299,-3.9299,-3.9299,-3.9299,-3.9299,-3.9299,-3.9531,-4.026,-4.1011,-4.2021,-4.3529,-4.497,-4.6262,-4.7338,-4.8713,-4.979,-5.022,-5.0817,-5.0949,-5.0286,-5.0518,-5.0402,-4.9674,-4.9674,-4.9856,-5.0187,-4.9939,-5.0088,-5.0767,-5.085,-5.1197,-5.1895,-5.2243,-5.2409,-5.2409,-5.2409,-5.2409,-5.2409,-5.2409,-5.2409,-5.2409,-5.2409,-5.2409,-5.2409,-5.2409,-5.2409,-5.2409,-5.2409,-5.2409,-5.2409,-5.2409,-5.2409,-5.2409,0.0,0.0,0.0,0.0,0.0,0.0,0.0,0.0,0.0,0.0,0.0,0.0,0.0,0.0,0.0,0.0,0.0,0.0,0.0,-3.6492,-3.6492,-3.6492,-3.6492,-3.6569,-3.6722,-3.723,-3.7584,-3.7738,-3.8415,-3.8739,-3.8739,-3.8061,-3.7384,-3.6722,-3.6569,-3.6492,-3.6492,-3.6492,-3.6492,-3.6492,0.0,0.0,0.0,0.0,0.0,0.0,0.0,0.0,0.0,0.0,0.0,0.0,0.0,0.0,0.0,-3.6227,-3.6753,-3.7191,-3.737,-3.8226,-3.9073,-3.9133,-3.934,-3.9647,-3.9978,-4.0061,-4.0111,-4.0276,-4.0299,-4.0464,-4.1044,-4.2319,-4.3843,-4.5516,-4.6709,-4.7603,-4.8183,-4.8895,-4.979,-5.0899,-5.0551,-5.022,-5.022,-5.022,-4.9906,-4.9177,-4.979,-5.0286,-5.0452,-5.0817,-5.1216,-5.1564,-5.1962,-5.2243,-5.2409,-5.2409,-5.2409,-5.2409,-5.2409,-5.2409,-5.2409,-5.2409,-5.2409,-5.2409,-5.2409,-5.2409,-5.2409,-5.2409,-5.2409,-5.2409,-5.2409,-5.2409,-5.2409,-5.2409,-5.2409,-5.2409,0.0,0.0,0.0,0.0,0.0,0.0,0.0,0.0,0.0,0.0,0.0,0.0,0.0,0.0,0.0,0.0,0.0,0.0,0.0,-3.6492,-3.6492,-3.6492,-3.6492,-3.6784,-3.7415,-3.7477,-3.78,-3.8431,-3.9108,-3.9447,-3.9398,-3.8754,-3.8077,-3.74,-3.6769,-3.6492,-3.6492,-3.6492,-3.6492,-3.6492,-3.6492,0.0,0.0,0.0,0.0,0.0,0.0,0.0,0.0,0.0,0.0,0.0,0.0,0.0,-3.5619,-3.6227,-3.643,-3.66,-3.7221,-3.7895,-3.8351,-3.8387,-3.9357,-4.0647,-4.1988,-4.2258,-4.2456,-4.3135,-4.3284,-4.33,-4.335,-4.4572,-4.5599,-4.5765,-4.757,-4.8961,-4.9011,-4.9674,-5.0171,-5.0286,-5.0237,-5.022,-5.022,-5.022,-4.9906,-4.9177,-4.979,-5.0502,-5.1199,-5.0618,-5.0916,-5.2293,-5.173,-5.173,-5.2373,-5.2409,-5.2409,-5.2409,-5.2409,-5.2409,-5.2409,-5.2409,-5.2409,-5.2409,-5.2409,-5.2409,-5.2409,-5.2409,-5.2409,-5.2409,-5.2409,-5.2409,-5.2409,-5.2409,-5.2409,-5.2409,0.0,0.0,0.0,0.0,0.0,0.0,0.0,0.0,0.0,0.0,0.0,0.0,0.0,0.0,0.0,0.0,0.0,0.0,0.0,-3.6492,-3.6492,-3.6492,-3.6492,-3.6799,-3.7492,-3.7923,-3.8462,-3.9105,-3.9782,-3.969,-3.8893,-3.8631,-3.7923,-3.6861,-3.6599,-3.6492,-3.6492,-3.6492,-3.6492,-3.6492,-3.6492,-3.6492,0.0,0.0,0.0,0.0,0.0,0.0,0.0,0.0,-3.5879,-3.5688,-3.5638,-3.5587,-3.5537,-3.5765,-3.6116,-3.6368,-3.6258,-3.7566,-3.8998,-3.9035,-4.0037,-4.1276,-4.2258,-4.2837,-4.3251,-4.3532,-4.434,-4.5119,-4.5582,-4.6858,-4.7703,-4.7239,-4.9011,-5.0303,-4.9856,-5.0419,-5.1048,-5.1496,-5.1148,-5.0866,-5.0866,-5.0469,-5.027,-5.0436,-5.0717,-5.1197,-5.1962,-5.1711,-5.181,-5.2393,-5.2144,-5.2127,-5.2409,-5.2409,-5.2409,-5.2409,-5.2409,-5.2409,-5.2409,-5.2409,-5.2409,-5.2409,-5.2409,-5.2409,-5.2409,-5.2409,-5.2409,-5.2409,-5.2409,-5.2409,-5.2409,-5.2409,-5.2409,-5.2409,0.0,0.0,0.0,0.0,0.0,0.0,0.0,0.0,0.0,0.0,0.0,0.0,0.0,0.0,0.0,0.0,0.0,0.0,-3.6492,-3.6492,-3.6492,-3.6492,-3.6492,-3.6799,-3.7492,-3.7954,-3.8631,-3.949,-3.9951,-3.9598,-3.8508,-3.8508,-3.7908,-3.6815,-3.6815,-3.6815,-3.6799,-3.6584,-3.6492,-3.6492,-3.6492,-3.6492,0.0,0.0,0.0,0.0,0.0,0.0,0.0,0.0,-3.5846,-3.5653,-3.5653,-3.5572,-3.5504,-3.5504,-3.5797,-3.6085,-3.5846,-3.7405,-3.9184,-3.9409,-4.0772,-4.2406,-4.3628,-4.3926,-4.4194,-4.5121,-4.5781,-4.6295,-4.6808,-4.7918,-4.8514,-4.7769,-4.969,-5.1032,-5.032,-5.0634,-5.1214,-5.1978,-5.138,-5.1032,-5.1299,-5.0833,-5.075,-5.1265,-5.1531,-5.1879,-5.2393,-5.2409,-5.2409,-5.2409,-5.2409,-5.2409,-5.2409,-5.2409,-5.2409,-5.2409,-5.2409,-5.2409,-5.2409,-5.2409,-5.2409,-5.2409,-5.2409,-5.2409,-5.2409,-5.2409,-5.2409,-5.2409,-5.2409,-5.2409,-5.2409,-5.2409,-5.2409,-5.2409,0.0,0.0,0.0,0.0,0.0,0.0,0.0,0.0,0.0,0.0,0.0,0.0,0.0,0.0,0.0,0.0,0.0,0.0,-3.6492,-3.6492,-3.6492,-3.6492,-3.6492,-3.6799,-3.7477,-3.7507,-3.8154,-3.9474,-3.949,-3.917,-3.8492,-3.8508,-3.8138,-3.7507,-3.7507,-3.7507,-3.7461,-3.6784,-3.6492,-3.6492,-3.6492,-3.6492,-3.6507,0.0,0.0,0.0,0.0,0.0,0.0,0.0,-3.5504,-3.5504,-3.5504,-3.5504,-3.5504,-3.5504,-3.5504,-3.5634,-3.6227,-3.742,-3.864,-3.9279,-4.1508,-4.4178,-4.6411,-4.5765,-4.5533,-4.8481,-4.7934,-4.6924,-4.6924,-4.7537,-4.7785,-4.704,-4.9359,-5.1032,-5.032,-5.022,-5.0485,-5.1232,-5.0667,-5.0518,-5.1249,-5.1315,-5.1315,-5.1315,-5.2011,-5.2409,-5.2409,-5.2409,-5.2409,-5.2409,-5.2409,-5.2409,-5.2409,-5.2409,-5.2409,-5.2409,-5.2409,-5.2409,-5.2409,-5.2409,-5.2409,-5.2409,-5.2409,-5.2409,-5.2409,-5.2409,-5.2409,-5.2409,-5.2409,-5.2409,-5.2409,-5.2409,-5.2409,-5.2409,0.0,0.0,0.0,0.0,0.0,0.0,0.0,0.0,0.0,0.0,0.0,0.0,0.0,0.0,0.0,0.0,0.0,0.0,-3.6492,-3.6492,-3.6492,-3.6492,-3.6492,-3.6584,-3.6784,-3.7261,-3.7938,-3.8816,-3.9259,-3.8923,-3.7815,-3.8292,-3.8138,-3.7507,-3.7507,-3.7507,-3.7461,-3.6784,-3.6492,-3.6492,-3.6492,-3.6784,-3.7153,0.0,0.0,0.0,0.0,0.0,0.0,0.0,0.0,0.0,-3.5504,-3.5504,-3.5504,-3.5504,-3.5833,-3.6226,-3.6426,-3.7805,-3.9365,-3.9996,-4.1933,-4.4233,-4.6337,-4.6142,-4.6013,-4.7934,-4.8398,-4.8448,-4.8448,-4.9458,-4.9906,-4.8647,-5.0038,-5.1232,-5.0982,-5.0949,-5.1231,-5.2011,-5.186,-5.181,-5.2061,-5.2078,-5.2078,-5.2078,-5.2293,-5.2409,-5.2409,-5.2409,-5.2409,-5.2409,-5.2409,-5.2409,-5.2409,-5.2409,-5.2409,-5.2409,-5.2409,-5.2409,-5.2409,-5.2409,-5.2409,-5.2409,-5.2409,-5.2409,-5.2409,-5.2409,-5.2409,-5.2409,-5.2409,-5.2409,-5.2409,-5.2409,-5.2409,-5.2409,0.0,0.0,0.0,0.0,0.0,0.0,0.0,0.0,0.0,0.0,-3.6492,0.0,0.0,0.0,0.0,0.0,0.0,0.0,0.0,-3.6492,-3.6492,-3.6492,-3.6492,-3.6492,-3.6492,-3.7415,-3.7831,-3.7707,-3.8385,-3.8292,-3.7507,-3.82,-3.8292,-3.7908,-3.7908,-3.7908,-3.7846,-3.6892,-3.6492,-3.6492,-3.6492,-3.6738,-3.7061,0.0,0.0,0.0,0.0,0.0,0.0,0.0,0.0,0.0,-3.5504,-3.5504,-3.5504,-3.5504,-3.6167,-3.696,-3.7204,-3.8561,-4.0185,-4.1417,-4.2907,-4.4518,-4.6352,-4.7388,-4.8233,-4.9127,-4.9425,-4.9641,-4.9922,-5.0452,-5.0667,-5.0071,-5.0984,-5.1746,-5.1746,-5.1746,-5.1912,-5.2359,-5.2409,-5.2409,-5.2409,-5.2409,-5.2409,-5.2409,-5.2409,-5.2409,-5.2409,-5.2409,-5.2409,-5.2409,-5.2409,-5.2409,-5.2409,-5.2127,-5.2127,-5.2409,-5.2111,-5.2127,-5.2409,-5.2409,-5.226,-5.1962,-5.1645,-5.1678,-5.1978,-5.1978,-5.1978,-5.2011,-5.231,-5.2409,-5.2409,-5.2409,-5.2409,-5.2409,0.0,0.0,0.0,0.0,0.0,0.0,0.0,0.0,0.0,0.0,-3.6492,-3.6492,0.0,0.0,0.0,0.0,0.0,0.0,0.0,-3.6492,-3.6492,-3.6492,-3.6553,-3.6615,-3.6676,-3.7815,-3.7846,-3.663,-3.723,-3.7492,-3.7475,-3.8152,-3.8506,-3.8567,-3.8506,-3.8475,-3.8415,-3.7061,-3.646,-3.646,-3.646,-3.6491,-3.6537,-3.6445,0.0,0.0,0.0,0.0,0.0,0.0,0.0,0.0,-3.5504,-3.5504,-3.5504,-3.5504,-3.6396,-3.7542,-3.8215,-3.9377,-4.0896,-4.2896,-4.4152,-4.5239,-4.6577,-4.9167,-5.1227,-5.1032,-5.0684,-5.0585,-5.1199,-5.08,-5.0618,-5.1299,-5.1978,-5.2409,-5.2409,-5.2409,-5.2409,-5.2409,-5.2409,-5.2409,-5.2409,-5.2409,-5.2393,-5.231,-5.234,-5.2393,-5.231,-5.234,-5.2409,-5.2409,-5.2409,-5.2409,-5.2409,-5.168,-5.1647,-5.231,-5.1564,-5.1564,-5.2175,-5.2359,-5.2011,-5.1265,-5.0518,-5.0585,-5.1216,-5.1216,-5.1249,-5.1382,-5.2061,-5.2359,-5.2409,-5.2409,-5.2409,-5.2409,0.0,0.0,0.0,0.0,0.0,0.0,0.0,0.0,0.0,0.0,0.0,0.0,0.0,0.0,0.0,0.0,0.0,0.0,0.0,-3.6492,-3.6492,-3.6492,-3.6999,-3.7538,-3.8061,-3.7846,-3.7751,-3.7851,-3.7612,-3.7428,-3.7299,-3.7958,-3.857,-3.9011,-3.8509,-3.8361,-3.8383,-3.6919,-3.6274,-3.6242,-3.6163,-3.642,-3.6831,-3.6123,-3.6165,0.0,0.0,0.0,0.0,0.0,0.0,0.0,-3.5504,-3.5504,-3.5504,-3.5504,-3.6084,-3.6866,-3.7482,-3.8637,-4.0011,-4.152,-4.4497,-4.7341,-4.8167,-4.978,-5.068,-4.9042,-5.0419,-5.1777,-5.1398,-5.1628,-5.1959,-5.2161,-5.231,-5.2409,-5.2409,-5.2409,-5.2409,-5.2409,-5.2409,-5.2409,-5.2409,-5.2409,-5.2177,-5.1597,-5.2078,-5.2161,-5.158,-5.2111,-5.2409,-5.2409,-5.2409,-5.2409,-5.2409,-5.168,-5.1398,-5.1547,-5.0783,-5.0518,-5.0717,-5.186,-5.2011,-5.1265,-5.0518,-5.0303,-5.0452,-5.0452,-5.0767,-5.1332,-5.1481,-5.1912,-5.2409,-5.2409,-5.2409,-5.2409,0.0,0.0,0.0,0.0,0.0,0.0,0.0,0.0,0.0,0.0,0.0,0.0,0.0,0.0,0.0,0.0,0.0,0.0,0.0,0.0,-3.663,-3.6953,-3.7631,-3.8138,-3.8492,-3.8378,-3.8297,-3.8213,-3.7877,-3.7709,-3.7693,-3.8296,-3.88,-3.9191,-3.8769,-3.8449,-3.8198,-3.7062,-3.6405,-3.6085,-3.6037,-3.6218,-3.6459,-3.6031,-3.601,-3.6155,-3.5741,0.0,0.0,0.0,0.0,0.0,0.0,0.0,-3.5504,-3.5504,-3.62,-3.7129,-3.7749,-3.8656,-3.9844,-4.1468,-4.4871,-4.7829,-4.7746,-4.9225,-5.0179,-4.8709,-5.0183,-5.1793,-5.1841,-5.2161,-5.2409,-5.2409,-5.2409,-5.2409,-5.2409,-5.2409,-5.2409,-5.2409,-5.2409,-5.2409,-5.2409,-5.2094,-5.173,-5.1348,-5.1313,-5.1181,-5.0783,-5.1131,-5.1496,-5.1879,-5.1529,-5.1512,-5.1879,-5.0783,-5.0419,-5.075,-5.0038,-4.9872,-5.022,-5.0634,-5.08,-5.0701,-4.9624,-4.9359,-4.9674,-4.9674,-4.9906,-5.0303,-5.1033,-5.1547,-5.1928,-5.2293,-5.2409,-5.2409,0.0,0.0,0.0,0.0,0.0,0.0,0.0,0.0,0.0,0.0,0.0,0.0,0.0,0.0,0.0,0.0,0.0,0.0,0.0,0.0,0.0,-3.7815,-3.8385,-3.8706,-3.8795,-3.9109,-3.8993,-3.8464,-3.8223,-3.8223,-3.8464,-3.8781,-3.9074,-3.9287,-3.9039,-3.8595,-3.7928,-3.7261,-3.6578,-3.5941,-3.591,-3.591,-3.591,-3.591,-3.5814,-3.5671,-3.5671,-3.5589,-3.5504,-3.5504,0.0,0.0,0.0,0.0,-3.5504,-3.5504,-3.6288,-3.7304,-3.7977,-3.8788,-3.9932,-4.1904,-4.4905,-4.7112,-4.636,-4.7884,-4.9229,-4.8566,-4.9847,-5.1273,-5.1905,-5.2103,-5.2227,-5.2227,-5.2227,-5.2227,-5.2227,-5.2343,-5.2359,-5.2243,-5.2227,-5.2277,-5.2409,-5.163,-5.1098,-5.1098,-5.0551,-5.0154,-5.0038,-5.0154,-5.0485,-5.1082,-5.0518,-5.0502,-5.1116,-4.9773,-4.9409,-5.0005,-4.9276,-4.9243,-4.9806,-4.9193,-4.9326,-4.9955,-4.8597,-4.8349,-4.8912,-4.8912,-4.8995,-4.9243,-5.0568,-5.1199,-5.1398,-5.2144,-5.2409,-5.2409,0.0,0.0,0.0,0.0,0.0,0.0,0.0,0.0,0.0,0.0,-3.6492,-3.6492,0.0,0.0,0.0,0.0,0.0,0.0,0.0,0.0,0.0,-3.92,-3.9339,-3.9594,-4.0056,-3.9683,-3.9482,-3.9481,-3.9076,-3.9076,-3.9481,-3.8963,-3.9073,-3.9602,-3.9028,-3.8443,-3.7928,-3.7113,-3.6353,-3.572,-3.5604,-3.5569,-3.5569,-3.5569,-3.5554,-3.5537,-3.5537,-3.5537,-3.5504,-3.5504,-3.5504,0.0,0.0,0.0,-3.5504,-3.5504,-3.5629,-3.5922,-3.6583,-3.8052,-3.9877,-4.1886,-4.3739,-4.4939,-4.4659,-4.5886,-4.7021,-4.6918,-4.9129,-5.0924,-5.042,-5.0955,-5.1464,-5.1464,-5.1464,-5.1464,-5.1464,-5.2011,-5.2177,-5.1531,-5.1464,-5.1713,-5.2359,-5.1148,-5.0353,-5.0353,-5.027,-4.9939,-4.9293,-4.9856,-5.0253,-5.0353,-5.027,-5.027,-5.0353,-4.9525,-4.916,-4.9243,-4.8514,-4.8199,-4.8299,-4.8199,-4.8547,-4.921,-4.8365,-4.8067,-4.815,-4.815,-4.8531,-4.9193,-5.0038,-5.0734,-5.1398,-5.2144,-5.2409,-5.2409,0.0,0.0,0.0,0.0,0.0,0.0,0.0,0.0,0.0,0.0,0.0,-3.6492,0.0,0.0,0.0,0.0,0.0,0.0,0.0,0.0,0.0,-3.9444,-3.949,-3.9813,-4.0385,-4.0006,-3.9797,-3.9889,-3.9461,-3.9319,-3.9517,-3.9217,-3.9304,-3.9681,-3.9273,-3.8547,-3.7658,-3.7256,-3.6502,-3.5572,-3.5522,-3.5504,-3.5504,-3.5504,-3.5504,-3.5504,-3.5504,-3.5504,-3.5504,-3.5504,-3.5504,-3.5504,-3.5504,0.0,0.0,0.0,-3.5504,-3.5654,-3.6312,-3.7913,-3.9634,-4.0502,-4.2104,-4.3392,-4.3241,-4.4361,-4.5409,-4.5333,-4.7059,-4.878,-4.9321,-4.9759,-5.0148,-5.0598,-5.0684,-5.0684,-5.0684,-5.0966,-5.1048,-5.0717,-5.0684,-5.08,-5.1131,-5.022,-4.9591,-4.9591,-4.921,-4.8845,-4.8514,-4.8796,-4.9177,-4.9574,-4.9193,-4.9177,-4.9591,-4.8862,-4.8481,-4.8481,-4.815,-4.8001,-4.8001,-4.8001,-4.8183,-4.8481,-4.815,-4.8001,-4.8001,-4.8001,-4.8199,-4.8564,-4.9309,-5.0038,-5.0717,-5.1048,-5.1678,-5.2359,0.0,0.0,0.0,0.0,0.0,0.0,0.0,0.0,0.0,0.0,0.0,0.0,0.0,0.0,0.0,0.0,0.0,0.0,0.0,0.0,0.0,-3.9705,-3.9702,-3.9914,-4.0351,-4.0137,-3.994,-3.9854,-3.9604,-3.9445,-3.9388,-3.9388,-3.9481,-3.9625,-3.9445,-3.8676,-3.7404,-3.7404,-3.6671,-3.5504,-3.5504,-3.5504,-3.5504,-3.5504,-3.5504,-3.5504,-3.5504,-3.5504,-3.5504,-3.5504,-3.5504,-3.5504,-3.5504,-3.5504,0.0,0.0,0.0,-3.5654,-3.6312,-3.7554,-3.8796,-3.929,-4.0586,-4.1803,-4.2061,-4.3084,-4.3921,-4.3823,-4.484,-4.6214,-4.7622,-4.8312,-4.8868,-4.9286,-4.9666,-4.9854,-4.9631,-4.9951,-5.0154,-4.9955,-4.9939,-5.0005,-5.0187,-4.9375,-4.8912,-4.9094,-4.8431,-4.8001,-4.8001,-4.8001,-4.8249,-4.8812,-4.8299,-4.8266,-4.8829,-4.8266,-4.8001,-4.8001,-4.8001,-4.8001,-4.8001,-4.8001,-4.8001,-4.8001,-4.8001,-4.8001,-4.8001,-4.8001,-4.8001,-4.8084,-4.8812,-4.9442,-4.9988,-5.0353,-5.1164,-5.2078,0.0,0.0,0.0,0.0,0.0,0.0,0.0,0.0,0.0,0.0,0.0,0.0,-3.6492,-3.6492,-3.6753,-3.7384,0.0,0.0,0.0,0.0,0.0,-4.0413,-4.032,0.0,-4.0031,-4.0011,-3.9818,-3.9424,-3.9589,-3.9589,-3.9388,-3.9388,-3.9424,-3.9424,-3.9409,-3.8676,-3.7404,-3.7404,-3.6671,-3.5504,-3.5504,-3.5504,-3.5504,-3.5504,-3.5504,-3.5504,-3.5504,-3.5504,-3.5504,-3.5504,-3.5504,-3.5504,-3.5504,-3.5504,-3.5504,0.0,0.0,0.0,-3.6312,-3.6552,-3.709,-3.8945,-3.9469,-3.988,-4.1168,-4.2015,-4.2494,-4.25,-4.3024,-4.3735,-4.458,-4.6496,-4.7732,-4.7098,-4.8204,-4.8891,-4.8137,-4.9278,-4.9955,-4.9243,-4.9177,-4.9442,-5.0154,-4.8912,-4.8349,-4.9061,-4.8431,-4.8001,-4.8001,-4.8001,-4.8017,-4.8067,-4.8017,-4.8017,-4.8067,-4.8017,-4.8001,-4.8001,-4.8001,-4.8001,-4.8001,-4.8001,-4.8001,-4.8001,-4.8001,-4.8001,-4.8001,-4.8001,-4.8001,-4.8084,-4.8812,-4.9127,-4.9342,-5.0752,-5.1299,-5.1464,0.0,0.0,0.0,0.0,0.0,0.0,0.0,0.0,0.0,0.0,0.0,0.0,0.0,-3.6767,-3.7088,-3.7477,-3.8292,0.0,0.0,0.0,0.0,-4.0351,-4.0207,-4.0066,-4.0011,-3.9889,-3.9732,-3.9589,-3.9553,-3.9445,-3.9388,-3.9388,-3.9388,-3.9388,-3.9388,-3.8676,-3.7404,-3.7404,-3.6671,-3.5504,-3.5504,-3.5504,-3.5504,-3.5504,-3.5504,-3.5564,-3.5983,-3.6133,-3.6193,-3.6596,-3.6462,-3.6133,-3.6133,-3.5848,-3.5504,-3.5504,-3.5504,-3.5549,-3.5789,-3.6163,-3.6656,-3.736,-3.7838,-3.8362,-3.926,-3.9978,-4.0591,-4.101,-4.1953,-4.2698,-4.2554,-4.4275,-4.5788,-4.6039,-4.6546,-4.6972,-4.7165,-4.7686,-4.8092,-4.8349,-4.8398,-4.8514,-4.8763,-4.8315,-4.8117,-4.8382,-4.815,-4.8001,-4.8001,-4.8001,-4.8001,-4.8001,-4.8001,-4.8001,-4.8001,-4.8001,-4.8001,-4.8001,-4.8001,-4.8001,-4.8001,-4.8001,-4.8001,-4.8001,-4.8001,-4.8001,-4.8001,-4.8001,-4.8001,-4.8034,-4.8299,-4.868,-4.9177,-4.969,-5.0469,-5.1348,0.0,0.0,0.0,0.0,0.0,0.0,0.0,0.0,0.0,-3.632,0.0,0.0,0.0,0.0,-3.7582,-3.7973,-3.9014,-3.9857,-4.0301,-4.0242,-4.0207,-4.0207,-3.9996,-3.9889,-3.9889,-3.947,-3.9384,-3.9589,-3.9257,-3.9185,-3.9388,-3.9388,-3.9388,-3.9388,-3.9388,-3.8676,-3.7404,-3.7404,-3.6671,-3.5534,-3.5744,-3.5833,-3.5863,-3.6073,-3.6148,-3.6207,-3.6641,-3.6791,-3.6851,-3.727,-3.7,-3.6492,-3.6492,-3.6028,-3.5504,-3.5504,-3.5504,-3.5504,-3.5504,-3.5833,-3.6207,-3.6432,-3.6791,-3.727,-3.7913,-3.8766,-3.9544,-3.9978,-4.1115,-4.1931,-4.1459,-4.2531,-4.37,-4.4477,-4.5227,-4.571,-4.567,-4.6338,-4.6918,-4.7226,-4.7704,-4.8001,-4.8001,-4.8001,-4.8001,-4.8001,-4.8001,-4.8001,-4.8001,-4.8001,-4.8001,-4.8001,-4.8001,-4.8001,-4.8001,-4.8001,-4.8001,-4.8001,-4.8001,-4.8001,-4.8001,-4.8001,-4.8001,-4.8001,-4.8001,-4.8001,-4.8001,-4.8001,-4.8001,-4.8001,-4.8001,-4.8465,-4.9144,-4.9392,-5.0253,-5.1348,0.0,0.0,0.0,0.0,0.0,0.0,0.0,0.0,-3.6066,-3.6066,0.0,0.0,0.0,0.0,0.0,-3.9009,-3.9646,-4.0011,-4.0011,-3.9996,-3.9996,-3.9996,0.0,0.0,-3.9681,-3.8857,-3.8751,-3.9388,-3.8751,-3.8766,-3.9388,-3.9388,-3.9388,-3.9388,-3.9388,-3.8676,-3.7404,-3.7404,-3.6686,-3.5594,-3.6252,-3.6522,-3.6611,-3.724,-3.7464,-3.7464,-3.7494,-3.7494,-3.7494,-3.7494,-3.7075,-3.6537,-3.6477,-3.6013,-3.5504,-3.5504,-3.5504,0.0,0.0,0.0,0.0,-3.6297,-3.6462,-3.6626,-3.724,-3.8392,-3.9313,-3.9343,-4.0427,-4.1324,-4.1324,-4.1354,-4.1632,-4.2246,-4.4167,-4.5071,-4.3683,-4.5318,-4.6419,-4.5807,-4.7029,-4.7902,-4.7935,-4.7935,-4.7984,-4.8001,-4.8001,-4.8001,-4.8001,-4.8001,-4.8001,-4.8001,-4.8001,-4.8001,-4.8001,-4.8001,-4.8001,-4.8001,-4.8001,-4.8001,-4.8001,-4.8001,-4.8001,-4.8001,-4.8001,-4.8001,-4.8001,-4.8001,-4.8001,-4.8001,-4.8034,-4.8481,-4.9193,-4.9955,-5.0684,-5.1415,0.0,0.0,0.0,0.0,0.0,0.0,-3.7367,-3.7367,-3.7367,0.0,0.0,0.0,-3.7622,-3.8277,-3.9191,-4.0345,-4.0178,-4.0011,-4.0011,-3.9854,-3.9768,-3.9768,-3.9589,-3.9481,-3.9481,-3.923,-3.923,-3.9388,-3.923,-3.923,-3.9388,-3.9388,-3.9388,-3.9388,-3.9388,-3.8676,-3.7404,-3.7404,-3.6941,-3.6267,-3.6896,-3.7434,-3.7943,-3.8616,-3.8871,-3.8931,-3.9409,-3.9574,-3.9574,-3.9574,-3.8811,-3.7614,-3.6222,-3.5654,-3.5504,-3.5504,-3.5504,0.0,-3.5504,0.0,0.0,0.0,0.0,0.0,-3.6596,-3.703,-3.7554,-3.8482,-3.9364,-3.9963,-3.9963,-4.0741,-4.128,-4.0995,-4.1889,-4.2633,-4.2771,-4.3278,-4.3823,-4.4241,-4.5109,-4.5881,-4.637,-4.6881,-4.7421,-4.7968,-4.8001,-4.8001,-4.8001,-4.8001,-4.8001,-4.8001,-4.8001,-4.8001,-4.8001,-4.8001,-4.8001,-4.8001,-4.8001,-4.8001,-4.8001,-4.8001,-4.8001,-4.8001,-4.8001,-4.8001,-4.8001,-4.8001,-4.8001,-4.805,-4.8597,-4.8928,-4.926,-5.0518,-5.1133,-5.1415,0.0,0.0,0.0,0.0,0.0,-3.7677,-3.7677,-3.7677,-3.7677,0.0,0.0,0.0,-3.8491,-3.8898,-3.9596,-4.0652,-4.0139,-3.9868,-4.0139,-3.979,-3.9709,-3.998,-3.9901,-3.9963,-4.0232,-3.9709,-3.9559,-3.9828,-3.9275,-3.914,-3.9388,-3.9388,-3.9388,-3.9388,-3.9388,-3.8676,-3.7404,-3.7404,-3.721,-3.6911,-3.727,-3.7973,-3.8901,-3.9574,-3.9828,-3.9918,-4.0576,-4.0816,-4.0816,-4.0816,-3.9918,-3.8437,-3.6207,-3.5684,-3.5863,-3.5594,-3.5504,0.0,0.0,0.0,0.0,-3.5504,0.0,0.0,-3.5983,-3.6297,-3.6776,-3.7778,-3.8302,-3.8661,-3.8931,-3.9394,-3.9679,-3.9574,-3.9873,-4.0491,-4.148,-4.2149,-4.2571,-4.2786,-4.3711,-4.4603,-4.5323,-4.6012,-4.6749,-4.7471,-4.7835,-4.8001,-4.8001,-4.8001,-4.8001,-4.8001,-4.8001,-4.8001,-4.8001,-4.8001,-4.8001,-4.8001,-4.8001,-4.8001,-4.8001,-4.8001,-4.8001,-4.8001,-4.8001,-4.8001,-4.8001,-4.8001,-4.8183,-4.8514,-4.8945,-4.9475,-5.0104,-5.1,-5.1498,-5.1829,0.0,0.0,-3.7539,-3.7614,-3.7629,-3.7629,-3.7629,-3.7629,-3.7629,0.0,-3.8138,-3.8766,-3.9454,-3.9433,-3.9694,-4.0337,-3.9873,-3.9768,-4.0367,-3.9918,-3.9903,-4.0487,-4.0502,-4.0756,-4.1265,-4.0127,-3.9783,-4.0292,-3.9095,-3.8811,-3.9388,-3.9388,-3.9388,-3.9388,-3.9388,-3.8676,-3.7404,-3.7404,-3.7449,-3.7524,-3.7599,-3.8482,-3.9828,-4.0472,-4.0726,-4.0801,-4.1384,-4.1594,-4.1564,-4.1339,-4.0502,-3.908,-3.6522,-3.6118,-3.6462,-3.5804,-3.5564,0.0,0.0,0.0,0.0,-3.5504,-3.5504,0.0,-3.5594,-3.6013,-3.6567,-3.727,-3.736,-3.7509,-3.8167,-3.7808,-3.7599,-3.8182,-3.8347,-3.8841,-4.0113,-4.1353,-4.1961,-4.1427,-4.2513,-4.3629,-4.4362,-4.5143,-4.588,-4.6601,-4.7407,-4.7902,-4.8001,-4.8001,-4.8001,-4.8001,-4.8001,-4.8001,-4.8001,-4.8001,-4.8001,-4.8001,-4.8001,-4.8001,-4.8001,-4.8001,-4.8001,-4.8001,-4.8001,-4.8001,-4.8017,-4.81,-4.8514,-4.9127,-4.9193,-5.0071,-5.1315,-5.1398,-5.1846,-5.2409,0.0,0.0,-3.8377,-3.8931,-3.9,-3.9,-3.9,-3.9,-3.9,-3.9,-3.914,-3.9469,-4.0127,-3.9738,-3.9694,-4.0337,-4.0277,-4.0262,-4.0382,-4.0771,-4.1055,-4.119,-4.119,-4.0995,-4.0591,-4.0337,-4.0008,-3.9619,-3.9349,-3.929,-3.9388,-3.9388,-3.9388,-3.9388,-3.9388,-3.8676,-3.7404,-3.7404,-3.7719,-3.8242,-3.8796,-4.0142,-4.1901,-4.2506,-4.2722,-4.2737,-4.2871,-4.2916,-4.2716,-4.113,-4.0427,-3.9828,-3.7704,-3.712,-3.7105,-3.6477,-3.5923,-3.5504,-3.5504,-3.5504,-3.5504,-3.5504,-3.5504,0.0,-3.6178,-3.5983,-3.6028,-3.7165,-3.7015,-3.6851,-3.7479,-3.7494,-3.7449,-3.7584,-3.8048,-3.8676,-3.9499,-3.9817,-3.9941,-3.982,-4.0591,-4.1426,-4.2159,-4.3387,-4.438,-4.5064,-4.632,-4.7337,-4.7968,-4.8001,-4.8001,-4.8001,-4.8001,-4.8001,-4.8001,-4.8001,-4.8001,-4.8001,-4.8001,-4.8001,-4.8001,-4.8001,-4.8001,-4.8001,-4.8001,-4.8001,-4.805,-4.8647,-4.8978,-4.9177,-4.9756,-5.0518,-5.1382,-5.1978,-5.2293,-5.2409,0.0,-3.8901,-3.9005,-3.9328,-3.9388,-3.9388,-3.9388,-3.9388,-3.9388,-3.9388,-3.9388,-3.9544,-3.9873,-3.9619,-3.9694,-4.0337,-4.0098,-4.0187,-4.0846,-4.0891,-4.119,-4.1886,-4.1916,-4.1752,-4.1422,-4.1055,-4.0561,-3.9903,-3.9574,-3.9388,-3.9388,-3.9388,-3.9388,-3.9373,-3.9065,-3.8347,-3.7434,-3.7764,-3.8287,-3.8901,-3.8901,-4.0098,-4.1976,-4.2596,-4.2851,-4.2895,-4.317,-4.329,-4.3035,-4.1444,-4.0891,-4.0606,-3.8931,-3.8182,-3.7764,-3.7135,-3.6492,-3.5923,-3.5594,-3.5504,-3.5504,-3.5504,-3.5504,0.0,0.0,-3.5744,-3.5789,-3.6746,-3.6701,-3.6582,-3.6896,-3.6941,-3.6941,-3.6941,-3.7225,-3.7659,-3.8317,-3.899,-3.9388,-3.9388,-3.9717,-4.0248,-4.099,-4.2006,-4.3079,-4.4123,-4.5514,-4.6479,-4.688,-4.7208,-4.7588,-4.8001,-4.7588,-4.7588,-4.8001,-4.8001,-4.8001,-4.8001,-4.8001,-4.8001,-4.8001,-4.8001,-4.8001,-4.7968,-4.7571,-4.7638,-4.8034,-4.8343,-4.8715,-4.9108,-5.0298,-5.1197,-5.1912,-5.2277,-5.2409,-5.2409,-3.9388,-3.9388,-3.9388,-3.9388,-3.9388,-3.9388,-3.9388,-3.9388,-3.9388,-3.9388,-3.9388,-3.9433,-3.9589,-3.9499,-3.9694,-4.0337,-3.9918,-4.0053,-4.113,-4.0816,-4.107,-4.2171,-4.2216,-4.2156,-4.2021,-4.1459,-4.0876,-4.0217,-3.9679,-3.9388,-3.9388,-3.9388,-3.9388,-3.9394,-3.8841,-3.8287,-3.7838,-3.8362,-3.8975,-3.9574,-3.914,-4.0044,-4.1677,-4.2336,-4.2515,-4.2485,-4.309,-4.329,-4.311,-4.1968,-4.1654,-4.1504,-4.0068,-3.923,-3.8601,-3.7674,-3.6971,-3.6342,-3.5684,-3.5504,-3.5504,-3.5504,-3.5504,-3.5504,0.0,0.0,0.0,-3.6193,-3.6297,-3.6297,-3.6297,-3.6297,-3.6252,-3.6151,-3.6312,-3.6626,-3.6985,-3.8197,-3.9,-3.9,-3.9,-3.9314,-4.0036,-4.0964,-4.2096,-4.3377,-4.4649,-4.5403,-4.559,-4.6088,-4.6835,-4.7737,-4.7152,-4.7186,-4.8001,-4.8001,-4.8001,-4.8001,-4.8001,-4.7935,-4.7787,-4.7787,-4.7671,-4.7521,-4.6862,-4.7028,-4.7767,-4.7834,-4.826,-4.9026,-5.049,-5.1498,-5.2142,-5.198,-5.2017,-5.2142,-3.9388,-3.9388,-3.9388,-3.9388,-3.9388,-3.9388,-3.9388,-3.9388,-3.9388,-3.9388,-3.9388,-3.9649,-4.0232,-3.9768,-3.9694,-4.0337,-4.0337,-4.0352,-4.0502,-4.0995,-4.1324,-4.1527,-4.1527,-4.122,-4.0636,-4.0546,-4.0187,-3.9493,-3.9454,-3.9388,-3.9388,-3.9388,-3.9388,-3.9388,-3.9298,-3.926,-3.92,-3.9275,-3.9679,-4.0337,-4.0831,-4.1557,-4.2351,-4.297,-4.2865,-4.2485,-4.309,-4.329,-4.3185,-4.253,-4.2626,-4.2751,-4.0891,-4.0232,-3.9813,-3.7958,-3.6971,-3.6342,-3.5684,-3.5504,-3.5504,-3.5504,-3.5504,-3.5504,-3.5504,0.0,-3.5534,-3.5609,0.0,-3.5609,-3.5609,0.0,0.0,-3.4833,-3.5699,-3.6312,-3.5789,-3.6821,-3.7644,-3.7644,-3.7644,-3.7888,-3.8577,-4.0319,-4.1772,-4.2661,-4.3368,-4.4081,-4.4795,-4.4909,-4.5543,-4.6898,-4.6862,-4.7186,-4.8001,-4.8001,-4.8001,-4.8001,-4.8001,-4.7638,-4.6931,-4.6931,-4.6585,-4.5949,-4.5877,-4.6226,-4.6881,-4.7474,-4.8133,-4.8805,-4.9763,-5.0598,-5.1156,-5.0368,-5.0576,-5.1156,-3.9499,-3.9388,0.0,-3.9388,-3.9388,-3.9388,-3.9388,-3.9388,-3.9388,-3.9388,-3.9388,-3.9664,-4.0337,-3.9813,-3.9843,-4.0876,-4.0621,-4.0726,-4.1527,-4.1482,-4.1728,-4.2476,-4.1788,-4.1287,-4.098,-4.0591,-4.0083,-3.9388,-3.9388,-3.9388,-3.9388,-3.9388,-3.9634,-3.9963,-3.9553,-3.9634,-4.0008,-4.0397,-4.0502,-4.0487,-4.1572,-4.1931,-4.1946,-4.294,-4.3125,-4.297,-4.32,-4.329,-4.3245,-4.3015,-4.2865,-4.2701,-4.2237,-4.1324,-4.0157,-3.8931,-3.7838,-3.6971,-3.6686,-3.6611,-3.6611,-3.6611,-3.6611,-3.6417,-3.5669,-3.5504,-3.5504,-3.5504,0.0,0.0,0.0,0.0,0.0,0.0,-3.5549,-3.5818,-3.5549,-3.5968,-3.6582,-3.7315,-3.7404,-3.7659,-3.8317,-3.9155,-3.9787,-4.0121,-4.1911,-4.295,-4.2895,-4.4016,-4.5324,-4.6761,-4.5917,-4.6288,-4.7968,-4.7521,-4.7521,-4.8001,-4.7521,-4.7118,-4.6777,-4.6359,-4.5969,-4.5692,-4.5606,-4.6009,-4.6744,-4.7372,-4.7784,-4.8055,-4.8883,-4.9974,-5.0989,-5.0135,-5.0345,-5.0989,-3.9514,0.0,-3.9694,-3.9694,-3.9508,-3.9388,-3.9388,-3.9388,-3.9388,-3.9388,-3.9388,-3.9738,-4.0576,-4.0247,-4.0412,-4.1587,-4.1205,-4.1265,-4.2081,-4.1512,-4.1624,-4.2746,-4.1713,-4.1115,-4.1115,-4.0651,-4.0083,-3.9388,-3.9388,-3.9388,-3.9388,-3.9388,-3.9679,-4.0113,-3.9634,-3.9888,-4.0696,-4.1175,-4.1309,-4.128,-4.2237,-4.2342,-4.1998,-4.2776,-4.314,-4.329,-4.329,-4.329,-4.329,-4.329,-4.3015,-4.2671,-4.297,-4.2087,-4.0771,-3.9933,-3.899,-3.8182,-3.8018,-3.7823,-3.7674,-3.7674,-3.7419,-3.6911,-3.5983,-3.5639,-3.5504,-3.5504,-3.5893,0.0,0.0,0.0,0.0,0.0,0.0,-3.5444,-3.525,-3.5385,-3.5848,-3.6776,-3.7045,-3.7345,-3.7823,-3.8362,-3.8512,-3.8138,-4.0347,-4.1577,-4.1281,-4.2669,-4.4382,-4.6432,-4.5206,-4.5536,-4.7638,-4.6896,-4.6793,-4.7354,-4.6759,-4.6394,-4.6166,-4.5608,-4.5258,-4.503,-4.5118,-4.5595,-4.6345,-4.7,-4.7328,-4.7516,-4.8306,-4.9318,-5.0361,-4.9702,-5.0017,-5.0631,-3.9388,-3.9933,-4.0367,-4.0367,-3.9843,-3.9388,-3.9388,-3.9388,-3.9388,-3.9388,-3.9388,-3.9903,-4.1205,-4.1324,-4.1632,-4.2306,-4.2351,-4.2081,-4.1444,-4.0786,-4.0726,-4.1414,-4.0786,-4.0427,-4.0427,-4.0412,-4.0083,-3.9388,-3.9388,-3.9388,-3.9388,-3.9388,-3.9388,-3.9454,-3.9388,-4.0142,-4.1354,-4.1407,-4.2102,-4.32,-4.3245,-4.3245,-4.317,-4.2626,-4.2776,-4.329,-4.329,-4.329,-4.329,-4.329,-4.329,-4.3155,-4.262,-4.2396,-4.2081,-4.0756,-4.0337,-4.0172,-3.9493,-3.8871,-3.8362,-3.8362,-3.7434,-3.6507,-3.6462,-3.5968,-3.5504,-3.5504,-3.5519,-3.5534,-3.5504,-3.5519,0.0,0.0,0.0,0.0,0.0,-3.5085,-3.5519,-3.5564,-3.6133,-3.6522,-3.6552,-3.8272,-3.8841,-3.7539,-3.8727,-3.976,-4.0404,-4.0516,-4.2114,-4.5634,-4.4924,-4.5264,-4.6811,-4.6111,-4.5733,-4.5769,-4.5733,-4.5332,-4.4586,-4.4548,-4.4105,-4.3399,-4.4073,-4.4717,-4.5402,-4.6065,-4.6738,-4.7394,-4.824,-4.8641,-4.8697,-4.8641,-4.9157,-4.9742,-4.0801,0.0,-4.0771,-3.9903,-3.9574,-3.9388,-3.9388,-3.9388,-3.9723,-4.0606,-4.0711,-4.1384,-4.3135,-4.2925,-4.312,-4.4212,-4.3509,-4.309,-4.3299,-4.2312,-4.2192,-4.3269,-4.1863,-4.125,-4.1722,-4.0846,-4.0083,-3.9388,-3.9858,-4.0068,-4.0068,-4.0068,-4.0307,-4.0696,-4.0262,-4.0801,-4.2066,-4.2066,-4.2321,-4.2686,-4.2514,-4.2183,-4.1939,-4.2682,-4.3135,-4.329,-4.329,-4.329,-4.329,-4.329,-4.329,-4.3245,-4.3075,-4.2701,-4.2231,-4.1347,-4.0741,-4.0442,-4.0651,-4.0546,-4.0404,-4.0404,-3.9723,-3.8841,-3.7943,-3.724,-3.6641,-3.6237,-3.6148,-3.6028,-3.5594,0.0,0.0,0.0,0.0,0.0,0.0,-3.5355,-3.5504,-3.5504,-3.5699,-3.6013,-3.6447,-3.709,-3.7285,-3.6836,-3.8061,-3.8884,-3.9071,-4.0328,-4.2042,-4.4157,-4.3876,-4.4472,-4.6056,-4.5279,-4.5184,-4.5697,-4.5147,-4.4774,-4.4472,-4.3966,-4.3792,-4.4018,-4.4676,-4.5349,-4.6022,-4.6696,-4.7115,-4.7352,-4.7624,-4.8088,-4.8615,-4.8615,-4.8764,-4.8872,-4.1459,-4.119,-4.0771,-3.9918,-3.9574,-3.9388,-3.9388,-3.9813,-4.0337,-4.095,-4.1639,-4.2551,-4.3823,-4.3962,-4.4377,-4.5214,-4.4751,-4.4336,-4.4317,-4.3299,-4.318,-4.4272,-4.2656,-4.2081,-4.2701,-4.1429,-4.0546,-4.0113,-4.0068,-4.0292,-4.0741,-4.0277,-4.0397,-4.101,-4.0337,-4.0651,-4.1707,-4.1946,-4.2186,-4.2396,-4.2108,-4.1754,-4.1409,-4.2357,-4.2748,-4.2778,-4.3001,-4.313,-4.317,-4.309,-4.317,-4.329,-4.321,-4.2966,-4.2626,-4.2207,-4.1773,-4.1534,-4.1968,-4.1908,-4.1767,-4.1767,-4.1055,-4.0172,-3.9305,-3.8601,-3.8018,-3.7614,-3.715,-3.6686,-3.6267,-3.5818,0.0,0.0,0.0,0.0,0.0,-3.5504,-3.5504,-3.5504,-3.5504,-3.5669,-3.6088,-3.6357,-3.6387,-3.6148,-3.7182,-3.7958,-3.8382,-3.9859,-4.1561,-4.3448,-4.3361,-4.3927,-4.5258,-4.4488,-4.432,-4.4849,-4.4565,-4.4432,-4.4432,-4.4153,-4.4272,-4.4706,-4.5364,-4.5918,-4.6324,-4.704,-4.7309,-4.7352,-4.7624,-4.7907,-4.8172,-4.849,-4.8615,-4.849,-4.1384,-4.0846,-4.0397,-4.0397,-3.9858,-3.9388,-3.9388,-4.0502,-4.113,-4.0561,-4.2139,-4.3364,-4.3439,-4.4631,-4.5394,-4.5394,-4.5963,-4.5741,-4.4496,-4.3753,-4.3678,-4.4392,-4.3195,-4.2791,-4.3334,-4.2102,-4.1414,-4.1422,-4.0098,-4.0127,-4.1354,-4.0068,-3.9813,-4.0412,-3.9687,-3.9762,-4.0487,-4.1085,-4.1728,-4.2372,-4.2183,-4.1932,-4.169,-4.172,-4.172,-4.1764,-4.2452,-4.2795,-4.2955,-4.2754,-4.297,-4.325,-4.3036,-4.3115,-4.329,-4.329,-4.329,-4.329,-4.329,-4.288,-4.244,-4.244,-4.1444,-4.0502,-4.0502,-3.9993,-3.9514,-3.9448,-3.8452,-3.7524,-3.7434,-3.6417,-3.5579,0.0,0.0,0.0,0.0,-3.5504,-3.5504,-3.5504,-3.5504,-3.5504,-3.5504,-3.6073,-3.6178,-3.5549,-3.6088,-3.6985,-3.8227,-3.9005,-4.0592,-4.3267,-4.3331,-4.3669,-4.4434,-4.3669,-4.329,-4.3305,-4.4003,-4.4317,-4.4332,-4.499,-4.5319,-4.5379,-4.6037,-4.6309,-4.6384,-4.7055,-4.7309,-4.7381,-4.8214,-4.8019,-4.7381,-4.8214,-4.8532,-4.8407,-4.1512,-4.0846,-4.0397,-4.0397,-3.9858,-3.9388,-3.9388,-4.0127,-4.0935,-4.1796,-4.315,-4.4396,-4.5412,-4.6292,-4.6785,-4.6785,-4.6501,-4.613,-4.5828,-4.517,-4.5095,-4.5741,-4.499,-4.4392,-4.4062,-4.2791,-4.1916,-4.1422,-4.0546,-4.0561,-4.1369,-4.0531,-4.0427,-4.0873,-3.9698,-3.9832,-4.0888,-4.041,-4.0852,-4.1932,-4.218,-4.1957,-4.1536,-4.1846,-4.1689,-4.1379,-4.2331,-4.2729,-4.2769,-4.2729,-4.2769,-4.285,-4.2809,-4.293,-4.3076,-4.3076,-4.317,-4.329,-4.329,-4.317,-4.309,-4.309,-4.2462,-4.1901,-4.1901,-4.1392,-4.0741,-4.0247,-3.9873,-3.917,-3.7689,-3.7135,-3.6611,0.0,0.0,0.0,0.0,-3.5504,-3.5504,-3.5504,-3.5504,-3.5504,-3.5504,-3.5654,-3.5684,-3.5519,-3.5669,-3.6118,-3.6926,-3.8527,-3.9931,-4.1143,-4.2554,-4.3409,-4.3591,-4.3409,-4.329,-4.3305,-4.4003,-4.4317,-4.4332,-4.499,-4.5574,-4.6067,-4.6247,-4.6563,-4.707,-4.7234,-4.7309,-4.7309,-4.7538,-4.751,-4.7352,-4.7538,-4.7624,-4.7624,-4.1916,-4.1504,-4.1175,-4.0876,-4.0531,-4.0367,-4.0666,-4.1025,-4.1624,-4.2656,-4.4182,-4.5364,-4.5828,-4.6726,-4.7309,-4.7309,-4.6965,-4.6636,-4.6309,-4.5963,-4.5918,-4.6264,-4.5394,-4.4825,-4.4751,-4.3219,-4.2351,-4.2237,-4.101,-4.0876,-4.1826,-4.0546,-4.0375,-4.1035,-3.9698,-3.9647,-4.0497,-4.0332,-4.0615,-4.1219,-4.173,-4.1693,0.0,-4.1552,-4.1613,-4.1625,-4.222,-4.25,-4.2541,-4.2474,-4.2541,-4.2688,-4.2581,-4.2688,-4.2875,-4.2981,-4.3076,-4.321,-4.329,-4.329,-4.329,-4.329,-4.3045,-4.2776,-4.2776,-4.2506,-4.2132,-4.1758,-4.122,-4.0487,-3.9349,-3.8197,-3.6985,0.0,0.0,0.0,-3.5504,-3.5504,-3.5504,-3.5504,-3.5504,-3.5504,-3.5504,-3.5504,-3.5504,-3.5504,-3.5504,-3.5908,-3.6836,-3.8497,-3.9843,-4.0801,-4.2731,-4.3589,-4.329,-4.3574,-4.3723,-4.3738,-4.4421,-4.49,-4.5214,-4.5873,-4.6381,-4.6756,-4.6756,-4.6965,-4.7309,-4.7309,-4.7309,-4.7309,-4.7309,-4.7309,-4.7309,-4.7309,-4.7309,-4.7309,-4.2291,-4.2336,-4.2216,-4.1647,-4.1542,-4.1826,-4.265,-4.2635,-4.2731,-4.3334,-4.5098,-4.6097,-4.5499,-4.6546,-4.7309,-4.7309,-4.7309,-4.7055,-4.6444,-4.6456,-4.6456,-4.6456,-4.5334,-4.4885,-4.5289,-4.3579,-4.2806,-4.317,-4.1324,-4.0995,-4.2111,-4.0225,-3.998,-4.0997,-3.9713,-3.9409,-3.9885,-4.0483,-4.0661,-4.0612,-4.124,-4.1368,-4.1221,-4.1221,-4.1584,-4.2092,-4.2092,-4.2201,-4.231,-4.2175,-4.231,-4.2581,-4.2433,-4.2514,-4.2703,-4.2875,-4.2955,-4.3036,-4.321,-4.329,-4.329,-4.329,-4.329,-4.329,-4.329,-4.329,-4.329,-4.329,-4.2432,-4.1594,-4.1414,-3.9275,-3.718,-3.6073,-3.5818,-3.5759,-3.5759,-3.5833,-3.5818,-3.5654,-3.5714,0.0,-3.5519,-3.5504,-3.5504,-3.5504,-3.5504,-3.5983,-3.7105,-3.8586,-3.9948,-4.1085,-4.312,-4.3917,-4.3424,-4.3902,-4.4272,-4.4451,-4.502,-4.5663,-4.6309,-4.701,-4.7309,-4.7309,-4.7309,-4.7309,-4.7309,-4.7309,-4.7309,-4.7309,-4.7309,-4.7309,-4.7309,-4.7309,-4.7309,-4.7309,-4.1692,-4.2036,-4.2366,-4.2246,-4.2231,-4.2815,-4.4511,-4.3853,-4.3404,-4.4062,-4.5367,-4.6234,-4.6157,-4.6845,-4.7309,-4.7309,-4.7309,-4.7249,-4.7145,-4.713,-4.713,-4.713,-4.6905,-4.6322,-4.5319,-4.4421,-4.3494,-4.2575,-4.11,-4.0516,-4.0726,-3.963,-3.9728,-4.0728,-3.9833,-3.9657,-4.0061,-4.0334,-4.0675,-4.1069,-4.1724,-4.1959,-4.1918,-4.1918,-4.199,-4.2092,-4.2092,-4.2133,-4.2133,-4.2092,-4.2133,-4.2216,-4.2175,-4.2284,-4.2474,-4.25,-4.2729,-4.3036,-4.3036,-4.3155,-4.329,-4.329,-4.329,-4.329,-4.329,-4.329,-4.329,-4.329,-4.311,-4.2656,-4.1579,-3.9649,-3.8138,-3.7928,-3.7434,-3.7075,-3.7075,-3.7539,-3.7494,-3.6447,-3.6761,-3.6656,-3.5609,-3.5504,-3.5504,-3.5504,-3.5504,-3.5609,-3.5833,-3.8108,-3.9493,-3.9753,-4.2154,-4.3663,-4.4137,-4.3678,-4.4047,-4.5125,-4.5244,-4.5663,-4.6309,-4.701,-4.7309,-4.7309,-4.7309,-4.7309,-4.7309,-4.7309,-4.7309,-4.7309,-4.7309,-4.7309,-4.7309,-4.7309,-4.7309,-4.7309,-4.1991,-4.2417,-4.2865,-4.2865,-4.315,-4.3808,-4.5095,-4.5065,-4.4949,-4.5319,-4.5876,-4.6279,-4.6279,-4.692,-4.7309,-4.7309,-4.7309,-4.7309,-4.7309,-4.7309,-4.716,-4.6815,-4.6456,-4.5798,-4.4811,-4.4137,-4.3329,-4.2396,-4.1599,-4.0889,-4.0234,-3.9699,-3.9829,-4.0563,-4.0383,-4.0251,-4.0118,-4.0546,-4.088,-4.1149,-4.1831,-4.2092,-4.2092,-4.2092,-4.2092,-4.2092,-4.2092,-4.2092,-4.2092,-4.2092,-4.2092,-4.2092,-4.2092,-4.2175,-4.2242,-4.2351,-4.2541,-4.2729,-4.2809,-4.293,-4.297,-4.297,-4.309,-4.3155,-4.3155,-4.325,-4.329,-4.329,-4.329,-4.2886,-4.1624,-4.0591,-3.9723,-3.9035,-3.8362,-3.7913,-3.7913,-3.8197,-3.8167,-3.7554,-3.7434,-3.7165,-3.6552,-3.5893,-3.5504,-3.5504,-3.5504,-3.5789,-3.6462,-3.8347,-3.9738,-4.0412,-4.2656,-4.3798,-4.3768,-4.3823,-4.4332,-4.5289,-4.5289,-4.5828,-4.6845,-4.716,-4.7309,-4.7309,-4.7309,-4.7309,-4.7309,-4.7309,-4.7309,-4.7309,-4.7309,-4.7309,-4.7309,-4.7309,-4.7309,-4.7309,-4.2785,-4.3075,-4.3334,-4.3484,-4.3932,-4.4541,-4.52,-4.5873,-4.6324,-4.6474,-4.6488,-4.6488,-4.6488,-4.6995,-4.7309,-4.7309,-4.7309,-4.7309,-4.7309,-4.7309,-4.707,-4.6561,-4.5873,-4.5274,-4.4751,-4.4092,-4.3359,-4.2605,-4.2395,-4.1534,-4.0122,-4.0045,-4.0191,-4.0573,-4.0953,-4.0887,-4.0554,-4.0931,-4.1178,-4.1352,-4.1889,-4.2092,-4.2092,-4.2092,-4.2092,-4.2092,-4.2092,-4.2092,-4.2092,-4.2092,-4.2092,-4.2092,-4.2092,-4.2092,-4.2133,-4.2284,-4.2351,-4.2433,-4.2581,-4.2648,-4.2688,-4.2688,-4.2795,-4.2955,-4.2955,-4.3076,-4.325,-4.325,-4.325,-4.2976,-4.1983,-4.1683,-4.1287,-4.0217,-3.9469,-3.902,-3.902,-3.914,-3.9125,-3.8856,-3.8362,-3.7943,-3.7644,-3.6716,-3.6118,-3.6118,-3.5863,-3.6207,-3.7345,-3.8826,-4.0172,-4.1339,-4.315,-4.3888,-4.3499,-4.4062,-4.4721,-4.5514,-4.5514,-4.6142,-4.7309,-4.7309,-4.7309,-4.7309,-4.7309,-4.7309,-4.7309,-4.7309,-4.7309,-4.7309,-4.7309,-4.7309,-4.7309,-4.7309,-4.7309,-4.7309,-4.4018,-4.3703,-4.3484,-4.4122,-4.4272,-4.4541,-4.52,-4.5873,-4.6531,-4.713,-4.7219,-4.7219,-4.7219,-4.7264,-4.7309,-4.7309,-4.7309,-4.7309,-4.7309,-4.7309,-4.7279,-4.7219,-4.6576,-4.6202,-4.6085,-4.5469,-4.4496,-4.32,-4.32,-4.2136,-4.0085,-4.0503,-4.0827,-4.1044,-4.1076,-4.1395,-4.1874,-4.1323,-4.1453,-4.2005,-4.2063,-4.2092,-4.2092,-4.2092,-4.2092,-4.2092,-4.2092,-4.2092,-4.2092,-4.2092,-4.2092,-4.2092,-4.2092,-4.2092,-4.2092,-4.2133,-4.2242,-4.2392,-4.2433,-4.2541,-4.2688,-4.2688,-4.2729,-4.2729,-4.2729,-4.2875,-4.3036,-4.3036,-4.3155,-4.326,-4.3125,-4.2671,-4.2276,-4.2141,-4.1572,-4.11,-4.11,-4.1647,-4.1587,-4.0352,-4.0157,-3.9634,-3.8422,-3.8182,-3.8123,-3.8123,-3.7045,-3.6686,-3.7375,-3.926,-4.0636,-4.1392,-4.2716,-4.3648,-4.4212,-4.4287,-4.496,-4.619,-4.619,-4.6606,-4.7309,-4.7309,-4.7309,-4.7309,-4.7309,-4.7309,-4.7309,-4.7309,-4.7309,-4.7309,-4.7309,-4.7309,-4.7309,-4.7309,-4.7309,-4.7309,-4.4766,-4.4691,-4.4586,-4.4855,-4.5244,-4.5603,-4.5873,-4.6486,-4.701,-4.7264,-4.7309,-4.7309,-4.7309,-4.7309,-4.7309,-4.7309,-4.7309,-4.7309,-4.7309,-4.7309,-4.6935,-4.6127,-4.5843,-4.5514,-4.5125,-4.484,-4.4257,-4.329,-4.3437,-4.2515,-4.0541,-4.0945,-4.1188,-4.1292,-4.1552,-4.1845,-4.2078,-4.1802,-4.1845,-4.2092,-4.2092,-4.2092,-4.2092,-4.2092,-4.2324,-4.2629,-4.2629,-4.289,-4.3239,-4.3239,-4.2731,-4.2092,-4.2092,-4.2339,-4.2571,-4.2208,-4.2422,-4.2667,-4.2303,-4.2546,-4.2804,-4.2453,-4.2711,-4.2984,-4.2588,-4.2769,-4.2981,-4.2981,-4.3155,-4.329,-4.329,-4.312,-4.294,-4.294,-4.2402,-4.2006,-4.2006,-4.2231,-4.2201,-4.1677,-4.1235,-4.0771,-4.0232,-3.9469,-3.9005,-3.9005,-3.8542,-3.8527,-3.917,-4.0337,-4.1294,-4.1991,-4.2851,-4.3604,-4.4302,-4.4317,-4.499,-4.6279,-4.6279,-4.6666,-4.7309,-4.7309,-4.7309,-4.7309,-4.7309,-4.7309,-4.7309,-4.7309,-4.7309,-4.7309,-4.7309,-4.7309,-4.7309,-4.7309,-4.7309,-4.7309,-4.5469,-4.5439,-4.5364,-4.5559,-4.6007,-4.6279,-4.6279,-4.689,-4.7309,-4.7309,-4.7309,-4.7309,-4.7309,-4.7309,-4.7309,-4.7309,-4.7309,-4.7309,-4.7309,-4.7309,-4.6875,-4.5918,-4.5514,-4.5259,-4.52,-4.4811,-4.4377,-4.3873,-4.4091,-4.3156,-4.1183,-4.1336,-4.15,-4.1704,-4.1998,-4.2092,-4.2092,-4.2092,-4.2092,-4.2107,-4.2281,-4.2353,-4.2382,-4.2571,-4.2919,-4.3282,-4.3282,-4.3587,-4.3993,-4.3993,-4.3398,-4.2615,-4.2426,-4.2528,-4.2644,-4.2223,-4.2528,-4.2861,-4.2266,-4.2528,-4.2847,-4.2237,-4.2551,-4.2838,-4.2427,-4.2581,-4.2835,-4.2996,-4.3115,-4.325,-4.329,-4.329,-4.329,-4.329,-4.294,-4.2641,-4.2641,-4.2641,-4.2641,-4.2641,-4.2111,-4.1707,-4.1707,-4.0831,-4.0292,-4.0292,-4.0457,-4.0606,-4.0681,-4.1347,-4.2006,-4.2626,-4.309,-4.3604,-4.4302,-4.4511,-4.5185,-4.6279,-4.6516,-4.686,-4.7309,-4.7309,-4.7309,-4.7309,-4.7309,-4.7309,-4.7309,-4.7309,-4.7309,-4.7309,-4.7309,-4.7309,-4.7309,-4.7309,-4.7309,-4.7309,-4.6172,-4.5753,-4.5514,-4.6145,-4.6279,-4.6279,-4.6279,-4.689,-4.7309,-4.7309,-4.7309,-4.7309,-4.7309,-4.7309,-4.7309,-4.7309,-4.7309,-4.7309,-4.7309,-4.7309,-4.7294,-4.7279,-4.6007,-4.5918,-4.7234,-4.5963,-4.5274,-4.5274,-4.5274,-4.4165,-4.206,-4.1596,-4.1748,-4.2377,-4.2216,-4.2092,-4.2092,-4.2092,-4.2092,-4.215,-4.2745,-4.2977,-4.305,-4.3718,-4.3964,-4.3979,-4.3979,-4.3979,-4.3993,-4.3993,-4.3979,-4.3848,-4.3195,-4.2571,-4.2107,-4.2092,-4.2528,-4.2861,-4.2266,-4.2528,-4.2847,-4.2237,-4.2107,-4.2107,-4.2107,-4.2242,-4.25,-4.2915,-4.2981,-4.3076,-4.325,-4.329,-4.329,-4.329,-4.329,-4.329,-4.329,-4.329,-4.329,-4.329,-4.2746,-4.2396,-4.2396,-4.2366,-4.2366,-4.2366,-4.2925,-4.2731,-4.1429,-4.2036,-4.2641,-4.326,-4.329,-4.3604,-4.4302,-4.496,-4.5633,-4.6294,-4.698,-4.7294,-4.7309,-4.7309,-4.7309,-4.7309,-4.7309,-4.7309,-4.7309,-4.7309,-4.7309,-4.7309,-4.7309,-4.7309,-4.7309,-4.7309,-4.7309,-4.7309,-4.686,-4.6815,-4.6741,-4.695,-4.6995,-4.6995,-4.6995,-4.7174,-4.7309,-4.7309,-4.7309,-4.7309,-4.7309,-4.7309,-4.7309,-4.7309,-4.7309,-4.7309,-4.7309,-4.689,-4.6426,-4.5963,-4.5095,-4.5035,-4.5918,-4.5514,-4.5289,-4.5289,-4.518,-4.4198,-4.2514,-4.2232,-4.2187,-4.2392,-4.2216,-4.2092,-4.2092,-4.2092,-4.2092,-4.2107,-4.231,-4.2629,-4.3007,-4.3224,-4.3848,-4.4603,-4.4603,-4.4893,-4.5213,-4.4748,-4.4327,-4.395,-4.3732,-4.3819,-4.3834,-4.2963,-4.3166,-4.3529,-4.2876,-4.3181,-4.3631,-4.3427,-4.3398,-4.3268,-4.2818,-4.2548,-4.2474,-4.2729,-4.2809,-4.2809,-4.289,-4.289,-4.293,-4.3076,-4.3115,-4.3155,-4.329,-4.329,-4.329,-4.329,-4.315,-4.3015,-4.3015,-4.3015,-4.3015,-4.3015,-4.317,-4.311,-4.2731,-4.291,-4.3329,-4.3947,-4.3962,-4.45,-4.5636,-4.5903,-4.6337,-4.6995,-4.7204,-4.7309,-4.7309,-4.7309,-4.7309,-4.7309,-4.7309,-4.7309,-4.7309,-4.7309,-4.7309,-4.7309,-4.7309,-4.7309,-4.7309,-4.7309,-4.7309,-4.7309,-4.7219,-4.7309,-4.7309,-4.7309,-4.7309,-4.7309,-4.7309,-4.7309,-4.7309,-4.7309,-4.7309,-4.7309,-4.7309,-4.7309,-4.7309,-4.7309,-4.7309,-4.7309,-4.7309,-4.692,-4.6396,-4.5708,-4.5035,-4.487,-4.5289,-4.505,-4.493,-4.493,-4.4568,-4.3868,-4.293,-4.2622,-4.25,-4.2514,-4.2201,-4.2092,-4.2092,-4.2092,-4.2223,-4.2455,-4.2702,-4.3166,-4.3732,-4.3979,-4.4574,-4.5271,-4.5271,-4.5532,-4.5822,-4.5401,-4.5024,-4.4705,-4.4705,-4.4792,-4.469,-4.3674,-4.366,-4.3906,-4.3485,-4.3834,-4.4269,-4.4052,-4.3805,-4.35,-4.3094,-4.2813,-4.2702,-4.2893,-4.2949,-4.286,-4.2732,-4.2688,-4.2729,-4.2875,-4.2875,-4.2955,-4.3155,-4.321,-4.321,-4.329,-4.329,-4.329,-4.329,-4.329,-4.329,-4.329,-4.329,-4.3409,-4.3648,-4.3663,-4.3883,-4.4302,-4.4556,-4.5214,-4.6264,-4.6279,-4.6651,-4.7309,-4.7309,-4.7309,-4.7309,-4.7309,-4.7309,-4.7309,-4.7309,-4.7309,-4.7309,-4.7309,-4.7309,-4.7309,-4.7309,-4.7309,-4.7309,-4.7309,-4.7309,-4.7309,-4.7309,-4.7309,-4.7309,-4.7309,-4.7309,-4.7309,-4.7309,-4.7309,-4.7309,-4.7309,-4.7309,-4.7309,-4.7309,-4.7309,-4.7309,-4.7309,-4.7309,-4.7309,-4.7309,-4.7219,-4.689,-4.6234,-4.5589,-4.5244,-4.5289,-4.4736,-4.4451,-4.4451,-4.3708,-4.3364,-4.3325,-4.292,-4.2688,-4.2648,-4.2284,-4.2092,-4.2092,-4.2092,-4.244,-4.305,-4.3674,-4.4313,-4.4951,-4.5576,-4.5837,-4.588,-4.588,-4.588,-4.588,-4.5837,-4.5779,-4.5764,-4.5808,-4.5329,-4.4661,-4.4139,-4.3993,-4.3993,-4.3993,-4.4429,-4.4763,-4.4255,-4.3587,-4.3065,-4.3065,-4.3021,-4.3049,-4.3317,-4.3332,-4.3226,-4.2857,-4.2751,-4.2721,-4.2762,-4.2732,-4.2769,-4.2955,-4.2996,-4.3036,-4.325,-4.3334,-4.3364,-4.3364,-4.3409,-4.3409,-4.3364,-4.3364,-4.3604,-4.4212,-4.4332,-4.4407,-4.4451,-4.505,-4.5693,-4.6339,-4.6354,-4.6696,-4.7309,-4.7309,-4.7309,-4.7309,-4.7309,-4.7309,-4.7309,-4.7309,-4.7309,-4.7309,-4.7309,-4.7309,-4.7309,-4.7309,-4.7309,-4.7309,-4.7309,-4.7309,-4.7309,-4.7309,-4.7309,-4.7309,-4.7309,-4.7309,-4.7309,-4.7309,-4.7309,-4.7309,-4.7309,-4.7309,-4.7309,-4.7309,-4.7309,-4.7309,-4.7309,-4.7309,-4.7309,-4.7309,-4.6337,-4.5708,-4.5544,-4.49,-4.4781,-4.5289,-4.5663,-4.5816,-4.5816,-4.462,-4.3971,-4.3809,-4.3046,-4.2622,-4.2474,-4.2201,-4.2092,-4.2092,-4.2092,-4.244,-4.3007,-4.3166,-4.3892,-4.4908,-4.5068,-4.5445,-4.588,-4.588,-4.588,-4.5808,-4.53,-4.4821,-4.4516,-4.498,-4.4342,-4.3515,-4.3877,-4.3993,-4.3993,-4.3993,-4.4429,-4.498,-4.5343,-4.4589,-4.3761,-4.3761,-4.3355,-4.3137,-4.3745,-4.3847,-4.3803,-4.3729,-4.3277,-4.2984,-4.3109,-4.2781,-4.2541,-4.2729,-4.2769,-4.285,-4.3036,-4.3537,-4.389,-4.4037,-4.4541,-4.4616,-4.4122,-4.4077,-4.3888,-4.3544,-4.4526,-4.5304,-4.5828,-4.5992,-4.6396,-4.707,-4.707,-4.7145,-4.7309,-4.7309,-4.7309,-4.7309,-4.7309,-4.7309,-4.7309,-4.7309,-4.7309,-4.7309,-4.7309,-4.7309,-4.7309,-4.7309,-4.7309,-4.7309,-4.7309,-4.7309,-4.7309,-4.7309,-4.7309,-4.7309,-4.7309,-4.7309,-4.7309,-4.7309,-4.7309,-4.7309,-4.7309,-4.7309,-4.7309,-4.7309,-4.7309,-4.7309,-4.7309,-4.7309,-4.7174,-4.6875,-4.6172,-4.5484,-4.487,-4.4511,-4.4347,-4.4392,-4.4725,-4.4919,-4.4919,-4.4186,-4.3747,-4.3545,-4.3297,-4.3022,-4.2804,-4.2902,-4.2963,-4.2948,-4.2629,-4.2876,-4.3442,-4.3442,-4.4023,-4.4922,-4.5227,-4.5561,-4.588,-4.588,-4.588,-4.5822,-4.5459,-4.5126,-4.4922,-4.5242,-4.4661,-4.3921,-4.4284,-4.44,-4.4472,-4.4777,-4.5097,-4.5358,-4.5416,-4.4908,-4.44,-4.44,-4.4124,-4.3877,-4.3964,-4.3993,-4.3819,-4.3239,-4.2832,-4.2627,-4.2711,-4.2476,-4.231,-4.2541,-4.2581,-4.2765,-4.3386,-4.3783,-4.4206,-4.4695,-4.5095,-4.5155,-4.4781,-4.4766,-4.4751,-4.465,-4.5379,-4.5798,-4.5858,-4.6456,-4.695,-4.7309,-4.7309,-4.7309,-4.7309,-4.7309,-4.7309,-4.7309,-4.7309,-4.7309,-4.7309,-4.7309,-4.7309,-4.7309,-4.7309,-4.7309,-4.7309,-4.7309,-4.7309,-4.7309,-4.7309,-4.7309,-4.7309,-4.7309,-4.7309,-4.7309,-4.7309,-4.7309,-4.7309,-4.7309,-4.7309,-4.7309,-4.7309,-4.7309,-4.7309,-4.7309,-4.7309,-4.7309,-4.7309,-4.7309,-4.707,-4.6516,-4.6234,-4.5663,-4.4511,-4.4362,-4.4007,-4.3454,-4.3544,-4.3589,-4.3589,-4.3484,-4.3359,-4.3159,-4.3404,-4.3478,-4.333,-4.3673,-4.3892,-4.395,-4.3384,-4.3529,-4.4124,-4.4124,-4.4487,-4.5082,-4.5561,-4.5735,-4.5721,-4.5634,-4.5663,-4.5735,-4.5735,-4.5735,-4.575,-4.5851,-4.543,-4.4908,-4.501,-4.5039,-4.514,-4.5605,-4.5808,-4.575,-4.5169,-4.4966,-4.4908,-4.5024,-4.4966,-4.4763,-4.4356,-4.4284,-4.395,-4.2861,-4.2586,-4.2484,-4.2397,-4.2295,-4.2276,-4.2325,-4.2439,-4.2852,-4.3782,-4.406,-4.451,-4.5311,-4.5502,-4.5517,-4.5454,-4.5454,-4.5663,-4.6142,-4.6277,-4.6052,-4.5469,-4.6651,-4.7309,-4.7309,-4.7309,-4.7309,-4.7309,-4.7309,-4.7309,-4.7309,-4.7309,-4.7309,-4.7309,-4.7309,-4.7309,-4.7309,-4.7309,-4.7309,-4.7309,-4.7309,-4.7309,-4.7309,-4.7309,-4.7309,-4.7309,-4.7309,-4.7309,-4.7309,-4.7309,-4.7309,-4.7309,-4.7309,-4.7309,-4.7309,-4.7309,-4.7309,-4.7309,-4.7309,-4.7309,-4.7309,-4.7309,-4.7309,-4.7264,-4.716,-4.6082,-4.5364,-4.5155,-4.4601,-4.4272,-4.4167,-4.4706,-4.499,-4.499,-4.4436,-4.4046,-4.3842,-4.3179,-4.3022,-4.3316,-4.3193,-4.3456,-4.3979,-4.3877,-4.4197,-4.4748,-4.4748,-4.514,-4.5677,-4.5213,-4.5039,-4.498,-4.4472,-4.4618,-4.5039,-4.5039,-4.5039,-4.514,-4.5706,-4.543,-4.4995,-4.5561,-4.5721,-4.5634,-4.5169,-4.5459,-4.5866,-4.575,-4.53,-4.5039,-4.5605,-4.53,-4.5024,-4.5503,-4.559,-4.5532,-4.5329,-4.4835,-4.4284,-4.3776,-4.3224,-4.2673,-4.2206,-4.2569,-4.3017,-4.337,-4.4394,-4.5313,-4.5832,-4.6351,-4.6526,-4.616,-4.6115,-4.5963,-4.5484,-4.6007,-4.6234,-4.6172,-4.6905,-4.7309,-4.7309,-4.7309,-4.7309,-4.7309,-4.7309,-4.7309,-4.7309,-4.7309,-4.7309,-4.7309,-4.7309,-4.7309,-4.7309,-4.7309,-4.7309,-4.7309,-4.7309,-4.7309,-4.7309,-4.7309,-4.7309,-4.7309,-4.7309,-4.7309,-4.7309,-4.7309,-4.7309,-4.7309,-4.7309,-4.7309,-4.7309,-4.7309,-4.7309,-4.7309,-4.7309,-4.7309,-4.7309,-4.7309,-4.7309,-4.7309,-4.7309,-4.6396,-4.5364,-4.4287,-4.4287,-4.4152,-4.3753,-4.4077,-4.4242,-4.4242,-4.3888,-4.3577,-4.3308,-4.326,-4.3175,-4.3148,-4.3412,-4.3703,-4.3993,-4.3993,-4.4153,-4.4429,-4.4748,-4.5082,-4.5358,-4.5401,-4.5416,-4.5387,-4.5111,-4.5184,-4.5416,-4.5416,-4.5416,-4.5474,-4.5779,-4.5677,-4.5488,-4.5793,-4.588,-4.5822,-4.5503,-4.5648,-4.588,-4.588,-4.5648,-4.5503,-4.5822,-4.5648,-4.5401,-4.5358,-4.5343,-4.5242,-4.4922,-4.4618,-4.4197,-4.3558,-4.3195,-4.289,-4.2615,-4.2818,-4.3338,-4.4251,-4.4893,-4.558,-4.6254,-4.6593,-4.6725,-4.6645,-4.6615,-4.6567,-4.6396,-4.6681,-4.686,-4.686,-4.7145,-4.7309,-4.7309,-4.7309,-4.7309,-4.7309,-4.7309,-4.7309,-4.7309,-4.7309,-4.7309,-4.7309,-4.7309,-4.7309,-4.7309,-4.7309,-4.7309,-4.7309,-4.7309,-4.7309,-4.7309,-4.7309,-4.7309,-4.7309,-4.7309,-4.7309,-4.7309,-4.7309,-4.7309,-4.7309,-4.7309,-4.7309,-4.7309,-4.7309,-4.7309,-4.7309,-4.7309,-4.7309,-4.7309,-4.7309,-4.7309,-4.7234,-4.7085,-4.6606,-4.5517,-4.3828,-4.3947,-4.3813,-4.3305,-4.329,-4.329,-4.329,-4.325,-4.314,-4.2939,-4.3413,-4.3472,-4.3239,-4.3761,-4.3993,-4.3993,-4.3993,-4.3993,-4.4037,-4.4487,-4.4763,-4.4922,-4.53,-4.5532,-4.5634,-4.5503,-4.5532,-4.5648,-4.5648,-4.575,-4.588,-4.588,-4.588,-4.588,-4.588,-4.588,-4.588,-4.588,-4.588,-4.588,-4.588,-4.588,-4.588,-4.588,-4.588,-4.5735,-4.5227,-4.5111,-4.498,-4.4516,-4.4429,-4.4211,-4.3544,-4.3427,-4.3384,-4.3239,-4.334,-4.3876,-4.5055,-4.5347,-4.5727,-4.6447,-4.6506,-4.658,-4.68,-4.6844,-4.6931,-4.7207,-4.7207,-4.7251,-4.7309,-4.7309,-4.7309,-4.7309,-4.7309,-4.7309,-4.7309,-4.7309,-4.7309,-4.7309,-4.7309,-4.7309,-4.7309,-4.7309,-4.7309,-4.7309,-4.7309,-4.7309,-4.7309,-4.7309,-4.7309,-4.7309,-4.7309,-4.7309,-4.7309,-4.7309,-4.7309,-4.7309,-4.7309,-4.7309,-4.7309,-4.7309,-4.7309,-4.7309,-4.7309,-4.7309,-4.7309,-4.7309,-4.7309,-4.7309,-4.7309,-4.7309,-4.7055,-4.6384,-4.6309,-4.5978,-4.5185,-4.3992,-4.3349,-4.329,-4.329,-4.329,-4.329,-4.3115,-4.3241,-4.3632,-4.3412,-4.3553,-4.3921,-4.3964,-4.3993,-4.3993,-4.3993,-4.3993,-4.3993,-4.4037,-4.4385,-4.4821,-4.4327,-4.4472,-4.4879,-4.4327,-4.4487,-4.4966,-4.4966,-4.5372,-4.588,-4.588,-4.588,-4.588,-4.588,-4.588,-4.588,-4.588,-4.588,-4.588,-4.588,-4.588,-4.588,-4.588,-4.588,-4.588,-4.5822,-4.5808,-4.5793,-4.575,-4.575,-4.5532,-4.485,-4.4748,-4.4545,-4.3993,-4.44,-4.4777,-4.4923,-4.5475,-4.5957,-4.621,-4.621,-4.6358,-4.6594,-4.6639,-4.6712,-4.6916,-4.6931,-4.7019,-4.7309,-4.7309,-4.7309,-4.7309,-4.7309,-4.7309,-4.7309,-4.7309,-4.7309,-4.7309,-4.7309,-4.7309,-4.7309,-4.7309,-4.7309,-4.7309,-4.7309,-4.7309,-4.7309,-4.7309,-4.7309,-4.7309,-4.7309,-4.7309,-4.7309,-4.7309,-4.7309,-4.7309,-4.7309,-4.7309,-4.7309,-4.7309,-4.7309,-4.7309,-4.7309,-4.7309,-4.7309,-4.7309,-4.7309,-4.7309,-4.7309,-4.7309,-4.7189,-4.695,-4.6546,-4.5843,-4.4736,-4.3768,-4.329,-4.329,-4.329,-4.329,-4.329,-4.321,-4.3144,-4.3071,-4.299,-4.3079,-4.3369,-4.3369,-4.3602,-4.4008,-4.4385,-4.4545,-4.4545,-4.4545,-4.469,-4.4821,-4.4211,-4.4356,-4.485,-4.4632,-4.4966,-4.5503,-4.5503,-4.5677,-4.588,-4.588,-4.588,-4.588,-4.588,-4.588,-4.588,-4.588,-4.588,-4.588,-4.588,-4.588,-4.588,-4.588,-4.588,-4.588,-4.588,-4.588,-4.588,-4.588,-4.588,-4.5663,-4.4995,-4.4879,-4.4806,-4.4574,-4.4748,-4.5039,-4.5459,-4.5721,-4.5925,-4.6015,-4.6001,-4.6105,-4.6314,-4.6358,-4.6535,-4.6873,-4.7062,-4.7207,-4.7309,-4.7309,-4.7309,-4.7309,-4.7309,-4.7309,-4.7309,-4.7309,-4.7309,-4.7309,-4.7309,-4.7309,-4.7309,-4.7309,-4.7309,-4.7309,-4.7309,-4.7309,-4.7309,-4.7309,-4.7309,-4.7309,-4.7309,-4.7309,-4.7309,-4.7309,-4.7309,-4.7309,-4.7309,-4.7309,-4.7309,-4.7309,-4.7309,-4.7309,-4.7309,-4.7309,-4.7309,-4.7309,-4.7309,-4.7309,-4.7309,-4.7309,-4.7309,-4.7309,-4.6486,-4.5499,-4.4362,-4.3648,-4.329,-4.329,-4.329,-4.329,-4.329,-4.325,-4.3154,-4.312,-4.2957,-4.2945,-4.3076,-4.3034,-4.3137,-4.3427,-4.3834,-4.4008,-4.4008,-4.4008,-4.4255,-4.456,-4.4153,-4.4501,-4.5198,-4.5198,-4.5503,-4.588,-4.588,-4.588,-4.588,-4.588,-4.588,-4.588,-4.588,-4.588,-4.588,-4.588,-4.588,-4.588,-4.588,-4.588,-4.588,-4.588,-4.588,-4.588,-4.588,-4.588,-4.588,-4.588,-4.588,-4.5735,-4.5271,-4.5198,-4.5198,-4.5198,-4.5198,-4.5372,-4.5837,-4.588,-4.588,-4.588,-4.588,-4.597,-4.609,-4.609,-4.6314,-4.68,-4.7121,-4.7309,-4.7309,-4.7309,-4.7309,-4.7309,-4.7309,-4.7309,-4.7309,-4.7309,-4.7309,-4.7309,-4.7309,-4.7309,-4.7309,-4.7309,-4.7309,-4.7309,-4.7309,-4.7309,-4.7309,-4.7309,-4.7309,-4.7309,-4.7309,-4.7309,-4.7309,-4.7309,-4.7309,-4.7309,-4.7309,-4.7309,-4.7309,-4.7309,-4.7309,-4.7309,-4.7309,-4.7309,-4.7309,-4.7309,-4.7309,-4.7309,-4.7309,-4.7309,-4.7309,-4.7294,-4.6037,-4.5005,-4.4332,-4.3633,-4.329,-4.329,-4.329,-4.329,-4.329,-4.3115,-4.3337,-4.4005,-4.351,-4.3301,-4.3301,-4.3076,-4.2658,-4.2107,-4.2107,-4.2107,-4.2107,-4.2107,-4.2861,-4.3979,-4.3979,-4.4763,-4.588,-4.588,-4.588,-4.588,-4.588,-4.588,-4.588,-4.588,-4.588,-4.588,-4.588,-4.588,-4.588,-4.588,-4.588,-4.588,-4.588,-4.588,-4.588,-4.588,-4.588,-4.588,-4.588,-4.588,-4.588,-4.588,-4.588,-4.588,-4.588,-4.588,-4.588,-4.588,-4.588,-4.588,-4.588,-4.588,-4.588,-4.588,-4.588,-4.588,-4.588,-4.588,-4.6105,-4.655,-4.7033,-4.7309,-4.7309,-4.7309,-4.7309,-4.7309,-4.7309,-4.7309,-4.7309,-4.7309,-4.7309,-4.7309,-4.7309,-4.7309,-4.7309,-4.7309,-4.7309,-4.7309,-4.7309,-4.7309,-4.7309,-4.7309,-4.7309,-4.7309,-4.7309,-4.7309,-4.7309,-4.7309,-4.7309,-4.7309,-4.7309,-4.7309,-4.7309,-4.7309,-4.7309,-4.7309,-4.7309,-4.7309,-4.7309,-4.7309,-4.7309,-4.7309,-4.7309,-4.7309,-4.6905,-4.5963,-4.5514,-4.4796,-4.3633,-4.3409,-4.329,-4.329,-4.329,-4.329,-4.329,-4.325,-4.322,-4.3293,-4.3171,-4.3275,-4.3566,-4.3524,-4.3615,-4.3849,-4.3849,-4.3849,-4.3805,-4.3213,-4.3173,-4.3509,-4.3325,-4.3819,-4.4618,-4.5039,-4.5488,-4.588,-4.588,-4.588,-4.588,-4.588,-4.588,-4.588,-4.588,-4.588,-4.588,-4.588,-4.588,-4.588,-4.588,-4.588,-4.588,-4.588,-4.588,-4.588,-4.588,-4.588,-4.588,-4.588,-4.588,-4.588,-4.588,-4.588,-4.588,-4.588,-4.588,-4.588,-4.588,-4.588,-4.588,-4.588,-4.588,-4.588,-4.588,-4.6015,-4.618,-4.6314,-4.6756,-4.7019,-4.7019,-4.7207,-4.7309,-4.7309,-4.7309,-4.7309,-4.7309,-4.7309,-4.7309,-4.7309,-4.7309,-4.7309,-4.7309,-4.7309,-4.7309,-4.7309,-4.7309,-4.7309,-4.7309,-4.7309,-4.7309,-4.7309,-4.7309,-4.7309,-4.7309,-4.7309,-4.7309,-4.7309,-4.7309,-4.7309,-4.7309,-4.7309,-4.7309,-4.7309,-4.7309,-4.7309,-4.7309,-4.7309,-4.7309,-4.7309,-4.7309,-4.7309,-4.6741,-4.5379,-4.5289,-4.4706,-4.3349,-4.329,-4.329,-4.329,-4.329,-4.329,-4.329,-4.329,-4.325,-4.3115,-4.3036,-4.3138,-4.3415,-4.3348,-4.3514,-4.3853,-4.3853,-4.3853,-4.3782,-4.3206,-4.3082,-4.3288,-4.3382,-4.379,-4.4429,-4.5053,-4.5547,-4.588,-4.588,-4.588,-4.588,-4.588,-4.588,-4.588,-4.588,-4.588,-4.588,-4.588,-4.588,-4.588,-4.588,-4.588,-4.588,-4.588,-4.588,-4.588,-4.588,-4.588,-4.588,-4.588,-4.588,-4.588,-4.588,-4.588,-4.588,-4.588,-4.588,-4.588,-4.588,-4.588,-4.588,-4.588,-4.588,-4.588,-4.588,-4.609,-4.621,-4.621,-4.658,-4.68,-4.6916,-4.7062,-4.7207,-4.7309,-4.7309,-4.7309,-4.7309,-4.7309,-4.7309,-4.7309,-4.7309,-4.7309,-4.7309,-4.7309,-4.7309,-4.7309,-4.7309,-4.7309,-4.7309,-4.7309,-4.7309,-4.7309,-4.7309,-4.7309,-4.7309,-4.7309,-4.7309,-4.7309,-4.7309,-4.7309,-4.7309,-4.7309,-4.7309,-4.7309,-4.7309,-4.7309,-4.7309,-4.7309,-4.7309,-4.7309,-4.7309,-4.7309,-4.6741,-4.5379,-4.5289,-4.4706,-4.3349,-4.329,-4.329,-4.329,-4.329,-4.329,-4.329,-4.329,-4.329,-4.329,-4.3115,-4.3036,-4.3036,-4.285,-4.2729,-4.2729,-4.2729,-4.2729,-4.2729,-4.2514,-4.2772,-4.3374,-4.3818,-4.4356,-4.498,-4.5648,-4.588,-4.588,-4.588,-4.588,-4.588,-4.588,-4.588,-4.588,-4.588,-4.588,-4.588,-4.588,-4.588,-4.588,-4.588,-4.588,-4.588,-4.588,-4.588,-4.588,-4.588,-4.588,-4.588,-4.588,-4.588,-4.588,-4.588,-4.588,-4.588,-4.588,-4.588,-4.588,-4.588,-4.588,-4.588,-4.588,-4.588,-4.588,-4.588,-4.609,-4.6165,-4.6165,-4.6403,-4.6624,-4.6829,-4.6873,-4.7019,-4.7251,-4.7309,-4.7309,-4.7309,-4.7309,-4.7309,-4.7309,-4.7309,-4.7309,-4.7309,-4.7309,-4.7309,-4.7309,-4.7309,-4.7309,-4.7309,-4.7309,-4.7309,-4.7309,-4.7309,-4.7309,-4.7309,-4.7309,-4.7309,-4.7309,-4.7309,-4.7309,-4.7309,-4.7309,-4.7309,-4.7309,-4.7309,-4.7309,-4.7309,-4.7309,-4.7309,-4.7309,-4.7309,-4.7309,-4.6741,-4.5379,-4.5289,-4.4706,-4.3349,-4.329,-4.329,-4.329,-4.329,-4.329,-4.329,-4.329,-4.329,-4.329,-4.325,-4.325,-4.325,-4.317,-4.317,-4.317,-4.317,-4.317,-4.313,-4.2784,-4.3019,-4.3639,-4.3918,-4.4356,-4.498,-4.5648,-4.588,-4.588,-4.588,-4.588,-4.588,-4.588,-4.588,-4.588,-4.588,-4.588,-4.588,-4.588,-4.588,-4.588,-4.588,-4.588,-4.588,-4.588,-4.588,-4.588,-4.588,-4.588,-4.588,-4.588,-4.588,-4.588,-4.588,-4.588,-4.588,-4.588,-4.588,-4.588,-4.588,-4.588,-4.588,-4.588,-4.588,-4.588,-4.588,-4.5925,-4.597,-4.597,-4.618,-4.6314,-4.6343,-4.6697,-4.6931,-4.6975,-4.7207,-4.7309,-4.7309,-4.7309,-4.7309,-4.7309,-4.7309,-4.7309,-4.7309,-4.7309,-4.7309,-4.7309,-4.7309,-4.7309,-4.7309,-4.7309,-4.7309,-4.7309,-4.7309,-4.7309,-4.7309,-4.7309,-4.7309,-4.7309,-4.7309,-4.7309,-4.7309,-4.7309,-4.7309,-4.7309,-4.7309,-4.7309,-4.7309,-4.7309,-4.7309,-4.7309,-4.7309,-4.7309,-4.6741,-4.5379,-4.5289,-4.4706,-4.3349,-4.329,-4.329,-4.329,-4.329,-4.329,-4.329,-4.329,-4.329,-4.329,-4.329,-4.329,-4.329,-4.329,-4.329,-4.329,-4.329,-4.3469,-4.3753,-4.3445,-4.364,-4.4164,-4.4485,-4.4749,-4.498,-4.5648,-4.588,-4.588,-4.588,-4.588,-4.588,-4.588,-4.588,-4.588,-4.588,-4.588,-4.588,-4.588,-4.588,-4.588,-4.588,-4.588,-4.588,-4.588,-4.588,-4.588,-4.588,-4.588,-4.588,-4.588,-4.588,-4.588,-4.588,-4.588,-4.588,-4.588,-4.588,-4.588,-4.588,-4.588,-4.588,-4.588,-4.588,-4.588,-4.588,-4.588,-4.588,-4.588,-4.6015,-4.609,-4.621,-4.6432,-4.6653,-4.6916,-4.7019,-4.7164,-4.7309,-4.7309,-4.7309,-4.7309,-4.7309,-4.7309,-4.7309,-4.7309,-4.7309,-4.7309,-4.7309,-4.7309,-4.7309,-4.7309,-4.7309,-4.7309,-4.7309,-4.7309,-4.7309,-4.7309,-4.7309,-4.7309,-4.7309,-4.7309,-4.7309,-4.7309,-4.7309,-4.7309,-4.7309,-4.7309,-4.7309,-4.7309,-4.7309,-4.7309,-4.7309,-4.7204,-4.6621,-4.5379,-4.5185,-4.4586,-4.3349,-4.329,-4.329,-4.329,-4.329,-4.329,-4.329,-4.329,-4.329,-4.329,-4.329,-4.329,-4.329,-4.329,-4.329,-4.3305,-4.3409,-4.3768,-4.4291,-4.4165,-4.4388,-4.4855,-4.5184,-4.523,-4.5258,-4.5781,-4.5925,-4.588,-4.588,-4.588,-4.588,-4.588,-4.588,-4.588,-4.588,-4.588,-4.588,-4.588,-4.588,-4.588,-4.588,-4.588,-4.588,-4.588,-4.588,-4.588,-4.588,-4.588,-4.588,-4.588,-4.588,-4.588,-4.588,-4.588,-4.588,-4.588,-4.588,-4.588,-4.588,-4.588,-4.588,-4.588,-4.588,-4.588,-4.588,-4.588,-4.588,-4.588,-4.588,-4.597,-4.6135,-4.6165,-4.6388,-4.6829,-4.6873,-4.7019,-4.7309,-4.7309,-4.7309,-4.7309,-4.7309,-4.7309,-4.7309,-4.7309,-4.7309,-4.7309,-4.7309,-4.7309,-4.7309,-4.7309,-4.7309,-4.7309,-4.7429,-4.7399,-4.7324,-4.7309,-4.7309,-4.7309,-4.7309,-4.7309,-4.7309,-4.7309,-4.7309,-4.7309,-4.7309,-4.7309,-4.7309,-4.7309,-4.7309,-4.7309,-4.7309,-4.6785,-4.6127,-4.5349,-4.4766,-4.4122,-4.3319,-4.329,-4.329,-4.329,-4.329,-4.329,-4.329,-4.329,-4.329,-4.329,-4.329,-4.329,-4.329,-4.329,-4.329,-4.3334,-4.3943,-4.4227,-4.4321,-4.4475,-4.5027,-4.5776,-4.5404,-4.5742,-4.6329,-4.6195,-4.6046,-4.588,-4.588,-4.588,-4.588,-4.588,-4.588,-4.588,-4.588,-4.588,-4.588,-4.588,-4.588,-4.588,-4.588,-4.588,-4.588,-4.588,-4.588,-4.588,-4.588,-4.588,-4.588,-4.588,-4.588,-4.588,-4.588,-4.588,-4.588,-4.588,-4.588,-4.588,-4.588,-4.588,-4.588,-4.588,-4.588,-4.588,-4.588,-4.588,-4.588,-4.588,-4.588,-4.5925,-4.5925,-4.609,-4.6343,-4.6639,-4.68,-4.7019,-4.7309,-4.7309,-4.7309,-4.7309,-4.7309,-4.7309,-4.7309,-4.7309,-4.7309,-4.7309,-4.7309,-4.7309,-4.7309,-4.7309,-4.7309,-4.7369,-4.7938,-4.7803,-4.7384,-4.7309,-4.7309,-4.7309,-4.7309,-4.7309,-4.7309,-4.7309,-4.7309,-4.7309,-4.7309,-4.7309,-4.7309,-4.7309,-4.698,-4.6756,-4.6756,-4.6142,-4.5469,-4.4796,-4.4466,-4.4018,-4.3319,-4.329,-4.329,-4.329,-4.329,-4.329,-4.329,-4.329,-4.329,-4.329,-4.329,-4.329,-4.329,-4.329,-4.329,-4.3334,-4.4032,-4.4526,-4.4874,-4.5337,-4.5921,-4.6472,-4.6283,-4.6285,-4.6358,-4.6105,-4.597,-4.588,-4.588,-4.588,-4.588,-4.588,-4.588,-4.588,-4.588,-4.588,-4.588,-4.588,-4.588,-4.588,-4.588,-4.588,-4.588,-4.588,-4.588,-4.588,-4.588,-4.588,-4.588,-4.588,-4.588,-4.588,-4.588,-4.588,-4.588,-4.588,-4.588,-4.588,-4.588,-4.588,-4.588,-4.588,-4.588,-4.588,-4.588,-4.588,-4.588,-4.588,-4.588,-4.588,-4.588,-4.597,-4.6135,-4.6358,-4.6624,-4.6844,-4.7062,-4.7207,-4.7309,-4.7309,-4.7309,-4.7309,-4.7309,-4.7309,-4.7309,-4.7309,-4.7309,-4.7309,-4.7309,-4.7309,-4.7309,-4.7339,-4.7638,-4.7788,-4.7893]},{"header":{"parameterUnit":"m.s-1","parameterCategory":1,"la1":30.6,"la2":28.766,"lo1":-90.7593,"lo2":-88.6598,"dy":0.0162,"dx":0.0183,"nx":116,"ny":114,"refTime":"2023-04-18T06:00:00:Z","depth":0,"parameterNumber":3,"parameterNumberName":"V-component_of_WINDS"},"data":[0.0,0.0,0.0,0.0,0.0,0.0,0.0,0.0,0.0,0.0,0.0,0.0,0.0,0.0,0.0,0.0,0.0,0.0,0.0,0.0,0.0,0.0,0.0,0.0,0.0,0.0,0.0,0.0,0.0,0.0,0.0,0.0,0.0,0.0,0.0,0.0,0.0,0.0,0.0,0.0,0.0,0.0,0.0,0.0,0.0,0.0,0.0,0.0,0.0,0.0,0.0,0.0,0.0,0.0,0.0,0.0,0.0,0.0,0.0,0.0,0.0,0.0,0.0,0.0,0.0,0.0,0.0,0.0,0.0,0.0,0.0,0.0,0.0,0.0,0.0,0.0,0.0,0.0,0.0,0.0,0.0,0.0,0.0,0.0,0.0,0.0,0.0,0.0,0.0,0.0,0.0,0.0,0.0,0.0,0.0,0.0,0.0,0.0,0.0,0.0,0.0,0.0,0.0,0.0,0.0,0.0,0.0,0.0,0.0,0.0,0.0,0.0,0.0,0.0,0.0,0.0,0.0,0.0,0.0,0.0,0.0,0.0,0.0,0.0,0.0,0.0,0.0,0.0,0.0,0.0,0.0,0.0,0.0,0.0,0.0,0.0,0.0,0.0,0.0,0.0,0.0,0.0,0.0,0.0,0.0,0.0,0.0,0.0,0.0,0.0,0.0,0.0,0.0,0.0,0.0,0.0,0.0,0.0,0.0,0.0,0.0,0.0,0.0,0.0,0.0,0.0,0.0,0.0,0.0,0.0,0.0,0.0,0.0,0.0,0.0,0.0,0.0,0.0,0.0,0.0,0.0,0.0,0.0,0.0,0.0,0.0,0.0,0.0,0.0,0.0,0.0,0.0,0.0,0.0,0.0,0.0,0.0,0.0,0.0,0.0,0.0,0.0,0.0,0.0,0.0,0.0,0.0,0.0,0.0,0.0,0.0,0.0,0.0,0.0,0.0,0.0,0.0,0.0,0.0,0.0,0.0,0.0,0.0,0.0,0.0,0.0,0.0,0.0,0.0,0.0,0.0,0.0,0.0,0.0,0.0,0.0,0.0,0.0,0.0,0.0,0.0,0.0,0.0,0.0,0.0,0.0,0.0,0.0,0.0,0.0,0.0,0.0,0.0,0.0,0.0,0.0,0.0,0.0,0.0,0.0,0.0,0.0,0.0,0.0,0.0,0.0,0.0,0.0,0.0,0.0,0.0,0.0,0.0,0.0,0.0,0.0,0.0,0.0,0.0,0.0,0.0,0.0,0.0,0.0,0.0,0.0,0.0,0.0,0.0,0.0,0.0,0.0,0.0,0.0,0.0,0.0,0.0,0.0,0.0,0.0,0.0,0.0,0.0,0.0,0.0,0.0,0.0,0.0,0.0,0.0,0.0,0.0,0.0,0.0,0.0,0.0,0.0,0.0,0.0,0.0,0.0,0.0,0.0,0.0,0.0,0.0,0.0,0.0,0.0,0.0,0.0,0.0,0.0,0.0,0.0,0.0,0.0,0.0,0.0,0.0,0.0,0.0,0.0,0.0,0.0,0.0,0.0,0.0,0.0,0.0,0.0,0.0,0.0,0.0,0.0,0.0,0.0,0.0,0.0,0.0,0.0,0.0,0.0,0.0,0.0,0.0,0.0,0.0,0.0,0.0,0.0,0.0,0.0,0.0,0.0,0.0,0.0,0.0,0.0,0.0,0.0,0.0,0.0,0.0,0.0,0.0,0.0,0.0,0.0,0.0,0.0,0.0,0.0,0.0,0.0,0.0,0.0,0.0,0.0,0.0,0.0,0.0,0.0,0.0,0.0,0.0,0.0,0.0,0.0,0.0,0.0,0.0,0.0,0.0,0.0,0.0,0.0,0.0,0.0,0.0,0.0,0.0,0.0,0.0,0.0,0.0,0.0,0.0,0.0,0.0,0.0,0.0,0.0,0.0,0.0,0.0,0.0,0.0,0.0,0.0,0.0,0.0,0.0,0.0,0.0,0.0,0.0,0.0,0.0,0.0,0.0,0.0,0.0,0.0,0.0,0.0,0.0,0.0,0.0,0.0,0.0,0.0,0.0,0.0,0.0,0.0,0.0,0.0,0.0,0.0,0.0,0.0,0.0,0.0,0.0,0.0,0.0,0.0,0.0,0.0,0.0,0.0,0.0,0.0,0.0,0.0,0.0,0.0,0.0,0.0,0.0,0.0,0.0,0.0,0.0,0.0,0.0,0.0,0.0,0.0,0.0,0.0,0.0,0.0,0.0,0.0,0.0,0.0,0.0,0.0,0.0,0.0,0.0,0.0,0.0,0.0,0.0,0.0,0.0,0.0,0.0,0.0,0.0,0.0,0.0,0.0,0.0,0.0,0.0,0.0,0.0,0.0,0.0,0.0,0.0,0.0,0.0,0.0,0.0,0.0,0.0,0.0,0.0,0.0,0.0,0.0,0.0,0.0,0.0,0.0,0.0,0.0,0.0,0.0,0.0,0.0,0.0,0.0,0.0,0.0,0.0,0.0,0.0,0.0,0.0,0.0,0.0,0.0,0.0,0.0,0.0,0.0,0.0,0.0,0.0,0.0,0.0,0.0,0.0,0.0,0.0,0.0,0.0,0.0,0.0,0.0,0.0,0.0,0.0,0.0,0.0,0.0,0.0,0.0,0.0,0.0,0.0,0.0,0.0,0.0,0.0,0.0,0.0,0.0,0.0,0.0,0.0,0.0,0.0,0.0,0.0,0.0,0.0,0.0,0.0,0.0,0.0,0.0,0.0,0.0,0.0,0.0,0.0,0.0,0.0,0.0,0.0,0.0,0.0,0.0,0.0,0.0,0.0,0.0,0.0,0.0,0.0,0.0,0.0,0.0,0.0,0.0,0.0,0.0,0.0,0.0,0.0,0.0,0.0,0.0,0.0,0.0,0.0,0.0,0.0,0.0,0.0,0.0,0.0,0.0,0.0,0.0,0.0,0.0,0.0,0.0,0.0,0.0,0.0,0.0,0.0,0.0,0.0,0.0,0.0,0.0,0.0,0.0,0.0,0.0,0.0,0.0,0.0,0.0,0.0,0.0,0.0,0.0,0.0,0.0,0.0,0.0,0.0,0.0,0.0,0.0,0.0,0.0,0.0,0.0,0.0,0.0,0.0,0.0,0.0,0.0,0.0,0.0,0.0,0.0,0.0,0.0,0.0,0.0,0.0,0.0,0.0,0.0,0.0,0.0,0.0,0.0,0.0,0.0,0.0,0.0,0.0,0.0,0.0,0.0,0.0,0.0,0.0,0.0,0.0,0.0,0.0,0.0,0.0,0.0,0.0,0.0,0.0,0.0,0.0,0.0,0.0,0.0,0.0,0.0,0.0,0.0,0.0,0.0,0.0,0.0,0.0,0.0,0.0,0.0,0.0,0.0,0.0,0.0,0.0,0.0,0.0,0.0,0.0,0.0,0.0,0.0,0.0,0.0,0.0,0.0,0.0,0.0,0.0,0.0,0.0,0.0,0.0,0.0,0.0,0.0,0.0,0.0,0.0,0.0,0.0,0.0,0.0,0.0,0.0,0.0,0.0,0.0,0.0,0.0,0.0,0.0,0.0,0.0,0.0,0.0,0.0,0.0,0.0,0.0,0.0,0.0,0.0,0.0,0.0,0.0,0.0,0.0,0.0,0.0,0.0,0.0,0.0,0.0,0.0,0.0,0.0,0.0,0.0,0.0,0.0,0.0,0.0,0.0,0.0,0.0,0.0,0.0,0.0,0.0,0.0,0.0,0.0,0.0,0.0,0.0,0.0,0.0,0.0,0.0,0.0,0.0,0.0,0.0,0.0,0.0,0.0,0.0,0.0,0.0,0.0,0.0,0.0,0.0,0.0,0.0,0.0,0.0,0.0,0.0,0.0,0.0,0.0,0.0,0.0,0.0,0.0,0.0,0.0,0.0,0.0,0.0,0.0,0.0,0.0,0.0,0.0,0.0,0.0,0.0,0.0,0.0,0.0,0.0,0.0,0.0,0.0,0.0,0.0,0.0,0.0,0.0,0.0,0.0,0.0,0.0,0.0,0.0,0.0,0.0,0.0,0.0,0.0,0.0,0.0,0.0,0.0,0.0,0.0,0.0,0.0,0.0,0.0,0.0,0.0,0.0,0.0,0.0,0.0,0.0,0.0,0.0,0.0,0.0,0.0,0.0,0.0,0.0,0.0,0.0,0.0,0.0,0.0,0.0,0.0,0.0,0.0,0.0,0.0,0.0,0.0,0.0,0.0,0.0,0.0,0.0,0.0,0.0,0.0,0.0,0.0,0.0,0.0,0.0,0.0,0.0,0.0,0.0,0.0,0.0,0.0,0.0,0.0,0.0,0.0,0.0,0.0,0.0,0.0,0.0,0.0,0.0,0.0,0.0,0.0,0.0,0.0,0.0,0.0,0.0,0.0,0.0,0.0,0.0,0.0,0.0,0.0,0.0,0.0,0.0,0.0,0.0,0.0,0.0,0.0,0.0,0.0,0.0,0.0,0.0,0.0,0.0,0.0,0.0,0.0,0.0,0.0,0.0,0.0,0.0,0.0,0.0,0.0,0.0,0.0,0.0,0.0,0.0,0.0,0.0,0.0,0.0,0.0,0.0,0.0,0.0,0.0,0.0,0.0,0.0,0.0,0.0,0.0,0.0,0.0,0.0,0.0,0.0,0.0,0.0,0.0,0.0,0.0,0.0,0.0,0.0,0.0,0.0,0.0,0.0,0.0,0.0,0.0,0.0,0.0,0.0,0.0,0.0,0.0,0.0,0.0,0.0,0.0,0.0,0.0,0.0,0.0,0.0,0.0,0.0,0.0,0.0,0.0,0.0,0.0,0.0,0.0,0.0,0.0,0.0,0.0,0.0,0.0,0.0,0.0,0.0,0.0,0.0,0.0,0.0,0.0,0.0,0.0,0.0,0.0,0.0,0.0,0.0,0.0,0.0,0.0,0.0,0.0,0.0,0.0,0.0,0.0,0.0,0.0,0.0,0.0,0.0,0.0,0.0,0.0,0.0,0.0,0.0,0.0,0.0,0.0,0.0,0.0,0.0,0.0,0.0,0.0,0.0,0.0,0.0,0.0,0.0,0.0,0.0,0.0,0.0,0.0,0.0,0.0,0.0,0.0,0.0,0.0,0.0,0.0,0.0,0.0,0.0,0.0,0.0,0.0,0.0,0.0,0.0,0.0,0.0,0.0,0.0,0.0,0.0,0.0,0.0,0.0,0.0,0.0,0.0,0.0,0.0,0.0,0.0,0.0,0.0,0.0,0.0,0.0,0.0,0.0,0.0,0.0,0.0,0.0,0.0,0.0,0.0,0.0,0.0,0.0,0.0,0.0,0.0,0.0,0.0,0.0,0.0,0.0,0.0,0.0,0.0,0.0,0.0,0.0,0.0,0.0,0.0,0.0,0.0,0.0,0.0,0.0,0.0,0.0,0.0,0.0,0.0,0.0,0.0,0.0,0.0,0.0,0.0,0.0,0.0,0.0,0.0,0.0,0.0,0.0,0.0,0.0,0.0,0.0,0.0,0.0,0.0,0.0,0.0,0.0,0.0,0.0,0.0,0.0,0.0,0.0,0.0,0.0,0.0,0.0,0.0,0.0,0.0,0.0,0.0,0.0,0.0,0.0,0.0,0.0,0.0,0.0,0.0,0.0,0.0,0.0,0.0,0.0,0.0,0.0,0.0,0.0,0.0,0.0,0.0,0.0,0.0,0.0,0.0,0.0,0.0,0.0,0.0,0.0,0.0,0.0,0.0,0.0,0.0,0.0,0.0,0.0,0.0,0.0,0.0,0.0,0.0,0.0,0.0,0.0,0.0,0.0,0.0,0.0,0.0,0.0,0.0,0.0,0.0,0.0,0.0,0.0,0.0,0.0,0.0,0.0,0.0,0.0,0.0,0.0,0.0,0.0,0.0,0.0,0.0,0.0,0.0,0.0,0.0,0.0,0.0,0.0,0.0,0.0,0.0,0.0,0.0,0.0,0.0,0.0,0.0,0.0,0.0,0.0,0.0,0.0,0.0,0.0,0.0,0.0,0.0,0.0,0.0,0.0,0.0,0.0,0.0,0.0,0.0,0.0,0.0,0.0,0.0,0.0,0.0,0.0,0.0,0.0,0.0,0.0,0.0,0.0,0.0,2.2236,2.2236,0.0,0.0,0.0,0.0,0.0,0.0,0.0,0.0,0.0,0.0,0.0,0.0,0.0,0.0,0.0,0.0,0.0,0.0,0.0,0.0,0.0,0.0,0.0,0.0,0.0,0.0,0.0,0.0,0.0,0.0,0.0,0.0,0.0,0.0,0.0,0.0,0.0,0.0,2.9033,2.9054,2.9067,2.859,2.7995,2.727,0.0,0.0,0.0,0.0,0.0,0.0,0.0,0.0,0.0,0.0,0.0,0.0,0.0,0.0,0.0,0.0,0.0,0.0,0.0,0.0,0.0,0.0,0.0,0.0,0.0,0.0,0.0,0.0,0.0,0.0,0.0,0.0,0.0,0.0,0.0,0.0,0.0,0.0,0.0,0.0,0.0,0.0,0.0,0.0,0.0,0.0,0.0,0.0,0.0,0.0,0.0,0.0,0.0,0.0,0.0,0.0,0.0,0.0,0.0,0.0,0.0,0.0,0.0,0.0,0.0,0.0,0.0,0.0,0.0,0.0,2.2695,2.251,0.0,0.0,0.0,0.0,0.0,0.0,0.0,0.0,0.0,0.0,0.0,0.0,0.0,0.0,0.0,0.0,0.0,0.0,0.0,0.0,0.0,0.0,0.0,2.6596,2.7002,2.7101,2.8201,2.8899,0.0,0.0,0.0,0.0,0.0,0.0,0.0,2.9553,2.9792,2.9792,2.9853,2.9761,2.9568,2.9273,2.8861,2.8352,2.7524,0.0,0.0,0.0,0.0,0.0,0.0,0.0,0.0,0.0,0.0,0.0,0.0,0.0,0.0,0.0,0.0,0.0,0.0,0.0,0.0,0.0,0.0,0.0,0.0,0.0,0.0,0.0,0.0,0.0,0.0,0.0,0.0,0.0,0.0,0.0,0.0,0.0,0.0,0.0,0.0,0.0,0.0,0.0,0.0,0.0,0.0,0.0,0.0,0.0,0.0,0.0,0.0,0.0,0.0,0.0,0.0,0.0,0.0,0.0,0.0,0.0,0.0,0.0,2.2881,2.3027,2.3325,2.3393,2.3672,2.3975,2.3271,2.291,2.2842,2.2764,0.0,0.0,0.0,0.0,0.0,0.0,0.0,0.0,0.0,0.0,0.0,0.0,0.0,0.0,0.0,0.0,0.0,0.0,0.0,0.0,0.0,2.7477,2.8111,2.8562,2.9264,2.964,2.964,0.0,0.0,0.0,0.0,0.0,2.9679,2.9754,2.9792,2.9792,3.0099,3.0204,3.0204,3.0433,3.0728,3.1006,2.9145,2.8306,2.8306,0.0,0.0,0.0,0.0,0.0,0.0,0.0,0.0,0.0,0.0,0.0,0.0,0.0,0.0,0.0,0.0,0.0,0.0,0.0,0.0,0.0,0.0,0.0,0.0,0.0,0.0,0.0,0.0,0.0,0.0,0.0,0.0,0.0,0.0,0.0,0.0,0.0,0.0,0.0,0.0,0.0,2.302,2.2627,0.0,0.0,0.0,0.0,0.0,0.0,0.0,0.0,0.0,0.0,0.0,0.0,0.0,2.3315,2.416,2.375,2.3945,2.4773,2.4346,2.4199,2.4258,2.4639,2.4891,2.494,2.4822,0.0,2.4141,2.3769,0.0,0.0,0.0,0.0,0.0,0.0,0.0,0.0,0.0,0.0,0.0,0.0,0.0,0.0,0.0,0.0,0.0,0.0,0.0,0.0,0.0,2.8487,2.9013,2.89,3.0005,3.0432,2.9829,3.008,0.0,0.0,0.0,2.9792,2.9792,2.9792,3.0093,3.0696,3.0841,3.1238,3.1864,3.1903,3.2054,3.2209,3.107,3.0204,2.9581,2.9157,0.0,0.0,0.0,0.0,0.0,0.0,0.0,0.0,0.0,0.0,0.0,0.0,0.0,0.0,0.0,0.0,0.0,0.0,0.0,0.0,0.0,0.0,0.0,0.0,0.0,0.0,0.0,0.0,0.0,0.0,0.0,0.0,0.0,0.0,0.0,0.0,0.0,0.0,0.0,2.275,2.3262,2.3545,2.3711,2.3574,0.0,0.0,0.0,0.0,0.0,0.0,0.0,0.0,0.0,2.3506,2.3975,2.4404,2.4775,2.4853,2.5078,2.5439,2.5254,2.5109,2.5118,2.5361,2.5576,2.5801,2.5547,2.5332,2.506,2.4424,2.375,2.3081,0.0,0.0,0.0,0.0,2.2031,2.2236,0.0,0.0,0.0,0.0,0.0,0.0,0.0,0.0,0.0,0.0,0.0,0.0,2.831,2.9327,2.9779,2.9202,3.0407,3.0796,2.9854,3.0181,3.0218,2.9817,2.9792,2.9792,2.9792,3.0068,3.0538,3.1174,3.1901,3.2614,3.3288,3.3594,3.3655,3.3465,3.3216,3.2189,3.0645,2.9849,2.9196,2.8667,0.0,0.0,0.0,0.0,0.0,0.0,0.0,0.0,0.0,0.0,0.0,0.0,0.0,0.0,0.0,0.0,0.0,0.0,0.0,0.0,0.0,0.0,0.0,0.0,0.0,0.0,0.0,0.0,0.0,0.0,0.0,0.0,0.0,0.0,0.0,0.0,0.0,2.3188,2.35,2.418,2.3975,2.375,0.0,0.0,0.0,0.0,0.0,0.0,2.3623,2.3935,2.417,2.4287,2.4902,2.5342,2.5566,2.5996,2.6172,2.623,2.627,2.6261,2.6163,2.6271,2.6556,2.6891,2.6516,2.6261,2.6026,2.499,2.4141,2.3413,2.3448,2.3212,2.2889,2.266,2.2739,2.3034,0.0,0.0,0.0,0.0,0.0,0.0,0.0,0.0,0.0,0.0,0.0,2.885,2.885,2.9866,3.0357,2.9792,3.0306,3.0407,2.9829,2.9817,2.9829,2.9792,2.9792,2.9792,2.9792,3.0796,3.1079,3.0568,3.3229,3.4267,3.3814,3.5449,3.5934,3.5364,3.5693,3.4111,3.1193,3.0405,2.9737,2.9208,2.8691,0.0,0.0,0.0,0.0,0.0,0.0,0.0,0.0,0.0,0.0,0.0,0.0,0.0,0.0,0.0,0.0,0.0,0.0,0.0,0.0,0.0,0.0,0.0,0.0,0.0,0.0,0.0,0.0,0.0,0.0,0.0,0.0,0.0,0.0,0.0,0.0,0.0,0.0,2.3818,2.3799,0.0,0.0,0.0,0.0,2.3721,2.375,2.4111,2.4979,2.5037,2.5195,2.5577,2.5635,2.6094,2.6914,2.7238,2.7465,2.762,2.786,2.7736,2.734,2.7766,2.8129,2.8366,2.8078,2.7716,2.718,2.5701,2.4766,2.4316,2.4132,2.4044,2.4024,2.4281,2.438,2.446,0.0,0.0,0.0,0.0,0.0,0.0,0.0,0.0,2.7808,2.7808,2.8787,2.9754,3.0432,3.1185,3.1562,3.1373,3.1863,3.1662,3.0407,3.0319,3.0168,2.9817,2.9792,3.0118,3.0796,3.1537,3.2504,3.3707,3.5119,3.6043,3.6504,3.6816,3.6793,3.6553,3.6179,3.5397,3.4209,3.2576,3.1174,3.001,2.9313,2.8823,0.0,0.0,0.0,0.0,0.0,0.0,0.0,0.0,0.0,0.0,0.0,0.0,0.0,0.0,0.0,0.0,0.0,0.0,0.0,0.0,0.0,0.0,0.0,0.0,0.0,0.0,0.0,0.0,0.0,0.0,0.0,0.0,0.0,0.0,0.0,0.0,0.0,2.4199,2.4697,0.0,2.4777,2.4767,2.4826,2.5029,2.5039,2.5176,2.5478,2.5762,2.6084,2.6379,2.6921,2.7406,2.7722,2.8548,2.8907,2.8789,2.9056,2.9083,2.8933,2.9093,2.928,2.9333,2.9226,2.8976,2.8505,2.7652,2.6329,2.4795,2.4447,2.4418,2.4564,2.4655,2.4801,2.4967,0.0,0.0,0.0,0.0,0.0,0.0,0.0,0.0,2.8109,2.8109,2.9252,3.0407,3.1298,3.2051,3.2428,3.2227,3.2566,3.2164,3.0708,3.0444,3.005,2.939,2.9551,3.0191,3.1373,3.2491,3.3639,3.4913,3.6268,3.7092,3.7431,3.7479,3.7255,3.6887,3.6747,3.6377,3.5768,3.4375,3.2828,3.1205,3.0054,2.908,2.8336,0.0,0.0,0.0,0.0,0.0,0.0,0.0,0.0,0.0,0.0,0.0,0.0,0.0,0.0,0.0,0.0,0.0,0.0,0.0,0.0,0.0,0.0,0.0,0.0,0.0,0.0,0.0,0.0,0.0,0.0,0.0,0.0,0.0,0.0,2.4189,2.4746,2.5049,2.5674,2.6113,2.5977,2.5957,2.5957,2.5957,2.5996,2.6222,2.6516,2.6902,2.723,2.7561,2.8279,2.8727,2.893,2.993,3.0238,2.9963,3.0248,3.0332,3.018,3.018,3.0164,3.0076,2.9958,2.9705,2.927,2.8721,2.7632,2.622,2.5674,2.5587,2.5718,2.5661,2.576,2.5879,0.0,0.0,0.0,0.0,0.0,0.0,0.0,2.7758,2.8109,2.8134,2.9566,3.0809,3.1386,3.2403,3.283,3.2315,3.2227,3.1763,3.0683,3.0093,2.9429,2.8605,2.9072,3.0049,3.1474,3.3633,3.4453,3.3899,3.6652,3.7406,3.6285,3.7456,3.7394,3.6362,3.7494,3.7097,3.5569,3.5624,3.4605,3.2869,3.0881,2.9283,2.8117,0.0,0.0,0.0,0.0,0.0,0.0,0.0,0.0,0.0,0.0,0.0,0.0,0.0,0.0,0.0,0.0,0.0,0.0,0.0,0.0,0.0,0.0,0.0,0.0,0.0,0.0,0.0,0.0,0.0,0.0,0.0,0.0,0.0,2.4434,2.4834,2.5497,2.6328,2.6797,2.6894,2.6484,2.6445,2.6445,2.6445,2.6744,2.7251,2.8085,2.8415,2.8709,2.9122,2.9554,2.9997,3.0505,3.1218,3.1442,3.1124,3.1462,3.1395,3.0911,3.0911,3.085,3.0719,3.0355,3.0003,2.9637,2.8855,2.857,2.8489,2.7871,2.7603,2.76,2.741,2.734,2.7268,0.0,0.0,0.0,0.0,0.0,0.0,0.0,2.8009,2.8247,2.8612,2.9465,3.0683,3.2428,3.2516,3.2717,3.337,3.2692,3.1763,3.0683,3.0093,2.9889,3.0027,3.0549,3.1738,3.3771,3.4756,3.5392,3.5701,3.7221,3.7215,3.5748,3.7303,3.7394,3.6362,3.7494,3.7717,3.7283,3.6737,3.6205,3.5456,3.1691,2.9918,2.9421,0.0,0.0,0.0,0.0,0.0,0.0,0.0,0.0,0.0,0.0,0.0,0.0,0.0,0.0,0.0,0.0,0.0,0.0,0.0,0.0,0.0,0.0,0.0,0.0,0.0,0.0,0.0,0.0,0.0,0.0,0.0,2.4473,2.4531,2.4844,2.581,2.6689,2.7246,2.7685,2.79,2.7783,2.7773,2.7878,2.8045,2.847,2.8714,2.8846,2.9209,2.9449,2.9459,2.957,2.9845,3.0292,3.1035,3.1491,3.1462,3.1753,3.1803,3.168,3.168,3.1663,3.1595,3.1264,3.1179,3.1271,3.0052,2.9795,2.9917,2.8432,2.7883,2.8052,2.7979,2.7772,2.7585,0.0,0.0,0.0,0.0,0.0,0.0,0.0,2.7959,2.8298,2.8813,2.9428,3.0444,3.2177,3.2064,3.2227,3.3119,3.2378,3.1512,3.067,2.9978,3.0,3.0922,3.1344,3.2333,3.4003,3.5235,3.5922,3.6076,3.7382,3.7492,3.6578,3.753,3.7643,3.7031,3.7705,3.8002,3.794,3.7356,3.7183,3.6862,3.3304,3.1239,3.0219,2.9685,2.8422,2.6904,2.7259,2.6772,2.5975,2.6011,0.0,0.0,0.0,0.0,0.0,0.0,0.0,0.0,0.0,0.0,0.0,0.0,0.0,0.0,0.0,0.0,0.0,0.0,0.0,0.0,0.0,0.0,0.0,0.0,2.5195,2.5761,2.6527,2.7172,2.7715,2.8135,2.8839,2.9119,2.8765,2.8888,2.8916,2.8897,2.9266,2.9457,2.93,2.965,2.9839,2.9784,3.0144,3.0473,3.073,3.1554,3.1962,3.204,3.221,3.2277,3.2277,3.2277,3.2163,3.1977,3.1764,3.1702,3.1692,3.0698,3.0439,3.0584,0.0,0.0,0.0,0.0,2.8407,2.8058,0.0,0.0,0.0,0.0,0.0,0.0,0.0,2.7795,2.8335,2.8913,2.9478,3.0206,3.1273,3.1336,3.1524,3.2077,3.1625,3.1085,3.0557,2.9901,3.0114,3.142,3.1792,3.2445,3.3472,3.5318,3.6121,3.5703,3.732,3.7979,3.7829,3.8154,3.8204,3.7992,3.8279,3.8316,3.8203,3.7942,3.7829,3.7643,3.5585,3.3243,3.106,3.1664,2.9773,2.6913,2.7719,2.6617,2.4812,2.4854,0.0,0.0,0.0,0.0,0.0,0.0,0.0,0.0,0.0,0.0,0.0,0.0,0.0,0.0,0.0,0.0,0.0,0.0,0.0,0.0,0.0,0.0,0.0,0.0,2.6163,2.7629,2.8903,2.8775,2.876,2.9133,2.9938,3.0224,2.9515,2.9643,2.9615,2.9215,2.954,2.9719,2.9669,2.9931,0.0,0.0,0.0,3.1247,3.1298,3.2147,3.2602,3.2597,3.2649,3.2669,3.2669,3.2669,3.2452,3.206,3.2008,3.1847,3.1485,3.0977,3.076,3.0708,3.0191,2.9994,2.9942,2.9539,2.9094,2.87,0.0,0.0,0.0,0.0,0.0,0.0,0.0,2.8034,2.8473,2.949,2.9729,3.0206,3.1273,3.1022,3.0972,3.1499,3.1072,3.0532,2.9993,3.0626,3.131,3.2026,3.2584,3.3752,3.5712,3.5733,3.5926,3.6257,3.7902,3.8015,3.6702,3.8939,3.9253,3.8,3.9854,4.0199,3.9371,3.9307,3.9307,3.9206,3.8328,3.6419,3.3906,3.2344,3.0799,2.9482,2.9661,2.8722,2.7411,2.7429,2.7403,2.7255,2.6982,2.6628,0.0,0.0,0.0,0.0,0.0,0.0,0.0,0.0,0.0,0.0,0.0,0.0,0.0,0.0,0.0,0.0,0.0,0.0,0.0,2.7667,2.8109,2.8753,3.0399,3.062,3.0604,3.0684,3.0279,2.9878,2.9717,2.9752,2.9722,2.9542,3.0217,3.0427,2.9931,3.0346,3.0377,3.0005,3.017,3.0439,3.0822,3.1371,3.1816,3.2122,3.2494,0.0,3.2669,3.2669,3.2628,3.2514,3.2142,3.2153,3.2406,3.1588,3.1247,3.1153,3.0325,2.9994,2.9984,2.9891,2.957,2.9228,0.0,0.0,0.0,0.0,0.0,0.0,0.0,2.8262,2.8825,2.9679,2.9792,2.9993,3.0532,3.0357,3.0306,3.057,3.0344,3.0206,3.0206,3.1486,3.2604,3.3432,3.4264,3.5002,3.5521,3.6112,3.6387,3.6338,3.8327,3.9154,3.8839,4.0232,4.0445,3.9652,4.081,4.0974,4.0513,4.0513,4.0513,4.0463,3.9923,3.8767,3.7084,3.5003,3.3042,3.1423,3.1717,3.0939,2.9745,2.9293,2.8953,2.8538,2.7452,2.6651,2.591,0.0,0.0,0.0,0.0,0.0,0.0,0.0,0.0,0.0,0.0,0.0,0.0,0.0,0.0,2.5008,2.5789,0.0,2.7292,2.8773,2.928,3.0001,3.1491,3.1491,3.1202,3.0822,3.0767,3.0599,3.0366,3.0316,3.021,3.0134,3.0319,3.0311,3.0015,3.0212,3.0232,3.0005,3.0222,3.045,3.0688,3.1143,3.1598,3.1988,3.2215,3.2452,3.2669,3.2669,3.2669,3.2659,3.2432,3.2463,3.2675,3.1992,3.1578,3.1309,3.0615,3.0336,3.0315,3.0087,2.9849,2.9684,0.0,0.0,0.0,0.0,0.0,0.0,0.0,2.845,2.905,2.9626,2.9753,2.9792,2.9792,2.9792,2.9792,2.9792,2.9792,3.0068,3.0721,3.2215,3.3571,3.4675,3.5581,3.5819,3.5179,3.638,3.6955,3.6789,3.8964,4.0413,4.1125,4.1451,4.1489,4.13,4.1514,4.1539,4.1492,4.1492,4.1492,4.1455,4.0902,4.0275,3.9531,3.7874,3.5579,3.3157,3.3246,3.2369,3.1029,3.0264,2.9527,2.8697,2.7122,2.6123,2.5487,2.4793,2.3994,0.0,0.0,0.0,0.0,0.0,0.0,0.0,0.0,2.4492,2.5019,2.5869,2.6094,2.6487,2.763,2.8231,2.8795,2.9561,3.0372,3.1263,3.2213,3.2127,3.1636,3.0883,3.1223,3.1451,3.1164,3.0962,3.0822,3.0822,3.047,3.0222,3.0129,3.0129,3.0129,3.0129,3.0491,3.0688,3.0688,3.1143,3.1557,3.1919,3.2039,3.2308,3.2669,3.2669,3.2669,3.2669,3.2669,3.2669,3.2638,3.2277,3.1961,3.1588,3.104,3.0822,3.076,3.0201,2.9994,2.9994,0.0,0.0,0.0,0.0,0.0,0.0,0.0,0.0,2.8848,2.9356,2.965,2.9792,2.9792,2.9792,2.9792,2.9792,2.9792,3.0218,3.1235,3.2416,3.3571,3.4675,3.4899,3.56,3.6909,3.6613,3.7162,3.8639,4.032,4.0912,4.0639,4.2108,4.2271,4.1326,4.2359,4.2522,4.2125,4.2125,4.2125,4.2074,4.1467,4.0626,3.9685,3.9454,3.7585,3.4892,3.3457,3.1572,2.9786,2.9691,2.8957,2.806,2.7459,2.7334,2.7112,2.5699,2.4788,2.4157,2.3624,2.3276,2.3188,2.3623,2.3994,2.4492,0.0,2.5859,2.6398,2.7121,2.7578,2.8097,2.8858,2.9576,3.0306,3.1207,3.1948,3.2499,3.2659,3.2959,3.2855,3.1952,3.1605,3.1523,3.1874,3.1557,3.1298,3.1298,3.1247,3.104,3.0626,3.0605,3.0605,3.0605,3.0657,3.0688,3.0688,3.1143,3.1402,3.1464,3.2271,3.2628,3.2669,3.2669,3.2669,3.2669,3.2669,3.2669,3.2727,3.2618,3.2623,3.2499,3.1629,3.1298,3.1195,3.0315,2.9994,2.9994,0.0,0.0,0.0,0.0,0.0,0.0,0.0,0.0,0.0,2.9355,2.9509,2.9611,2.9792,2.949,2.9428,2.9767,2.9478,2.988,3.1298,3.3056,3.4525,3.5629,3.6649,3.7293,3.7619,3.7761,3.8194,3.8834,4.0184,4.1065,4.148,4.1856,4.212,4.2296,4.2434,4.2602,4.269,4.269,4.2502,4.2187,4.1907,4.0912,3.9426,3.8868,3.6673,3.4005,3.4509,3.3161,0.0,3.0332,2.9555,2.8724,2.756,2.6812,2.6251,2.5607,2.4762,2.3959,2.3602,2.3782,2.4116,2.4157,2.4761,2.564,2.6527,2.7221,2.796,2.9003,2.9407,2.9802,3.0837,3.1009,3.142,3.2493,3.2653,3.2913,3.3441,3.2985,3.2561,3.2401,3.1816,3.1454,3.164,3.1236,3.0977,3.0977,3.0977,3.0895,3.0698,3.0946,3.0967,3.0698,3.0688,3.0688,3.0688,3.0605,3.0977,3.1764,3.1888,3.2219,3.2669,3.2669,3.2669,3.2669,3.2669,3.2669,3.2669,3.2669,3.2514,3.2235,3.1909,3.1443,3.0895,3.0243,2.9994,2.9994,0.0,0.0,0.0,0.0,0.0,0.0,0.0,0.0,0.0,0.0,2.9263,2.9392,2.965,2.9377,2.934,2.9754,2.9415,2.9804,3.1286,3.3043,3.4663,3.6069,3.745,3.8215,3.8193,3.8637,3.8949,3.9062,4.0044,4.0799,4.1413,4.1272,4.1518,4.2075,4.1813,4.2013,4.2525,4.2363,4.2063,4.1701,4.1701,4.0607,3.8854,3.7786,3.5451,3.2895,3.4135,3.293,3.0615,2.9642,2.9053,2.8446,2.7162,2.6339,2.5829,2.5508,2.4641,2.3834,2.4082,2.4506,2.4951,2.5441,2.617,2.7083,2.8271,2.8823,2.9457,3.0771,3.0822,3.0964,3.1942,3.181,3.1871,3.2824,3.2851,3.2913,3.343,3.2871,3.2344,3.2188,3.1702,3.1329,3.1205,3.0998,3.0874,3.0874,3.0874,3.0822,3.0698,3.1236,3.135,3.0895,3.0998,3.0998,3.0874,3.0543,3.0874,3.1857,3.165,3.1971,3.2669,3.2669,3.2669,3.2669,3.2669,3.2669,3.2669,3.2669,3.2483,3.2163,3.2039,3.1567,3.0822,3.0356,3.0098,2.9994,0.0,0.0,0.0,0.0,0.0,0.0,0.0,0.0,0.0,0.0,0.0,0.0,0.0,2.9638,2.9779,2.9792,2.9779,3.0231,3.1323,3.1951,3.3226,3.542,3.6132,3.7211,3.8805,3.8881,3.9145,3.9658,4.0249,4.0105,3.9409,4.0454,4.0529,3.9828,4.0308,4.0838,4.1342,4.0788,4.0597,4.0518,4.0518,3.9599,3.7993,3.6603,3.4504,3.2184,3.1373,2.9203,2.6791,2.6723,2.6491,2.6211,2.6231,2.662,2.684,2.5813,2.4678,2.4078,2.5486,2.5361,2.5468,2.7885,2.8449,2.888,3.0696,3.0827,3.0983,3.222,3.1707,3.116,3.1528,3.1515,3.1547,3.1946,3.239,3.2525,3.2101,3.282,3.2696,3.0957,3.1122,3.1205,3.075,3.1102,3.136,3.136,3.136,3.1153,3.0708,3.1536,3.1816,3.1371,3.1774,3.1795,3.136,3.134,3.136,3.1402,3.1826,3.2215,3.2669,3.2669,3.2669,3.2669,3.2669,3.2669,3.2669,3.2669,3.2669,3.2607,3.2163,3.1764,3.1298,3.0833,3.0377,2.9994,0.0,0.0,0.0,0.0,0.0,0.0,0.0,0.0,0.0,0.0,0.0,0.0,0.0,0.0,0.0,0.0,2.9351,2.9691,3.0809,3.156,3.2516,3.3651,3.5121,3.6203,3.6762,3.7481,3.7953,3.8126,3.8646,3.8941,3.905,3.9368,3.9783,4.0235,4.0075,4.0296,4.0776,4.0579,4.0087,3.9373,3.8647,3.7329,3.5587,3.4588,3.2596,3.0277,0.0,2.7932,2.61,2.5918,2.5422,2.4886,2.5002,2.5103,2.5112,2.491,2.5242,2.5706,2.6017,2.7031,2.8208,2.8923,2.9677,3.0495,3.1516,3.1556,3.1599,3.22,3.1066,3.0048,3.0062,3.0045,3.0149,3.0605,3.1578,3.2163,3.2008,3.2043,3.1712,3.0791,3.1091,3.1195,3.0729,3.0822,3.0915,3.0915,3.1474,3.1619,3.1174,3.2002,3.2235,3.1826,3.1681,3.1526,3.1381,3.077,3.0915,3.1826,3.2225,3.2525,3.2669,3.2669,3.2669,3.2669,3.2669,3.2669,3.2669,3.2669,3.2494,3.2225,3.238,3.1847,3.0936,3.1091,3.0657,2.9994,0.0,0.0,0.0,0.0,0.0,0.0,0.0,0.0,0.0,0.0,0.0,0.0,0.0,0.0,0.0,0.0,0.0,2.9297,3.0019,3.0782,3.1583,3.2327,3.374,3.4718,3.5112,3.5803,3.6172,3.6172,3.6493,3.6788,3.7045,3.7008,3.7337,3.7934,3.7748,3.7968,3.8432,3.8249,3.7761,3.7065,3.6235,3.4726,3.2917,3.219,3.0671,0.0,2.7924,2.6856,2.5692,2.5296,2.4967,2.4742,2.4577,2.4431,2.4428,2.5075,2.575,2.6535,2.7574,2.8665,2.9742,3.0534,3.1171,3.173,3.2285,3.2116,3.184,3.1586,3.0255,2.8939,2.847,2.8392,2.8535,2.9156,3.0139,3.0882,3.1267,3.135,3.1143,3.0522,3.0998,3.1195,3.0729,3.0833,3.0864,3.0698,3.1526,3.1774,3.1164,3.2147,3.2463,3.1998,3.1764,3.1536,3.1381,3.0626,3.077,3.1805,3.2437,3.2669,3.2669,3.2669,3.2669,3.2669,3.2669,3.2669,3.2669,3.2669,3.2494,3.2256,3.2556,3.2095,3.1184,3.1329,3.0895,3.0222,0.0,0.0,0.0,0.0,0.0,0.0,0.0,0.0,0.0,0.0,0.0,0.0,0.0,0.0,0.0,0.0,0.0,0.0,2.9091,2.9635,3.0372,3.141,3.2001,3.2801,3.3859,3.3933,3.3958,3.3958,3.3995,3.3903,3.3628,3.3652,3.3538,3.3308,3.3789,3.4234,3.4667,3.4162,3.3934,3.3874,3.338,3.2035,3.0246,2.9669,2.8737,2.7653,2.6643,2.5946,2.5454,2.4786,2.5073,2.5622,2.4806,2.458,2.4859,2.6216,2.6366,2.6726,2.9977,3.0228,3.0167,3.2553,3.2803,3.2592,3.3035,3.2495,3.163,3.0539,2.9219,2.7894,2.6855,2.6588,2.6817,2.7676,2.8349,2.9052,2.9911,3.0801,3.104,3.0139,3.0833,3.1205,3.076,3.1143,3.1236,3.0791,3.1567,3.1636,3.0801,3.2012,3.2473,3.2039,3.1977,3.1805,3.1381,3.0946,3.0946,3.1391,3.2302,3.2669,3.2669,3.2669,3.2669,3.2669,3.2669,3.2669,3.2669,3.2669,3.2669,3.2669,3.2669,3.238,3.1895,3.1536,3.1071,3.0584,0.0,0.0,0.0,0.0,0.0,0.0,0.0,0.0,0.0,0.0,0.0,0.0,0.0,0.0,0.0,0.0,0.0,0.0,2.9091,2.9096,2.9212,2.952,3.0269,3.0828,3.1106,3.1893,3.2293,3.2293,3.2717,3.2877,3.2786,3.323,3.3377,3.3296,3.3428,3.3549,3.3669,3.3537,3.326,3.2803,3.1865,3.0953,3.0065,2.9106,2.8245,2.7548,2.7265,2.6764,2.6121,2.5316,2.5048,2.5142,2.5283,2.5657,2.6185,2.6926,2.8049,2.9296,3.0153,3.1442,3.2717,3.3437,3.3447,3.3354,3.3568,3.2172,3.0625,2.99,2.757,2.5493,2.4748,2.5416,2.6123,2.6361,2.8804,3.0636,3.0522,3.1008,3.1164,3.0584,3.1029,3.1329,3.1215,3.1609,3.1826,3.1702,3.2173,3.2246,3.1723,3.2297,3.2675,3.2504,3.1899,3.1495,3.1381,3.1257,3.1257,3.1391,3.2302,3.2669,3.2669,3.2669,3.2669,3.2669,3.2669,3.2669,3.2669,3.2669,3.2669,3.2669,3.2669,3.224,3.1536,3.1422,3.0864,3.0149,0.0,0.0,0.0,0.0,0.0,0.0,0.0,0.0,0.0,0.0,0.0,0.0,0.0,0.0,0.0,0.0,0.0,0.0,0.0,2.8736,2.8657,2.8657,2.9157,2.94,2.94,2.9977,3.0278,3.0278,3.0603,3.0747,3.0759,3.106,3.1192,3.1204,3.1432,3.1541,3.1541,3.1541,3.136,0.0,0.0,2.9445,2.8822,2.8566,2.8035,2.7406,2.7794,2.7214,2.6085,2.5499,2.5361,2.5533,2.6002,2.6773,2.7634,2.8354,2.9495,3.0693,3.1578,3.2697,3.3801,3.4254,3.3851,3.3203,3.249,3.0997,2.9353,2.7741,2.5885,2.4288,2.3691,2.4519,2.5492,2.6127,2.8245,3.0056,3.0605,3.0915,3.105,3.0998,3.1391,3.1588,3.1391,3.1774,3.1988,3.1988,3.2225,3.2256,3.1998,3.2421,3.2669,3.2669,3.1847,3.1184,3.077,3.1174,3.1381,3.1391,3.2302,3.2669,3.2669,3.2669,3.2669,3.2669,3.2669,3.2669,3.2669,3.2669,3.2669,3.2669,3.2669,3.2416,3.195,3.1743,3.1215,3.0605,0.0,0.0,0.0,0.0,0.0,0.0,0.0,0.0,0.0,0.0,0.0,0.0,0.0,0.0,0.0,0.0,0.0,0.0,0.0,0.0,2.851,2.851,2.851,2.851,2.851,2.851,2.851,2.851,2.851,2.851,2.851,2.851,2.851,2.8534,2.8991,2.9196,2.9196,2.9196,2.9196,2.916,2.8691,2.8059,2.747,0.0,2.7966,2.7267,2.7805,2.6958,2.5583,2.5441,2.5718,2.6262,2.6937,2.7877,2.891,3.0023,3.0669,3.1446,3.3276,3.386,3.4121,3.4825,3.4113,3.2682,3.0782,2.9491,2.7965,2.5289,2.4265,2.3718,2.3195,2.3888,2.4962,2.6423,2.7531,2.8825,3.0615,3.0864,3.0988,3.134,3.1774,3.1868,3.1422,3.1774,3.2008,3.207,3.2019,3.2008,3.207,3.2452,3.2675,3.2551,3.1723,3.0874,3.0005,3.0915,3.1381,3.1391,3.2302,3.2669,3.2669,3.2669,3.2669,3.2669,3.2669,3.2669,3.2669,3.2669,3.2669,3.2669,3.2669,3.2638,3.2535,3.2132,3.1754,3.1381,0.0,0.0,0.0,0.0,0.0,0.0,0.0,0.0,0.0,0.0,2.851,2.851,0.0,0.0,0.0,0.0,0.0,0.0,0.0,0.0,0.0,2.851,2.851,2.851,2.851,2.851,2.851,2.851,2.851,2.851,2.851,2.851,2.851,2.851,2.8607,2.8643,2.8643,2.8643,2.8643,2.8643,2.8546,2.8431,2.8299,2.8431,0.0,0.0,2.5673,2.4999,2.4792,2.5037,2.5503,2.6222,2.7891,2.8852,2.9542,3.0611,3.1294,3.2047,3.3407,3.4312,3.4815,3.4677,3.4085,3.3034,3.075,2.8645,2.6672,2.4903,2.3608,2.2761,2.2646,2.367,2.5109,2.6905,2.8545,3.0139,3.1543,3.175,3.1702,3.1412,3.1774,3.1868,3.1422,3.1774,3.2142,3.2525,3.2194,3.2153,3.2535,3.2685,3.2385,3.164,3.1091,3.0553,3.0005,3.0915,3.1381,3.1391,3.2302,3.2669,3.2669,3.2669,3.2669,3.2669,3.2669,3.2669,3.2669,3.2669,3.2669,3.2669,3.2669,3.2442,3.2091,3.2019,3.1754,3.1381,0.0,0.0,0.0,0.0,0.0,0.0,0.0,2.851,2.851,2.851,2.851,2.851,2.851,2.851,2.851,0.0,0.0,0.0,0.0,0.0,0.0,0.0,0.0,0.0,2.851,2.851,2.851,2.851,0.0,2.851,2.851,2.851,2.851,2.851,2.851,2.851,2.851,2.851,2.851,2.851,2.851,2.851,2.851,0.0,0.0,0.0,0.0,2.5158,2.5167,2.5129,2.5214,2.5784,2.8284,2.9643,3.0459,3.1214,3.2099,3.3054,3.4136,3.4845,3.5301,3.5161,3.373,3.173,2.9369,2.7229,2.5247,2.3464,2.2594,2.2211,2.2449,2.3422,2.4716,2.6335,2.7734,2.9135,3.075,3.1184,3.1433,3.1692,3.2126,3.2313,3.2106,3.2271,3.2432,3.2659,3.2463,3.2442,3.2659,3.2452,3.2112,3.1733,3.105,3.0584,3.0356,3.1029,3.1381,3.1391,3.2302,3.2669,3.2669,3.2669,3.2669,3.2669,3.2669,3.2669,3.2669,3.2669,3.2669,3.2669,3.2669,3.2535,3.2339,3.2339,3.2116,3.1754,0.0,0.0,0.0,0.0,0.0,0.0,0.0,2.851,2.851,2.851,2.851,2.851,2.851,2.851,2.851,0.0,0.0,0.0,0.0,0.0,0.0,0.0,0.0,0.0,0.0,0.0,0.0,2.851,2.851,0.0,0.0,0.0,0.0,0.0,2.851,2.851,2.851,2.851,2.851,0.0,0.0,2.851,0.0,0.0,0.0,0.0,0.0,2.5777,2.5689,2.5147,2.5056,2.5631,2.7984,2.9565,3.0539,3.1147,3.2256,3.3426,3.4493,3.5072,3.5344,3.5143,3.3084,3.0434,2.7752,2.5874,2.4173,2.2195,2.1807,2.1952,2.2408,2.3091,2.4084,2.5627,2.6532,2.7755,2.9839,3.046,3.1019,3.1874,3.239,3.2638,3.2535,3.2618,3.2669,3.2669,3.2669,3.2669,3.2669,3.2235,3.1946,3.1843,3.1112,3.0636,3.0543,3.1091,3.1381,3.1391,3.2302,3.2669,3.2669,3.2669,3.2669,3.2669,3.2669,3.2669,3.2669,3.2669,3.2669,3.2669,3.2669,3.2669,3.2669,3.2669,3.2442,3.2184,0.0,0.0,0.0,0.0,0.0,0.0,0.0,2.851,2.851,2.851,2.851,2.851,2.851,2.851,2.851,0.0,0.0,0.0,0.0,0.0,0.0,0.0,0.0,0.0,0.0,0.0,0.0,2.851,2.851,0.0,0.0,0.0,0.0,0.0,0.0,2.851,2.851,2.851,0.0,0.0,0.0,0.0,0.0,0.0,0.0,0.0,0.0,2.5777,2.5677,2.4786,2.5255,2.6288,2.6616,2.7454,2.8565,2.9583,3.074,3.2007,3.3537,3.4265,3.4425,3.3241,3.2147,3.0422,2.6702,2.5107,2.3947,2.2156,2.1807,2.1952,2.2408,2.2563,2.3339,2.5523,2.5993,2.7133,3.0191,3.0657,3.1019,3.1874,3.239,3.2514,3.2091,3.2432,3.2669,3.2669,3.2669,3.2669,3.2669,3.2235,3.1857,3.1454,3.0946,3.0491,3.0067,3.0936,3.1381,3.1391,3.2302,3.2669,3.2669,3.2669,3.2669,3.2669,3.2669,3.2669,3.2669,3.2669,3.2669,3.2669,3.2669,3.2669,3.2669,3.2669,3.2649,3.2618,0.0,0.0,0.0,0.0,0.0,0.0,2.851,2.851,2.851,2.851,2.851,2.851,2.851,2.851,2.851,2.851,0.0,0.0,0.0,0.0,0.0,0.0,0.0,0.0,0.0,0.0,2.851,2.851,2.851,0.0,0.0,0.0,0.0,0.0,0.0,2.851,2.851,2.851,0.0,0.0,0.0,0.0,0.0,0.0,0.0,0.0,0.0,0.0,2.6313,2.4301,2.4365,2.519,2.4911,2.5444,2.6526,2.8568,3.0147,3.156,3.3015,3.3845,3.4014,3.2972,3.1384,2.9376,2.6373,2.4937,2.3752,2.2144,2.1807,2.1859,2.2045,2.2087,2.2563,2.4022,2.4488,2.5502,2.7921,2.8918,2.988,3.1081,3.1868,3.2297,3.239,3.2566,3.2669,3.2669,3.2669,3.2669,3.2669,3.2235,3.1905,3.1785,3.1071,3.0594,3.0408,3.105,3.1381,3.1391,3.2302,3.2669,3.2669,3.2669,3.2669,3.2669,3.2669,3.2669,3.2669,3.2669,3.2669,3.2669,3.2669,3.2669,3.2669,3.2669,3.2669,3.2669,0.0,0.0,0.0,0.0,0.0,2.851,2.851,2.851,2.851,2.851,2.851,2.851,2.851,2.851,2.851,2.851,2.851,0.0,0.0,0.0,0.0,0.0,0.0,0.0,0.0,0.0,2.851,2.851,2.851,2.851,0.0,0.0,2.851,2.851,0.0,0.0,0.0,0.0,0.0,0.0,0.0,0.0,0.0,0.0,0.0,0.0,0.0,0.0,0.0,0.0,0.0,2.4744,2.396,2.4097,2.4969,2.7282,2.9076,3.0594,3.1858,3.2595,3.2968,3.2415,3.0611,2.8371,2.6338,2.484,2.3512,2.2072,2.1807,2.1807,2.1807,2.1807,2.2108,2.3039,2.3463,2.4353,2.6345,2.7521,2.8731,3.0118,3.0967,3.1671,3.2271,3.2571,3.2669,3.2669,3.2669,3.2669,3.2669,3.2235,3.1926,3.1847,3.1226,3.0822,3.0688,3.1278,3.1578,3.1588,3.2364,3.2669,3.2669,3.2669,3.2669,3.2669,3.2669,3.2669,3.2669,3.2669,3.2669,3.2669,3.2669,3.2669,3.2669,3.2669,3.2669,3.2669,0.0,0.0,0.0,0.0,0.0,0.0,2.851,2.851,2.851,2.851,2.851,2.851,2.851,2.851,2.851,2.851,2.851,0.0,0.0,0.0,0.0,0.0,0.0,0.0,0.0,0.0,2.851,2.851,2.851,2.851,2.851,2.851,2.851,2.851,0.0,0.0,0.0,0.0,0.0,0.0,0.0,0.0,0.0,0.0,0.0,0.0,0.0,0.0,0.0,0.0,0.0,0.0,0.0,2.3634,2.4075,2.5513,2.7217,2.8773,2.9509,3.0327,3.0967,3.1238,2.9644,2.7678,2.6493,2.4785,2.3186,2.2059,2.1807,2.1807,2.1807,2.1807,2.2108,2.3039,2.3194,2.3981,2.6293,2.7019,2.7828,2.9156,2.9735,3.0377,3.1298,3.2199,3.2669,3.2669,3.2669,3.2669,3.2669,3.2235,3.1836,3.1391,3.1381,3.1153,3.0688,3.1588,3.1977,3.1988,3.2452,3.2669,3.2669,3.2669,3.2669,3.2669,3.2669,3.2669,3.2669,3.2669,3.2669,3.2669,3.2669,3.2669,3.2669,3.2669,3.2669,3.2669,0.0,0.0,0.0,0.0,0.0,0.0,0.0,2.851,2.851,2.851,2.851,2.851,2.851,2.851,2.851,2.851,2.851,0.0,0.0,0.0,0.0,0.0,0.0,0.0,0.0,0.0,2.851,2.851,2.851,2.851,2.851,2.851,2.851,2.851,2.851,2.851,0.0,0.0,0.0,0.0,0.0,0.0,2.851,0.0,0.0,0.0,0.0,0.0,0.0,0.0,0.0,0.0,0.0,0.0,0.0,2.4707,2.6094,2.7492,2.8154,2.8727,2.9088,2.8897,2.7994,2.6754,2.5147,2.4241,2.3485,2.2501,2.2273,2.2377,2.2687,2.249,2.2584,2.3546,2.3391,2.3764,2.542,2.6848,2.811,2.9177,3.0822,3.1981,3.2271,3.2561,3.2669,3.2669,3.2669,3.2669,3.2669,3.2002,3.1661,3.1826,3.1536,3.1309,3.1153,3.1743,3.1988,3.1988,3.2452,3.2669,3.2669,3.2669,3.2669,3.2669,3.2669,3.2669,3.2669,3.2669,3.2669,3.2669,3.2669,3.2669,3.2669,3.2669,3.2669,3.2669,0.0,0.0,0.0,0.0,0.0,0.0,0.0,2.851,2.851,2.851,2.851,2.851,2.851,2.851,2.851,2.851,2.851,0.0,0.0,0.0,0.0,0.0,0.0,0.0,2.851,2.851,2.851,2.851,2.851,2.851,2.851,2.851,2.851,2.851,2.851,2.851,0.0,0.0,0.0,0.0,0.0,0.0,2.851,0.0,0.0,0.0,0.0,0.0,0.0,0.0,0.0,0.0,0.0,0.0,0.0,0.0,2.5459,2.6094,2.6885,2.7342,2.7643,2.7814,2.7104,2.5987,2.4781,2.4051,2.3412,2.2656,2.2501,2.2635,2.3101,2.2946,2.3008,2.3764,2.3629,2.3867,2.5024,2.6486,2.7883,2.9156,3.1029,3.2147,3.1971,3.2426,3.2654,3.2432,3.2576,3.2597,3.2421,3.1774,3.1578,3.1977,3.1609,3.1381,3.1381,3.1992,3.2246,3.2246,3.2535,3.2669,3.2669,3.2669,3.2669,3.2669,3.2669,3.2669,0.0,3.2669,3.2669,3.2669,3.2669,3.2669,3.2669,3.2669,3.2669,3.2669,0.0,0.0,0.0,0.0,0.0,0.0,0.0,2.851,2.851,2.851,2.851,2.851,2.851,2.851,2.851,2.851,0.0,0.0,0.0,0.0,0.0,0.0,0.0,0.0,2.851,2.851,2.851,2.851,2.851,2.851,2.851,2.851,2.851,2.851,2.851,2.851,2.851,0.0,0.0,0.0,0.0,0.0,0.0,0.0,0.0,0.0,0.0,0.0,0.0,0.0,0.0,0.0,0.0,0.0,0.0,0.0,0.0,0.0,0.0,2.6114,2.6534,2.7638,2.6686,2.5374,2.5155,2.4146,0.0,2.2687,2.2594,2.2739,2.3194,2.3256,2.3391,2.3857,2.394,2.4198,2.5065,2.6113,2.7427,2.9239,3.0646,3.1298,3.0833,3.1961,3.2494,3.206,3.2401,3.2432,3.2008,3.1588,3.1516,3.1874,3.1547,3.1381,3.1474,3.2313,3.2669,3.2669,3.2669,3.2669,3.2669,3.2669,3.2669,3.2669,3.2669,3.2669,3.2669,3.2669,3.2669,3.2669,3.2669,3.2669,3.2669,3.2669,3.2669,3.2669,0.0,0.0,0.0,0.0,0.0,0.0,0.0,0.0,0.0,0.0,2.851,2.851,2.851,2.851,2.851,0.0,0.0,0.0,0.0,0.0,0.0,0.0,0.0,0.0,2.851,2.851,2.851,2.851,2.851,2.851,2.851,2.851,2.851,2.851,2.851,2.851,2.851,2.851,0.0,0.0,0.0,0.0,0.0,0.0,0.0,0.0,2.851,2.851,0.0,0.0,0.0,0.0,0.0,0.0,0.0,0.0,2.5179,2.4569,2.4802,0.0,2.5002,2.5317,2.5049,2.466,0.0,2.395,2.3681,2.3577,2.3557,2.3691,2.4104,2.3939,2.3857,2.427,2.4105,2.4198,2.5065,2.721,2.9218,3.0708,3.1795,3.223,3.1764,3.2277,3.2628,3.2514,3.2287,3.2101,3.1988,3.1288,3.0895,3.0998,3.0905,3.135,3.2406,3.2623,3.2669,3.2669,3.2669,3.2669,3.2669,3.2669,3.2669,3.2669,3.2669,3.2669,3.2669,3.2669,3.2669,3.2669,3.2669,3.2669,3.2669,3.2669,3.2669,3.2669,0.0,0.0,0.0,0.0,0.0,0.0,0.0,0.0,0.0,0.0,0.0,0.0,0.0,0.0,0.0,0.0,0.0,0.0,0.0,0.0,0.0,0.0,0.0,2.851,2.851,2.851,2.851,2.851,2.851,2.851,2.851,2.851,2.851,2.851,2.851,2.851,2.851,2.851,2.851,0.0,2.851,0.0,0.0,0.0,0.0,0.0,2.851,2.851,0.0,2.8724,2.7983,2.7121,0.0,0.0,0.0,0.0,2.5799,2.502,2.4625,2.4497,2.4497,2.4497,2.4497,2.4383,2.3981,2.3919,2.3919,2.3919,2.3919,2.4012,2.4414,2.4301,2.426,2.4456,2.4519,2.4964,2.6279,2.811,2.9818,3.1215,3.1992,3.2184,3.1785,3.2344,3.2411,3.1836,3.195,3.1857,3.1443,3.1153,3.0998,3.0998,3.1195,3.1567,3.2106,3.2313,3.2463,3.2669,3.2669,3.2669,3.2669,3.2669,3.2669,3.2669,3.2669,3.2669,3.2669,3.2669,3.2669,3.2669,3.2669,3.2669,3.2669,3.2669,3.2669,3.2669,0.0,0.0,0.0,0.0,0.0,0.0,0.0,0.0,0.0,0.0,0.0,0.0,0.0,0.0,0.0,0.0,0.0,0.0,0.0,0.0,0.0,0.0,2.851,2.851,2.851,2.851,2.851,2.851,2.8595,2.8631,2.8631,2.8715,2.8703,2.8631,2.8546,2.851,2.851,2.851,2.851,2.851,2.851,0.0,0.0,0.0,0.0,0.0,0.0,0.0,0.0,2.8764,2.8383,2.8011,2.9106,0.0,0.0,0.0,0.0,0.0,2.4743,2.4497,2.4497,2.4497,2.4497,2.4404,2.4064,2.3981,2.3981,2.3981,2.3981,2.4115,2.4518,2.4611,2.4621,2.4693,2.521,2.6181,2.7903,2.899,3.0036,3.1143,3.1785,3.194,3.1422,3.2137,3.2116,3.0884,3.1433,3.1526,3.0833,3.1029,3.1236,3.1371,3.1671,3.1723,3.1474,3.1919,3.2287,3.2669,3.2669,3.2669,3.2669,3.2669,3.2669,3.2669,3.2669,3.2669,3.2669,3.2669,3.2669,3.2669,3.2669,3.2669,3.2669,3.2669,3.2669,3.2669,0.0,0.0,0.0,0.0,0.0,0.0,0.0,0.0,0.0,0.0,0.0,0.0,0.0,0.0,0.0,0.0,0.0,0.0,0.0,0.0,0.0,2.851,2.851,2.851,2.851,2.851,2.851,2.851,2.8955,2.9184,2.9184,2.9641,2.9605,2.916,2.8703,2.851,2.851,2.851,2.851,2.851,2.851,0.0,0.0,0.0,0.0,0.0,0.0,0.0,0.0,2.8934,2.8514,2.8011,2.9326,0.0,0.0,0.0,0.0,0.0,2.4743,2.4497,2.4497,2.4497,2.4497,2.4476,2.4414,2.4394,2.4394,2.4394,2.4394,2.4538,2.5003,2.5086,2.5199,2.5616,2.6703,2.7883,2.8938,3.0232,3.0998,3.0812,3.1878,3.2302,3.1454,3.1847,3.1899,3.1309,3.104,3.0998,3.1257,3.0594,3.0563,3.135,3.106,3.1226,3.1874,3.2339,3.2607,3.2669,3.2669,3.2669,3.2669,3.2669,3.2669,3.2669,3.2669,3.2669,3.2669,3.2669,3.2669,3.2669,3.2669,3.2669,3.2669,3.2669,3.2669,3.2669,0.0,0.0,0.0,0.0,0.0,0.0,0.0,0.0,0.0,0.0,0.0,0.0,0.0,0.0,0.0,0.0,0.0,0.0,0.0,0.0,2.851,2.851,2.851,2.851,2.851,2.8787,2.8931,2.8931,2.946,2.9725,2.9725,2.9677,2.9376,2.8871,2.8619,2.851,2.851,2.851,2.851,2.851,0.0,0.0,0.0,0.0,0.0,0.0,0.0,0.0,0.0,0.0,2.8752,2.8633,2.9365,0.0,0.0,0.0,0.0,0.0,2.6008,2.5232,2.4677,2.5423,2.5049,2.4497,2.4497,2.4497,2.4497,2.4497,2.4497,2.4642,2.5096,2.5627,2.6258,2.72,2.81,2.8907,2.958,3.0439,3.1112,3.1381,3.1754,3.1836,3.1422,3.1567,3.1495,3.104,3.104,3.1153,3.136,3.1205,3.1298,3.1723,3.1774,3.1992,3.2349,3.2566,3.2669,3.2669,3.2669,3.2669,3.2669,3.2669,3.2669,3.2669,3.2669,3.2669,3.2669,3.2669,3.2669,3.2669,3.2669,3.2669,3.2669,3.2669,3.2669,3.2669,0.0,0.0,0.0,0.0,0.0,0.0,0.0,0.0,0.0,0.0,0.0,0.0,0.0,0.0,0.0,0.0,0.0,0.0,0.0,2.851,2.851,2.851,2.851,2.857,2.8691,2.9088,2.9364,2.9484,3.0013,3.0266,3.0266,2.9737,2.9208,2.8691,2.857,2.851,2.851,2.851,2.851,2.851,0.0,0.0,0.0,0.0,0.0,0.0,0.0,0.0,0.0,0.0,0.0,0.0,0.0,0.0,0.0,2.8752,2.8011,2.7395,2.7151,2.5966,2.5072,2.6086,2.5487,2.4714,2.4921,2.4972,2.5003,2.5106,2.5181,2.5285,2.5647,2.6444,2.7396,2.8442,2.9187,2.9746,3.0108,3.0553,3.1112,3.1805,3.1588,3.1381,3.1381,3.1381,3.1184,3.0729,3.1112,3.1422,3.1526,3.1754,3.1926,3.2142,3.239,3.2566,3.2669,3.2669,3.2669,3.2669,3.2669,3.2669,3.2669,3.2669,3.2669,3.2669,3.2669,3.2669,3.2669,3.2669,3.2669,3.2669,3.2669,3.2669,3.2669,3.2669,3.2669,3.2669,0.0,0.0,0.0,0.0,0.0,0.0,0.0,0.0,0.0,0.0,0.0,0.0,0.0,0.0,0.0,0.0,0.0,0.0,0.0,2.851,2.851,2.851,2.851,2.8739,2.9232,2.928,2.9532,3.0025,3.0555,3.0819,3.085,3.0278,2.9749,2.922,2.8727,2.851,2.851,2.851,2.851,2.851,2.851,0.0,0.0,0.0,0.0,0.0,0.0,0.0,0.0,0.0,0.0,0.0,0.0,0.0,2.9624,2.8752,2.8462,2.8211,2.7354,2.6412,2.5746,2.5832,2.5498,2.5399,2.6237,2.647,2.6594,2.7019,2.7112,2.7123,2.7154,2.7852,2.8493,2.8597,2.9725,3.0594,3.0626,3.104,3.135,3.1422,3.1391,3.1381,3.1381,3.1381,3.1184,3.0729,3.1112,3.1557,3.1915,3.1629,3.1816,3.2597,3.2246,3.2246,3.2727,3.2669,3.2669,3.2669,3.2669,3.2669,3.2669,3.2669,3.2669,3.2669,3.2669,3.2669,3.2669,3.2669,3.2669,3.2669,3.2669,3.2669,3.2669,3.2669,3.2669,3.2669,0.0,0.0,0.0,0.0,0.0,0.0,0.0,0.0,0.0,0.0,0.0,0.0,0.0,0.0,0.0,0.0,0.0,0.0,0.0,2.851,2.851,2.851,2.851,2.8751,2.9292,2.9629,3.005,3.0621,3.1151,3.1079,3.0386,3.0182,2.9629,2.8799,2.8595,2.851,2.851,2.851,2.851,2.851,2.851,2.851,0.0,0.0,0.0,0.0,0.0,0.0,0.0,0.0,2.9184,2.9419,2.9509,2.9663,2.9753,2.9417,2.8922,2.8542,2.8712,2.7544,2.6428,2.7269,2.6562,2.5792,2.647,2.6832,2.7092,2.7268,2.7707,2.8193,2.8483,2.928,2.9808,2.9518,3.0626,3.1433,3.1153,3.1505,3.1899,3.2178,3.1961,3.1785,3.1785,3.1536,3.1412,3.1516,3.1692,3.1992,3.239,3.2313,3.2375,3.2659,3.2504,3.2494,3.2669,3.2669,3.2669,3.2669,3.2669,3.2669,3.2669,3.2669,3.2669,3.2669,3.2669,3.2669,3.2669,3.2669,3.2669,3.2669,3.2669,3.2669,3.2669,3.2669,3.2669,3.2669,0.0,0.0,0.0,0.0,0.0,0.0,0.0,0.0,0.0,0.0,0.0,0.0,0.0,0.0,0.0,0.0,0.0,0.0,2.851,2.851,2.851,2.851,2.851,2.8751,2.9292,2.9653,3.0182,3.0922,3.1284,3.1007,3.0086,3.0086,2.9617,2.8763,2.8763,2.8763,2.8751,2.8582,2.851,2.851,2.851,2.851,0.0,0.0,0.0,0.0,0.0,0.0,0.0,0.0,2.9287,2.9521,2.9521,2.965,2.9792,2.9792,2.9378,2.8961,2.9287,2.8187,2.7056,2.7723,2.7114,2.6563,2.7262,2.7448,2.7683,2.8263,2.8607,2.8928,2.9249,2.9942,3.0315,2.9849,3.105,3.1888,3.1443,3.164,3.2002,3.2401,3.2106,3.1888,3.1977,3.1764,3.1712,3.1957,3.2122,3.2339,3.2659,3.2669,3.2669,3.2669,3.2669,3.2669,3.2669,3.2669,3.2669,3.2669,3.2669,3.2669,3.2669,3.2669,3.2669,3.2669,3.2669,3.2669,3.2669,3.2669,3.2669,3.2669,3.2669,3.2669,3.2669,3.2669,3.2669,3.2669,0.0,0.0,0.0,0.0,0.0,0.0,0.0,0.0,0.0,0.0,0.0,0.0,0.0,0.0,0.0,0.0,0.0,0.0,2.851,2.851,2.851,2.851,2.851,2.8751,2.928,2.9304,2.9809,3.091,3.0922,3.0603,3.0074,3.0086,2.9797,2.9304,2.9304,2.9304,2.9268,2.8739,2.851,2.851,2.851,2.851,2.8522,0.0,0.0,0.0,0.0,0.0,0.0,0.0,2.9792,2.9792,2.9792,2.9792,2.9792,2.9792,2.9792,2.9636,2.8752,2.8198,2.7625,2.6744,2.6955,2.7672,2.9001,2.8597,2.8452,3.0294,2.9953,2.9321,2.9321,2.9704,2.986,2.9394,3.0843,3.1888,3.1443,3.1381,3.1547,3.1936,3.1661,3.1567,3.1946,3.1988,3.1988,3.1988,3.2421,3.2669,3.2669,3.2669,3.2669,3.2669,3.2669,3.2669,3.2669,3.2669,3.2669,3.2669,3.2669,3.2669,3.2669,3.2669,3.2669,3.2669,3.2669,3.2669,3.2669,3.2669,3.2669,3.2669,3.2669,3.2669,3.2669,3.2669,3.2669,3.2669,0.0,0.0,0.0,0.0,0.0,0.0,0.0,0.0,0.0,0.0,0.0,0.0,0.0,0.0,0.0,0.0,0.0,0.0,2.851,2.851,2.851,2.851,2.851,2.8582,2.8739,2.9112,2.9641,3.0326,3.0742,3.041,2.9544,2.9917,2.9797,2.9304,2.9304,2.9304,2.9268,2.8739,2.851,2.851,2.851,2.8739,2.9027,0.0,0.0,0.0,0.0,0.0,0.0,0.0,0.0,0.0,2.9792,2.9792,2.9792,2.9792,3.0068,3.033,3.0027,2.9937,2.9934,3.0071,2.943,2.9139,3.0597,2.9608,2.8752,2.9953,3.0243,3.0274,3.0274,3.0905,3.1184,3.0398,3.1267,3.1936,3.1857,3.1836,3.2012,3.2421,3.2406,3.2375,3.2452,3.2463,3.2463,3.2463,3.2597,3.2669,3.2669,3.2669,3.2669,3.2669,3.2669,3.2669,3.2669,3.2669,3.2669,3.2669,3.2669,3.2669,3.2669,3.2669,3.2669,3.2669,3.2669,3.2669,3.2669,3.2669,3.2669,3.2669,3.2669,3.2669,3.2669,3.2669,3.2669,3.2669,0.0,0.0,0.0,0.0,0.0,0.0,0.0,0.0,0.0,0.0,2.851,0.0,0.0,0.0,0.0,0.0,0.0,0.0,0.0,2.851,2.851,2.851,2.851,2.851,2.851,2.9232,2.9556,2.946,2.9989,2.9917,2.9304,2.9845,2.9917,2.9617,2.9617,2.9617,2.9569,2.8823,2.851,2.851,2.851,2.8703,2.8955,0.0,0.0,0.0,0.0,0.0,0.0,0.0,0.0,0.0,2.9792,2.9792,2.9792,2.9792,2.988,2.993,2.9594,2.9857,3.0144,2.9953,3.0253,3.0811,3.1486,3.0774,3.0139,3.0698,3.0884,3.1019,3.1195,3.1526,3.1661,3.1288,3.1781,3.2256,3.2256,3.2256,3.2359,3.2638,3.2669,3.2669,3.2669,3.2669,3.2669,3.2669,3.2669,3.2669,3.2669,3.2669,3.2669,3.2669,3.2669,3.2669,3.2669,3.2494,3.2494,3.2669,3.2483,3.2494,3.2669,3.2669,3.2576,3.239,3.2271,3.2292,3.2401,3.2401,3.2401,3.2421,3.2607,3.2669,3.2669,3.2669,3.2669,3.2669,0.0,0.0,0.0,0.0,0.0,0.0,0.0,0.0,0.0,0.0,2.851,2.851,0.0,0.0,0.0,0.0,0.0,0.0,0.0,2.851,2.851,2.851,2.8558,2.8607,2.8655,2.9544,2.9569,2.8683,2.9088,2.9292,2.9345,2.9875,3.0152,3.02,3.0152,3.0128,3.0013,2.8955,2.855,2.855,2.855,2.8574,2.861,2.8602,0.0,0.0,0.0,0.0,0.0,0.0,0.0,0.0,2.9792,2.9792,2.9792,2.9792,2.9539,2.9068,2.8342,2.8872,2.9373,2.8258,3.0345,3.2567,3.2161,3.2159,3.2166,3.1888,3.1671,3.1609,3.1915,3.1743,3.1629,3.1977,3.2401,3.2669,3.2669,3.2669,3.2669,3.2669,3.2669,3.2669,3.2669,3.2669,3.2659,3.2607,3.2706,3.2659,3.2607,3.2706,3.2669,3.2669,3.2669,3.2669,3.2669,3.2215,3.2194,3.2607,3.2142,3.2142,3.2602,3.2638,3.2421,3.1957,3.1567,3.1609,3.1926,3.1926,3.1946,3.2029,3.2452,3.2638,3.2669,3.2669,3.2669,3.2669,0.0,0.0,0.0,0.0,0.0,0.0,0.0,0.0,0.0,0.0,0.0,0.0,0.0,0.0,0.0,0.0,0.0,0.0,0.0,2.851,2.851,2.851,2.8907,2.9328,2.9737,2.9569,2.9627,2.9973,2.9518,2.9374,2.9537,3.0058,3.0543,3.0962,3.0495,3.0241,3.0055,2.9105,2.8724,2.8764,2.8895,2.923,2.956,2.9318,2.9483,0.0,0.0,0.0,0.0,0.0,0.0,0.0,2.9792,2.9792,2.9792,2.9792,3.0011,3.0323,3.0556,3.1427,3.24,3.2953,3.3607,3.4159,3.4516,3.4293,3.3306,3.0943,3.1505,3.2354,3.2039,3.2261,3.2468,3.2514,3.2607,3.2669,3.2669,3.2669,3.2669,3.2669,3.2669,3.2669,3.2669,3.2669,3.2525,3.2163,3.2463,3.2514,3.2153,3.2483,3.2669,3.2669,3.2669,3.2669,3.2669,3.2215,3.2039,3.2132,3.1733,3.1567,3.1692,3.2406,3.2421,3.1957,3.1567,3.1433,3.1526,3.1526,3.1723,3.1998,3.2091,3.2359,3.2669,3.2669,3.2669,3.2669,0.0,0.0,0.0,0.0,0.0,0.0,0.0,0.0,0.0,0.0,0.0,0.0,0.0,0.0,0.0,0.0,0.0,0.0,0.0,0.0,2.8619,2.8871,2.94,2.9797,3.0074,3.0187,3.0259,3.0396,3.0129,2.9995,2.9983,3.0668,3.107,3.1174,3.1046,3.079,3.0384,2.9679,2.9218,2.8961,2.9052,2.9263,2.9524,2.9308,2.9487,2.9804,2.966,0.0,0.0,0.0,0.0,0.0,0.0,0.0,2.9792,2.9792,2.9841,3.0,3.0569,3.1373,3.2481,3.4565,3.4276,3.388,3.5491,3.495,3.3846,3.2778,3.3137,3.3314,3.2473,3.2514,3.2669,3.2669,3.2669,3.2669,3.2669,3.2669,3.2669,3.2669,3.2669,3.2669,3.2669,3.2473,3.2246,3.2008,3.2064,3.1981,3.1733,3.195,3.2178,3.2339,3.2199,3.2188,3.2339,3.1733,3.1505,3.1712,3.1267,3.1164,3.1381,3.164,3.1743,3.1681,3.1008,3.0843,3.104,3.104,3.1184,3.1433,3.1812,3.2132,3.237,3.2597,3.2669,3.2669,0.0,0.0,0.0,0.0,0.0,0.0,0.0,0.0,0.0,0.0,0.0,0.0,0.0,0.0,0.0,0.0,0.0,0.0,0.0,0.0,0.0,2.9544,2.9989,3.0308,3.0447,3.0901,3.1016,3.0802,3.0883,3.0883,3.0802,3.1404,3.1571,3.1461,3.1613,3.1324,3.0782,3.0241,2.9687,2.917,2.9209,2.9209,2.9209,2.9209,2.9326,2.947,2.947,2.9599,2.9792,2.9792,0.0,0.0,0.0,0.0,2.9792,2.9792,2.9517,2.9342,2.9939,3.0646,3.1906,3.4774,3.407,3.3372,3.5896,3.5271,3.4471,3.5366,3.4984,3.4179,3.3067,3.2716,3.2556,3.2556,3.2556,3.2556,3.2556,3.2628,3.2638,3.2566,3.2556,3.2587,3.2669,3.2184,3.193,3.193,3.1588,3.134,3.1267,3.134,3.1547,3.1919,3.1567,3.1557,3.1864,3.1102,3.0874,3.1247,3.0791,3.077,3.1122,3.0739,3.0822,3.1215,3.0367,3.0212,3.0563,3.0563,3.0615,3.077,3.1598,3.1915,3.2039,3.2504,3.2669,3.2669,0.0,0.0,0.0,0.0,0.0,0.0,0.0,0.0,0.0,0.0,2.851,2.851,0.0,0.0,0.0,0.0,0.0,0.0,0.0,0.0,0.0,3.0627,3.0735,3.1074,3.1719,3.1214,3.1405,3.2401,3.1785,3.1785,3.2401,3.2047,3.2067,3.25,3.2029,3.1479,3.0782,3.0391,2.9901,2.938,2.9611,2.9714,2.9714,2.9714,2.9702,2.9753,2.9753,2.9753,2.9792,2.9792,2.9792,0.0,0.0,0.0,2.9792,2.9792,2.9764,2.981,3.0358,3.1647,3.3239,3.5069,3.487,3.4796,3.6651,3.65,3.5999,3.6164,3.5287,3.4349,3.3769,3.2775,3.2081,3.2081,3.2081,3.2081,3.2081,3.2421,3.2525,3.2122,3.2081,3.2235,3.2638,3.1961,3.1464,3.1464,3.1412,3.1205,3.0801,3.1153,3.1402,3.1464,3.1412,3.1412,3.1464,3.0946,3.0719,3.077,3.0315,3.0118,3.018,3.0118,3.0336,3.075,3.0222,3.0036,3.0087,3.0087,3.0325,3.0739,3.1267,3.1702,3.2039,3.2504,3.2669,3.2669,0.0,0.0,0.0,0.0,0.0,0.0,0.0,0.0,0.0,0.0,0.0,2.851,0.0,0.0,0.0,0.0,0.0,0.0,0.0,0.0,0.0,3.0886,3.0922,3.1175,3.1837,3.1751,3.2012,3.2519,3.2457,3.2628,3.2939,3.2689,3.2616,3.2711,3.2591,3.2059,3.1112,3.0985,3.0426,2.965,2.974,2.9792,2.9792,2.9792,2.9792,2.9792,2.9792,2.9792,2.9792,2.9792,2.9792,2.9792,2.9792,0.0,0.0,0.0,2.9792,2.9917,3.047,3.1813,3.3257,3.3985,3.3943,3.4207,3.5884,3.5842,3.5718,3.6628,3.6109,3.5036,3.3581,3.2857,3.2333,3.1771,3.1671,3.1671,3.1671,3.1847,3.1899,3.1692,3.1671,3.1743,3.195,3.1381,3.0988,3.0988,3.075,3.0522,3.0315,3.0491,3.0729,3.0977,3.0739,3.0729,3.0988,3.0532,3.0294,3.0294,3.0087,2.9994,2.9994,2.9994,3.0108,3.0294,3.0087,2.9994,2.9994,2.9994,3.0118,3.0346,3.0812,3.1267,3.1692,3.1899,3.2292,3.2638,0.0,0.0,0.0,0.0,0.0,0.0,0.0,0.0,0.0,0.0,0.0,0.0,0.0,0.0,0.0,0.0,0.0,0.0,0.0,0.0,0.0,3.1091,3.1158,3.1395,3.1881,3.2213,3.2487,3.2562,3.2865,3.3025,3.3124,3.3124,3.2982,3.281,3.3025,3.2453,3.1386,3.1386,3.0771,2.9792,2.9792,2.9792,2.9792,2.9792,2.9792,2.9792,2.9792,2.9792,2.9792,2.9792,2.9792,2.9792,2.9792,2.9792,0.0,0.0,0.0,2.9917,3.047,3.1512,3.2554,3.2968,3.3086,3.3475,3.4982,3.5122,3.5329,3.6528,3.6554,3.5702,3.3734,3.3049,3.2576,3.2083,3.1565,3.1304,3.1619,3.1517,3.134,3.1215,3.1205,3.1247,3.136,3.0853,3.0563,3.0677,3.0263,2.9994,2.9994,2.9994,3.0149,3.0501,3.018,3.016,3.0512,3.016,2.9994,2.9994,2.9994,2.9994,2.9994,2.9994,2.9994,2.9994,2.9994,2.9994,2.9994,2.9994,2.9994,3.0046,3.0501,3.0895,3.1236,3.1464,3.1971,3.2463,0.0,0.0,0.0,0.0,0.0,0.0,0.0,0.0,0.0,0.0,0.0,0.0,2.851,2.851,2.8715,2.9208,0.0,0.0,0.0,0.0,0.0,3.1645,3.1857,0.0,3.2344,3.24,3.2605,3.3081,3.2853,3.2853,3.3124,3.3124,3.3081,3.3081,3.3068,3.2453,3.1386,3.1386,3.0771,2.9792,2.9792,2.9792,2.9792,2.9792,2.9792,2.9792,2.9792,2.9792,2.9792,2.9792,2.9792,2.9792,2.9792,2.9792,2.9792,0.0,0.0,0.0,3.047,3.067,3.1122,3.2679,3.3119,3.3389,3.4467,3.5098,3.5499,3.5583,3.6022,3.6053,3.4908,3.3395,3.2652,3.3594,3.2057,3.1072,3.2088,3.1773,3.1215,3.077,3.0729,3.0895,3.134,3.0563,3.0212,3.0657,3.0263,2.9994,2.9994,2.9994,3.0005,3.0036,3.0005,3.0005,3.0036,3.0005,2.9994,2.9994,2.9994,2.9994,2.9994,2.9994,2.9994,2.9994,2.9994,2.9994,2.9994,2.9994,2.9994,3.0046,3.0501,3.0698,3.0833,3.1636,3.1977,3.2081,0.0,0.0,0.0,0.0,0.0,0.0,0.0,0.0,0.0,0.0,0.0,0.0,0.0,2.8919,2.9238,2.928,2.9917,0.0,0.0,0.0,0.0,3.1881,3.2125,3.23,3.24,3.2519,3.268,3.2853,3.2896,3.3025,3.3124,3.3124,3.3124,3.3124,3.3124,3.2453,3.1386,3.1386,3.0771,2.9792,2.9792,2.9792,2.9792,2.9792,2.9792,2.9842,3.0193,3.0319,3.0369,3.0708,3.0595,3.0319,3.0319,3.008,2.9792,2.9792,2.9792,2.9829,3.003,3.0344,3.0758,3.1348,3.175,3.219,3.2943,3.3545,3.406,3.4412,3.5203,3.559,3.4845,3.4282,3.3804,3.3526,3.2819,3.2207,3.1888,3.1637,3.1232,3.0358,3.0243,3.0315,3.047,3.0191,3.0067,3.0232,3.0087,2.9994,2.9994,2.9994,2.9994,2.9994,2.9994,2.9994,2.9994,2.9994,2.9994,2.9994,2.9994,2.9994,2.9994,2.9994,2.9994,2.9994,2.9994,2.9994,2.9994,2.9994,2.9994,3.0015,3.018,3.0419,3.0729,3.105,3.1536,3.2008,0.0,0.0,0.0,0.0,0.0,0.0,0.0,0.0,0.0,2.8697,0.0,0.0,0.0,0.0,3.0028,3.007,3.0895,3.1562,3.1913,3.2081,3.2125,3.2125,3.2388,3.2519,3.2519,3.2537,3.261,3.2853,3.2794,3.288,3.3124,3.3124,3.3124,3.3124,3.3124,3.2453,3.1386,3.1386,3.0771,2.9817,2.9993,3.0068,3.0093,3.0269,3.0331,3.0382,3.0746,3.0871,3.0922,3.1273,3.1047,3.062,3.062,3.0231,2.9792,2.9792,2.9792,2.9792,2.9792,3.0068,3.0382,3.057,3.0871,3.1273,3.1813,3.2528,3.3181,3.3545,3.45,3.5107,3.4788,3.4749,3.4605,3.4052,3.3543,3.2982,3.2501,3.1922,3.1276,3.0377,3.0099,2.9994,2.9994,2.9994,2.9994,2.9994,2.9994,2.9994,2.9994,2.9994,2.9994,2.9994,2.9994,2.9994,2.9994,2.9994,2.9994,2.9994,2.9994,2.9994,2.9994,2.9994,2.9994,2.9994,2.9994,2.9994,2.9994,2.9994,2.9994,2.9994,2.9994,3.0284,3.0708,3.0864,3.1402,3.2008,0.0,0.0,0.0,0.0,0.0,0.0,0.0,0.0,2.914,2.914,0.0,0.0,0.0,0.0,0.0,3.1589,3.2105,3.24,3.24,3.2388,3.2388,3.2388,0.0,0.0,3.2711,3.2389,3.2516,3.3124,3.2516,3.2528,3.3124,3.3124,3.3124,3.3124,3.3124,3.2453,3.1386,3.1386,3.0783,2.9867,3.0419,3.0645,3.0721,3.1248,3.1436,3.1436,3.1461,3.1461,3.1461,3.1461,3.111,3.0658,3.0608,3.0218,2.9792,2.9792,2.9792,0.0,0.0,0.0,0.0,3.0457,3.0595,3.0733,3.1248,3.2215,3.3061,3.3086,3.3922,3.4675,3.4675,3.47,3.4856,3.537,3.4198,3.3427,3.3899,3.2624,3.1458,3.0898,3.0323,3.0005,3.0026,3.0026,2.9984,2.9994,2.9994,2.9994,2.9994,2.9994,2.9994,2.9994,2.9994,2.9994,2.9994,2.9994,2.9994,2.9994,2.9994,2.9994,2.9994,2.9994,2.9994,2.9994,2.9994,2.9994,2.9994,2.9994,2.9994,2.9994,3.0015,3.0294,3.0739,3.1215,3.1671,3.205,0.0,0.0,0.0,0.0,0.0,0.0,3.0327,3.0327,3.0327,0.0,0.0,0.0,3.0602,3.1065,3.1736,3.2671,3.2535,3.24,3.24,3.2562,3.2636,3.2636,3.2853,3.2982,3.2982,3.2918,3.2918,3.3124,3.2918,3.2918,3.3124,3.3124,3.3124,3.3124,3.3124,3.2453,3.1386,3.1386,3.0997,3.0432,3.0959,3.1411,3.1838,3.2403,3.2616,3.2667,3.3068,3.3206,3.3206,3.3206,3.2566,3.1562,3.0394,2.9917,2.9792,2.9792,2.9792,0.0,2.9792,0.0,0.0,0.0,0.0,0.0,3.0708,3.1072,3.1512,3.229,3.3031,3.3533,3.3533,3.4186,3.4638,3.4399,3.4301,3.4064,3.3416,3.2984,3.2354,3.1411,3.057,3.0224,3.0546,2.9938,2.9632,2.9973,2.9994,2.9994,2.9994,2.9994,2.9994,2.9994,2.9994,2.9994,2.9994,2.9994,2.9994,2.9994,2.9994,2.9994,2.9994,2.9994,2.9994,2.9994,2.9994,2.9994,2.9994,2.9994,2.9994,3.0025,3.0367,3.0574,3.0781,3.1567,3.1874,3.205,0.0,0.0,0.0,0.0,0.0,3.1058,3.1058,3.1058,3.1058,0.0,0.0,0.0,3.1729,3.2065,3.2568,3.3437,3.3015,3.2792,3.3015,3.2947,3.2953,3.3177,3.3333,3.3533,3.3759,3.3319,3.3194,3.342,3.2955,3.2842,3.3124,3.3124,3.3124,3.3124,3.3124,3.2453,3.1386,3.1386,3.1223,3.0972,3.1273,3.1863,3.2641,3.3206,3.342,3.3495,3.4048,3.4248,3.4248,3.4248,3.3495,3.2252,3.0382,2.9942,3.0093,2.9867,2.9792,0.0,0.0,0.0,0.0,2.9792,0.0,0.0,3.0193,3.0457,3.0859,3.17,3.2139,3.2441,3.2667,3.3056,3.3294,3.3206,3.3458,3.3601,3.344,3.3228,3.2814,3.195,3.1179,3.0654,3.0499,3.0167,2.9854,2.9735,2.9891,2.9994,2.9994,2.9994,2.9994,2.9994,2.9994,2.9994,2.9994,2.9994,2.9994,2.9994,2.9994,2.9994,2.9994,2.9994,2.9994,2.9994,2.9994,2.9994,2.9994,2.9994,3.0108,3.0315,3.0584,3.0915,3.1309,3.1791,3.2101,3.2308,0.0,0.0,3.1499,3.1562,3.1574,3.1574,3.1574,3.1574,3.1574,0.0,3.2001,3.2528,3.3106,3.3162,3.3307,3.3847,3.3458,3.337,3.3872,3.3495,3.3483,3.3972,3.3985,3.4198,3.4625,3.3671,3.3382,3.3809,3.2805,3.2566,3.3124,3.3124,3.3124,3.3124,3.3124,3.2453,3.1386,3.1386,3.1424,3.1486,3.1549,3.229,3.342,3.396,3.4173,3.4236,3.4726,3.4901,3.4876,3.4688,3.3985,3.2792,3.0645,3.0306,3.0595,3.0043,2.9842,0.0,0.0,0.0,0.0,2.9792,2.9792,0.0,2.9867,3.0218,3.0683,3.1273,3.1348,3.1474,3.2026,3.1725,3.1549,3.2039,3.2177,3.2591,3.3658,3.3412,3.2931,3.244,3.189,3.1192,3.0418,3.0521,3.0367,2.9688,2.9984,3.0151,2.9994,2.9994,2.9994,2.9994,2.9994,2.9994,2.9994,2.9994,2.9994,2.9994,2.9994,2.9994,2.9994,2.9994,2.9994,2.9994,2.9994,2.9994,3.0005,3.0056,3.0315,3.0698,3.0739,3.1288,3.1988,3.2039,3.2318,3.2669,0.0,0.0,3.2202,3.2667,3.2797,3.2797,3.2797,3.2797,3.2797,3.2797,3.2842,3.3119,3.3671,3.3345,3.3307,3.3847,3.3796,3.3784,3.3884,3.4211,3.4449,3.4562,3.4562,3.4399,3.406,3.3847,3.3571,3.3244,3.3018,3.2968,3.3124,3.3124,3.3124,3.3124,3.3124,3.2453,3.1386,3.1386,3.165,3.2089,3.2554,3.3684,3.5082,3.5667,3.5927,3.594,3.6053,3.6091,3.5843,3.4512,3.3922,3.342,3.1637,3.1148,3.1135,3.0608,3.0143,2.9792,2.9792,2.9792,2.9792,2.9792,2.9792,0.0,3.0357,3.0193,3.0231,3.1185,3.106,3.0922,3.1449,3.1461,3.1424,3.1537,3.1926,3.2453,3.3144,3.3189,3.3071,3.2972,3.2144,3.1644,3.1841,3.0521,3.0288,3.1701,3.1464,3.0888,3.0047,2.9994,2.9994,2.9994,2.9994,2.9994,2.9994,2.9994,2.9994,2.9994,2.9994,2.9994,2.9994,2.9994,2.9994,2.9994,2.9994,2.9994,3.0025,3.0398,3.0605,3.0729,3.1091,3.1567,3.2029,3.2401,3.2597,3.2669,0.0,3.2641,3.2729,3.3074,3.3124,3.3124,3.3124,3.3124,3.3124,3.3124,3.3124,3.3181,3.3458,3.3244,3.3307,3.3847,3.3646,3.3721,3.4274,3.4311,3.4562,3.5069,3.5094,3.4956,3.468,3.4449,3.4035,3.3483,3.3206,3.3124,3.3124,3.3124,3.3124,3.3111,3.278,3.2177,3.1411,3.1687,3.2127,3.2641,3.2641,3.3646,3.5144,3.5742,3.5956,3.5994,3.6304,3.6405,3.6191,3.4776,3.4311,3.4073,3.2667,3.2039,3.1687,3.116,3.062,3.0143,2.9867,2.9792,2.9792,2.9792,2.9792,0.0,0.0,2.9993,3.003,3.0834,3.0796,3.0696,3.0959,3.0997,3.0997,3.0997,3.1235,3.1599,3.2152,3.2717,3.3124,3.3124,3.2667,3.223,3.1953,3.1296,3.1155,3.191,3.1501,3.0983,3.0444,3.0657,3.0536,2.9994,3.0536,3.0536,2.9994,2.9994,2.9994,2.9994,2.9994,2.9994,2.9994,2.9994,2.9994,3.0047,3.0599,3.0495,3.0088,3.1095,3.1636,3.1891,3.1735,3.1992,3.2359,3.2587,3.2669,3.2669,3.3124,3.3124,3.3124,3.3124,3.3124,3.3124,3.3124,3.3124,3.3124,3.3124,3.3124,3.3162,3.3219,3.3144,3.3307,3.3847,3.3495,3.3608,3.4512,3.4248,3.4462,3.5307,3.5345,3.5295,3.5182,3.4788,3.4299,3.3746,3.3294,3.3124,3.3124,3.3124,3.3124,3.3056,3.2591,3.2127,3.175,3.219,3.2704,3.3206,3.2842,3.3527,3.4893,3.5445,3.5596,3.5571,3.6157,3.6405,3.6254,3.5215,3.4951,3.4826,3.3621,3.2918,3.239,3.1612,3.1022,3.0495,2.9942,2.9792,2.9792,2.9792,2.9792,2.9792,0.0,0.0,0.0,3.0369,3.0457,3.0457,3.0457,3.0457,3.0419,3.0267,3.047,3.0733,3.1035,3.2051,3.2797,3.2797,3.2797,3.248,3.1775,3.2366,3.2374,3.1443,3.1409,3.1351,3.1114,3.1527,3.1294,3.0339,3.1135,3.1084,2.9994,2.9994,2.9994,2.9994,2.9994,3.0099,3.0297,3.0297,3.0443,3.064,3.1534,3.1497,3.0872,3.2189,3.3091,3.3459,3.2632,3.265,3.3058,3.3275,3.3218,3.3058,3.3124,3.3124,3.3124,3.3124,3.3124,3.3124,3.3124,3.3124,3.3124,3.3124,3.3124,3.3269,3.3759,3.337,3.3307,3.3847,3.3847,3.3859,3.3985,3.4399,3.4675,3.4768,3.4768,3.4587,3.4098,3.4022,3.3721,3.3212,3.3106,3.3124,3.3124,3.3124,3.3124,3.3124,3.3048,3.2943,3.2893,3.2955,3.3294,3.3847,3.4261,3.4793,3.5458,3.6056,3.5968,3.5571,3.6157,3.6405,3.6317,3.5608,3.5768,3.5952,3.4311,3.3759,3.3407,3.1851,3.1022,3.0495,2.9942,2.9792,2.9792,2.9792,2.9792,2.9792,2.9792,0.0,2.9817,2.988,0.0,2.988,2.988,0.0,0.0,2.9164,2.9955,3.047,3.003,3.0896,3.1587,3.1587,3.1587,3.1721,3.2084,3.3533,3.3451,3.1066,3.2606,3.3217,3.2248,3.2256,3.2038,3.141,3.1534,3.1084,2.9994,2.9994,2.9994,2.9994,2.9994,3.0495,3.1432,3.1432,3.1942,3.2851,3.2951,3.3202,3.3595,3.4176,3.4731,3.5135,3.4042,3.3888,3.4424,3.5432,3.5168,3.4424,3.3144,3.3124,0.0,3.3124,3.3124,3.3124,3.3124,3.3124,3.3124,3.3124,3.3124,3.3282,3.3847,3.3407,3.3432,3.4299,3.4085,3.4173,3.4768,3.4731,3.5014,3.5642,3.5064,3.4568,3.4387,3.406,3.3633,3.3124,3.3124,3.3124,3.3124,3.3124,3.3257,3.3533,3.3262,3.3257,3.3571,3.3897,3.3985,3.3972,3.4806,3.5107,3.5119,3.6031,3.6267,3.6056,3.6329,3.6405,3.6367,3.6094,3.5968,3.583,3.5441,3.4675,3.3696,3.2667,3.175,3.1022,3.0783,3.0721,3.0721,3.0721,3.0721,3.0557,2.993,2.9792,2.9792,2.9792,0.0,0.0,0.0,0.0,0.0,0.0,2.9829,3.0055,2.9829,3.0181,3.0696,3.1311,3.1386,3.1599,3.2152,3.2855,3.2798,3.17,3.1942,3.2219,3.2324,3.2422,3.218,3.1615,3.2828,3.2336,3.0047,3.064,3.064,2.9994,3.064,3.1187,3.1626,3.2235,3.2789,3.3273,3.4211,3.4357,3.4118,3.5535,3.6254,3.6542,3.6254,3.5482,3.4636,3.5761,3.5498,3.4636,3.3156,0.0,3.3307,3.3307,3.3224,3.3124,3.3124,3.3124,3.3124,3.3124,3.3124,3.3345,3.4048,3.3771,3.3909,3.4818,3.4575,3.4625,3.5232,3.4756,3.4926,3.5868,3.5002,3.45,3.45,3.411,3.3633,3.3124,3.3124,3.3124,3.3124,3.3124,3.3294,3.3658,3.3257,3.347,3.4148,3.455,3.4663,3.4638,3.5441,3.5529,3.524,3.5893,3.6279,3.6405,3.6405,3.6405,3.6405,3.6405,3.6094,3.5805,3.6056,3.5316,3.4211,3.3508,3.2717,3.2039,3.1901,3.1738,3.1612,3.1612,3.1399,3.0972,3.0193,2.9905,2.9792,2.9792,3.0118,0.0,0.0,0.0,0.0,0.0,0.0,2.9741,2.9578,2.9691,3.008,3.0859,3.1085,3.1336,3.1738,3.219,3.2315,3.2001,3.1665,3.1831,3.2689,3.2815,3.2617,3.2061,3.3834,3.3388,3.0495,3.1483,3.1637,3.0899,3.1688,3.2185,3.2476,3.3289,3.3796,3.4164,3.5488,3.5703,3.5242,3.6886,3.7731,3.7965,3.7911,3.6911,3.5509,3.636,3.5925,3.5124,3.3124,3.3508,3.3872,3.3872,3.3432,3.3124,3.3124,3.3124,3.3124,3.3124,3.3124,3.3483,3.4575,3.4675,3.4856,3.542,3.5458,3.5232,3.4776,3.4223,3.4173,3.4751,3.4223,3.3922,3.3922,3.3909,3.3633,3.3124,3.3124,3.3124,3.3124,3.3124,3.3124,3.3106,3.3124,3.3684,3.47,3.4668,3.5328,3.6329,3.6367,3.6367,3.6304,3.5768,3.5893,3.6405,3.6405,3.6405,3.6405,3.6405,3.6405,3.6292,3.5683,3.5495,3.5232,3.4198,3.3847,3.3709,3.3212,3.2616,3.219,3.219,3.1411,3.0633,3.0595,3.0181,2.9792,2.9792,2.9804,2.9817,2.9792,2.9804,0.0,0.0,0.0,0.0,0.0,2.944,2.9804,2.9842,3.0319,3.0645,3.067,3.2114,3.2591,3.1499,3.2423,3.3289,3.3828,3.3846,3.3649,3.3155,3.4239,3.3723,3.1575,3.2588,3.3151,3.3101,3.3151,3.3697,3.4678,3.4727,3.5319,3.6335,3.69,3.7439,3.7928,3.8567,3.9131,3.9505,3.8372,3.7832,3.7791,3.7832,3.7126,3.6306,3.4236,0.0,3.4211,3.3483,3.3206,3.3124,3.3124,3.3124,3.3332,3.4073,3.4161,3.4726,3.6194,3.6019,3.6182,3.7098,3.6508,3.6157,3.6332,3.5504,3.5403,3.6307,3.5127,3.4613,3.4931,3.4274,3.3633,3.3124,3.3445,3.3621,3.3621,3.3621,3.3822,3.4148,3.3784,3.4236,3.5219,3.5219,3.5433,3.5818,3.5991,3.5869,3.5583,3.5974,3.6194,3.6405,3.6405,3.6405,3.6405,3.6405,3.6405,3.6367,3.6144,3.583,3.5357,3.4618,3.4186,3.3935,3.411,3.4022,3.3828,3.3828,3.3332,3.2591,3.1838,3.1248,3.0746,3.0407,3.0331,3.0231,2.9867,0.0,0.0,0.0,0.0,0.0,0.0,2.9666,2.9792,2.9792,2.9955,3.0218,3.0583,3.1122,3.1286,3.0909,3.0959,3.1558,3.2712,3.2876,3.3143,3.373,3.5136,3.4824,3.27,3.3735,3.3895,3.3201,3.3944,3.4434,3.4824,3.5523,3.626,3.6935,3.7487,3.8052,3.8617,3.9182,3.9534,3.9645,3.9258,3.8594,3.7897,3.7897,3.7672,3.7501,3.4788,3.4562,3.4211,3.3495,3.3206,3.3124,3.3124,3.3407,3.3847,3.4361,3.4939,3.5705,3.6772,3.6971,3.7236,3.7939,3.755,3.7285,3.7186,3.6332,3.6232,3.7149,3.5793,3.5232,3.583,3.4763,3.4022,3.3658,3.3621,3.3809,3.4186,3.3796,3.3897,3.4412,3.3847,3.411,3.4919,3.5119,3.532,3.5495,3.5805,3.574,3.5602,3.6176,3.6349,3.6375,3.6564,3.6593,3.6546,3.664,3.6546,3.6405,3.6499,3.6213,3.5768,3.5416,3.5052,3.4851,3.5215,3.5165,3.4969,3.4969,3.4449,3.3709,3.298,3.239,3.1901,3.1562,3.1173,3.0783,3.0432,3.0055,0.0,0.0,0.0,0.0,0.0,2.9792,2.9792,2.9792,2.9792,2.993,3.0281,3.0507,3.0532,3.0331,3.0244,3.0807,3.2135,3.2494,3.3059,3.3945,3.5585,3.5571,3.3796,3.4836,3.5017,3.4337,3.5211,3.566,3.566,3.6559,3.7149,3.7513,3.8065,3.853,3.8957,3.9471,3.9697,3.9645,3.9258,3.8881,3.8489,3.8056,3.7897,3.8056,3.4726,3.4274,3.3897,3.3897,3.3445,3.3124,3.3124,3.3985,3.4512,3.4035,3.5437,3.6468,3.6531,3.745,3.809,3.809,3.8567,3.8466,3.7337,3.6795,3.6732,3.7249,3.6245,3.5906,3.6443,3.5328,3.4751,3.468,3.3646,3.3671,3.47,3.3621,3.3407,3.3909,3.3375,3.3438,3.3972,3.4474,3.5014,3.5554,3.5869,3.6131,3.6321,3.6347,3.6347,3.6385,3.6903,3.6956,3.6769,3.7002,3.6781,3.6452,3.6675,3.6581,3.6405,3.6405,3.6405,3.6405,3.6405,3.5981,3.5533,3.5533,3.4776,3.3985,3.3985,3.3558,3.3156,3.3174,3.2265,3.1486,3.1411,3.0557,2.9854,0.0,0.0,0.0,0.0,2.9792,2.9792,2.9792,2.9792,2.9792,2.9792,3.0269,3.0357,2.9829,3.0281,3.1035,3.2077,3.2729,3.3387,3.3956,3.5561,3.5918,3.4872,3.5918,3.6405,3.6417,3.6923,3.7186,3.7199,3.7751,3.8027,3.8078,3.863,3.8944,3.9007,3.9484,3.9697,3.9581,3.8437,3.8712,3.9581,3.8437,3.8003,3.8161,3.4756,3.4274,3.3897,3.3897,3.3445,3.3124,3.3124,3.3671,3.4349,3.4994,3.6207,3.7335,3.819,3.8843,3.9258,3.9258,3.9019,3.8793,3.8454,3.7902,3.7839,3.8466,3.7751,3.7249,3.6973,3.5906,3.5094,3.468,3.4022,3.4035,3.4713,3.401,3.4073,3.4755,3.3756,3.387,3.4768,3.4666,3.52,3.6131,3.6829,3.6876,3.6586,3.7267,3.7209,3.6851,3.7042,3.7062,3.7015,3.7062,3.7015,3.6922,3.6968,3.6828,3.6628,3.6628,3.6546,3.6405,3.6405,3.6304,3.6157,3.6157,3.5629,3.5082,3.5082,3.4655,3.4186,3.3771,3.3458,3.2867,3.1625,3.116,3.0721,0.0,0.0,0.0,0.0,2.9792,2.9792,2.9792,2.9792,2.9792,2.9792,2.9917,2.9942,2.9804,2.993,3.0306,3.0984,3.2328,3.3358,3.3916,3.5549,3.6263,3.6013,3.6263,3.6405,3.6417,3.6923,3.7186,3.7199,3.7751,3.8241,3.8655,3.8806,3.9158,3.9496,3.9634,3.9697,3.9697,3.9362,3.9426,3.9645,3.9362,3.9258,3.9258,3.5094,3.4826,3.455,3.4299,3.401,3.3872,3.4123,3.4424,3.4926,3.5793,3.7073,3.8065,3.8454,3.9207,3.9697,3.9697,3.9408,3.9132,3.8944,3.8567,3.853,3.8906,3.809,3.7613,3.755,3.6185,3.5458,3.5441,3.4412,3.4299,3.5019,3.4022,3.4105,3.5047,3.3906,3.3936,3.4895,3.4906,3.5384,3.6148,3.6839,3.6968,0.0,3.7332,3.7469,3.7397,3.7435,3.7353,3.7307,3.7413,3.7307,3.7108,3.7261,3.7108,3.6862,3.6709,3.6628,3.6499,3.6405,3.6405,3.6405,3.6405,3.6119,3.5893,3.5893,3.5667,3.5353,3.5039,3.4587,3.3972,3.3018,3.2051,3.1035,0.0,0.0,0.0,2.9792,2.9792,2.9792,2.9792,2.9792,2.9792,2.9792,2.9792,2.9792,2.9792,2.9792,3.0131,3.0909,3.2303,3.3432,3.4236,3.5855,3.6656,3.6405,3.6644,3.6769,3.6782,3.7274,3.7676,3.7939,3.8492,3.8919,3.9233,3.9233,3.9408,3.9697,3.9697,3.9697,3.9697,3.9697,3.9697,3.9697,3.9697,3.9697,3.9697,3.5408,3.5445,3.5345,3.4868,3.4781,3.5019,3.5708,3.5696,3.5855,3.6443,3.7926,3.868,3.8178,3.9057,3.9697,3.9697,3.9697,3.9484,3.9057,3.8981,3.8981,3.8981,3.804,3.7663,3.8002,3.6486,3.5918,3.6304,3.4675,3.4399,3.5257,3.3828,3.3846,3.5092,3.4069,3.4032,3.4825,3.5269,3.5659,3.6009,3.6567,3.6923,3.7116,3.7116,3.7442,3.79,3.79,3.7749,3.7598,3.7808,3.7598,3.7261,3.7459,3.7366,3.7121,3.6862,3.6769,3.6675,3.6499,3.6405,3.6405,3.6405,3.6405,3.6405,3.6405,3.6405,3.6405,3.6405,3.5604,3.4901,3.4751,3.2955,3.1198,3.0269,3.0055,3.0005,3.0005,3.0068,3.0055,2.9917,2.9967,0.0,2.9804,2.9792,2.9792,2.9792,2.9792,3.0193,3.1135,3.2378,3.352,3.4474,3.6182,3.6933,3.6518,3.692,3.7149,3.7299,3.7776,3.8316,3.8944,3.9446,3.9697,3.9697,3.9697,3.9697,3.9697,3.9697,3.9697,3.9697,3.9697,3.9697,3.9697,3.9697,3.9697,3.9697,3.4906,3.5194,3.547,3.537,3.5357,3.5846,3.7349,3.6797,3.642,3.6973,3.8152,3.8881,3.873,3.9308,3.9697,3.9697,3.9697,3.9647,3.9559,3.9546,3.9546,3.9546,3.9358,3.8868,3.8027,3.7274,3.6496,3.5646,3.4487,3.3997,3.4173,3.3624,3.4081,3.5404,3.4855,3.5085,3.5835,3.5763,3.6145,3.6817,3.7404,3.7697,3.7743,3.7743,3.7808,3.79,3.79,3.7854,3.7854,3.79,3.7854,3.7762,3.7808,3.7657,3.7413,3.7353,3.7062,3.6675,3.6675,3.6534,3.6405,3.6405,3.6405,3.6405,3.6405,3.6405,3.6405,3.6405,3.6254,3.5793,3.4889,3.3269,3.2001,3.1825,3.1411,3.111,3.111,3.1499,3.1461,3.0583,3.0846,3.0758,2.988,2.9792,2.9792,2.9792,2.9792,2.988,3.0068,3.1976,3.3212,3.3357,3.5449,3.6719,3.7036,3.6732,3.696,3.7864,3.7965,3.8316,3.8944,3.9446,3.9697,3.9697,3.9697,3.9697,3.9697,3.9697,3.9697,3.9697,3.9697,3.9697,3.9697,3.9697,3.9697,3.9697,3.5157,3.5592,3.5968,3.5968,3.6207,3.6759,3.7839,3.7814,3.78,3.8027,3.858,3.8919,3.8919,3.9371,3.9697,3.9697,3.9697,3.9697,3.9697,3.9697,3.9572,3.9283,3.8981,3.8429,3.76,3.7036,3.6358,3.5495,3.5138,3.4616,3.406,3.4056,3.4622,3.5651,3.5885,3.6004,3.6123,3.6348,3.6648,3.705,3.7665,3.79,3.79,3.79,3.79,3.79,3.79,3.79,3.79,3.79,3.79,3.79,3.79,3.7808,3.7703,3.7551,3.7307,3.7062,3.6968,3.6828,3.6781,3.6781,3.664,3.6534,3.6534,3.6452,3.6405,3.6405,3.6405,3.6065,3.4926,3.406,3.3332,3.2754,3.219,3.1813,3.1813,3.2051,3.2026,3.1512,3.1411,3.1185,3.067,3.0118,2.9792,2.9792,2.9792,3.003,3.0595,3.2177,3.3345,3.3909,3.5793,3.6832,3.6807,3.6772,3.7199,3.8002,3.8002,3.8454,3.9308,3.9572,3.9697,3.9697,3.9697,3.9697,3.9697,3.9697,3.9697,3.9697,3.9697,3.9697,3.9697,3.9697,3.9697,3.9697,3.5821,3.6144,3.6443,3.6568,3.6945,3.7374,3.7927,3.8492,3.8957,3.9082,3.9095,3.9095,3.9095,3.9433,3.9697,3.9697,3.9697,3.9697,3.9697,3.9697,3.9496,3.9069,3.8492,3.799,3.755,3.6998,3.6383,3.5671,3.589,3.5395,3.4192,3.4581,3.5247,3.6054,3.6713,3.6815,3.6515,3.6854,3.7077,3.7233,3.7717,3.79,3.79,3.79,3.79,3.79,3.79,3.79,3.79,3.79,3.79,3.79,3.79,3.79,3.7854,3.7657,3.7551,3.7459,3.7261,3.7155,3.7108,3.7108,3.6956,3.6769,3.6769,3.6628,3.6452,3.6452,3.6452,3.6141,3.5228,3.4977,3.4568,3.3746,3.3119,3.2742,3.2742,3.2842,3.283,3.2604,3.219,3.1838,3.1587,3.0809,3.0306,3.0306,3.0093,3.0382,3.1336,3.2579,3.3709,3.4688,3.6207,3.6908,3.6581,3.6973,3.7525,3.8191,3.8191,3.8718,3.9697,3.9697,3.9697,3.9697,3.9697,3.9697,3.9697,3.9697,3.9697,3.9697,3.9697,3.9697,3.9697,3.9697,3.9697,3.9697,3.6935,3.6671,3.6568,3.7023,3.7149,3.7374,3.7927,3.8492,3.9044,3.9546,3.9622,3.9622,3.9622,3.9659,3.9697,3.9697,3.9697,3.9697,3.9697,3.9697,3.9672,3.9622,3.9082,3.8768,3.8756,3.8153,3.7337,3.6329,3.6329,3.5592,3.4235,3.4977,3.5884,3.6875,3.6985,3.7273,3.7704,3.7207,3.7325,3.7821,3.7874,3.79,3.79,3.79,3.79,3.79,3.79,3.79,3.79,3.79,3.79,3.79,3.79,3.79,3.79,3.7854,3.7703,3.7505,3.7459,3.7307,3.7108,3.7108,3.7062,3.7062,3.7062,3.6862,3.6675,3.6675,3.6534,3.638,3.6267,3.5805,3.5395,3.5282,3.4806,3.4487,3.4487,3.4868,3.4818,3.3859,3.3696,3.3257,3.224,3.2039,3.1989,3.1989,3.1085,3.0783,3.1361,3.2943,3.4098,3.4655,3.5843,3.6707,3.7098,3.7161,3.7726,3.8844,3.8844,3.9107,3.9697,3.9697,3.9697,3.9697,3.9697,3.9697,3.9697,3.9697,3.9697,3.9697,3.9697,3.9697,3.9697,3.9697,3.9697,3.9697,3.7563,3.75,3.7412,3.7638,3.7965,3.8266,3.8492,3.9007,3.9446,3.9659,3.9697,3.9697,3.9697,3.9697,3.9697,3.9697,3.9697,3.9697,3.9697,3.9697,3.9383,3.8705,3.8467,3.8191,3.7864,3.7626,3.7136,3.6405,3.7017,3.6472,3.4933,3.575,3.636,3.6773,3.7332,3.7678,3.7887,3.7639,3.7678,3.79,3.79,3.79,3.79,3.79,3.8109,3.8383,3.8383,3.8619,3.8932,3.8932,3.8475,3.79,3.79,3.8122,3.8331,3.8004,3.803,3.8166,3.784,3.7891,3.7953,3.7642,3.7705,3.7779,3.7431,3.7015,3.6709,3.6709,3.6534,3.6405,3.6405,3.6182,3.6031,3.6031,3.5579,3.5169,3.5169,3.5357,3.5332,3.4893,3.46,3.4211,3.3759,3.3119,3.2729,3.2729,3.234,3.2328,3.2867,3.3847,3.465,3.5157,3.5956,3.6669,3.7174,3.7186,3.7751,3.8919,3.8919,3.9157,3.9697,3.9697,3.9697,3.9697,3.9697,3.9697,3.9697,3.9697,3.9697,3.9697,3.9697,3.9697,3.9697,3.9697,3.9697,3.9697,3.8153,3.8128,3.8065,3.8228,3.8605,3.8919,3.8919,3.9346,3.9697,3.9697,3.9697,3.9697,3.9697,3.9697,3.9697,3.9697,3.9697,3.9697,3.9697,3.9697,3.9333,3.853,3.8191,3.7977,3.7927,3.76,3.7236,3.6895,3.7574,3.7104,3.5564,3.6251,3.6716,3.6897,3.7567,3.79,3.79,3.79,3.79,3.7913,3.807,3.8135,3.8161,3.8331,3.8645,3.8972,3.8972,3.9246,3.9612,3.9612,3.9076,3.837,3.82,3.8292,3.8397,3.8018,3.8292,3.8593,3.8057,3.8292,3.8579,3.8031,3.8061,3.815,3.7701,3.7261,3.6909,3.6722,3.6581,3.6452,3.6405,3.6405,3.6405,3.6405,3.6031,3.578,3.578,3.578,3.578,3.578,3.5257,3.4919,3.4919,3.4261,3.3809,3.3809,3.3947,3.4073,3.4135,3.4618,3.5169,3.5768,3.6157,3.6669,3.7174,3.7349,3.7914,3.8919,3.9032,3.932,3.9697,3.9697,3.9697,3.9697,3.9697,3.9697,3.9697,3.9697,3.9697,3.9697,3.9697,3.9697,3.9697,3.9697,3.9697,3.9697,3.8743,3.8391,3.8191,3.8806,3.8919,3.8919,3.8919,3.9346,3.9697,3.9697,3.9697,3.9697,3.9697,3.9697,3.9697,3.9697,3.9697,3.9697,3.9697,3.9697,3.9685,3.9672,3.8605,3.853,3.9634,3.8567,3.799,3.799,3.799,3.7306,3.5923,3.6399,3.6936,3.7492,3.7762,3.79,3.79,3.79,3.79,3.7952,3.8488,3.8697,3.8762,3.9364,3.9586,3.9599,3.9599,3.9599,3.9612,3.9612,3.9599,3.9481,3.8893,3.8331,3.7913,3.79,3.8292,3.8593,3.8057,3.8292,3.8579,3.8031,3.7913,3.7913,3.7913,3.7703,3.7353,3.6815,3.6709,3.6628,3.6452,3.6405,3.6405,3.6405,3.6405,3.6405,3.6405,3.6405,3.6405,3.6405,3.5868,3.5495,3.5495,3.547,3.547,3.547,3.6019,3.5855,3.4763,3.5194,3.578,3.638,3.6405,3.6669,3.7174,3.7726,3.8291,3.8932,3.9421,3.9685,3.9697,3.9697,3.9697,3.9697,3.9697,3.9697,3.9697,3.9697,3.9697,3.9697,3.9697,3.9697,3.9697,3.9697,3.9697,3.9697,3.932,3.9283,3.922,3.9396,3.9433,3.9433,3.9433,3.9584,3.9697,3.9697,3.9697,3.9697,3.9697,3.9697,3.9697,3.9697,3.9697,3.9697,3.9697,3.9346,3.8956,3.8567,3.7839,3.7789,3.853,3.8191,3.8002,3.8002,3.8163,3.7749,3.6713,3.7037,3.7324,3.7505,3.7762,3.79,3.79,3.79,3.79,3.7913,3.8096,3.8383,3.8723,3.8919,3.9481,4.0161,4.0161,4.0422,4.071,4.0292,3.9913,3.9573,3.9377,3.9455,3.9468,3.8684,3.8867,3.9194,3.8606,3.888,3.9285,3.9102,3.9076,3.8958,3.8553,3.7976,3.7413,3.7062,3.6968,3.6968,3.6875,3.6875,3.6828,3.6628,3.6581,3.6534,3.6405,3.6405,3.6405,3.6405,3.6207,3.6094,3.6094,3.6094,3.6094,3.6094,3.6304,3.6254,3.5855,3.6006,3.6358,3.6958,3.6971,3.7423,3.8378,3.8517,3.8881,3.9433,3.9609,3.9697,3.9697,3.9697,3.9697,3.9697,3.9697,3.9697,3.9697,3.9697,3.9697,3.9697,3.9697,3.9697,3.9697,3.9697,3.9697,3.9697,3.9622,3.9697,3.9697,3.9697,3.9697,3.9697,3.9697,3.9697,3.9697,3.9697,3.9697,3.9697,3.9697,3.9697,3.9697,3.9697,3.9697,3.9697,3.9697,3.9371,3.8931,3.8354,3.7789,3.7651,3.8002,3.7801,3.7701,3.7701,3.7646,3.7384,3.6828,3.7214,3.7353,3.7366,3.7749,3.79,3.79,3.79,3.8018,3.8227,3.8449,3.8867,3.9377,3.9599,4.0135,4.0762,4.0762,4.0997,4.1259,4.088,4.054,4.0252,4.0252,4.0331,4.0239,3.9324,3.9311,3.9534,3.9155,3.9468,3.986,3.9664,3.9442,3.9168,3.8802,3.8296,3.7862,3.7616,3.7582,3.7505,3.7147,3.7108,3.7062,3.6862,3.6862,3.6769,3.6534,3.6499,3.6499,3.6405,3.6405,3.6405,3.6405,3.6405,3.6405,3.6405,3.6405,3.6505,3.6707,3.6719,3.6822,3.7174,3.7387,3.7939,3.8906,3.8919,3.9145,3.9697,3.9697,3.9697,3.9697,3.9697,3.9697,3.9697,3.9697,3.9697,3.9697,3.9697,3.9697,3.9697,3.9697,3.9697,3.9697,3.9697,3.9697,3.9697,3.9697,3.9697,3.9697,3.9697,3.9697,3.9697,3.9697,3.9697,3.9697,3.9697,3.9697,3.9697,3.9697,3.9697,3.9697,3.9697,3.9697,3.9697,3.9697,3.9622,3.9346,3.8881,3.8253,3.7965,3.8002,3.7538,3.7299,3.7299,3.6757,3.6468,3.6515,3.69,3.7108,3.7155,3.7657,3.79,3.79,3.79,3.8214,3.8762,3.9324,3.9899,4.0474,4.1036,4.1272,4.1311,4.1311,4.1311,4.1311,4.1272,4.1219,4.1206,4.1246,4.0814,4.0213,3.9743,3.9612,3.9612,3.9612,4.0004,4.0305,3.9847,3.9246,3.8776,3.8776,3.8736,3.8676,3.8493,3.8506,3.8243,3.742,3.7245,3.7219,3.7172,3.7147,3.7015,3.6769,3.6722,3.6675,3.6452,3.6443,3.6468,3.6468,3.6505,3.6505,3.6468,3.6468,3.6669,3.7098,3.7199,3.7262,3.7299,3.7801,3.8341,3.8969,3.8982,3.9182,3.9697,3.9697,3.9697,3.9697,3.9697,3.9697,3.9697,3.9697,3.9697,3.9697,3.9697,3.9697,3.9697,3.9697,3.9697,3.9697,3.9697,3.9697,3.9697,3.9697,3.9697,3.9697,3.9697,3.9697,3.9697,3.9697,3.9697,3.9697,3.9697,3.9697,3.9697,3.9697,3.9697,3.9697,3.9697,3.9697,3.9697,3.9697,3.8881,3.8354,3.8216,3.7676,3.7575,3.8002,3.8316,3.8529,3.8529,3.7524,3.7142,3.7333,3.7173,3.7214,3.7413,3.7749,3.79,3.79,3.79,3.8214,3.8723,3.8867,3.952,4.0435,4.0579,4.0919,4.1311,4.1311,4.1311,4.1246,4.0788,4.0357,4.0082,4.0501,3.9926,3.9181,3.9507,3.9612,3.9612,3.9612,4.0004,4.0501,4.0827,4.0148,3.9403,3.9403,3.9037,3.8841,3.9216,3.9307,3.9268,3.9029,3.8626,3.828,3.8139,3.7684,3.7307,3.7062,3.7015,3.6922,3.6675,3.702,3.7238,3.7033,3.7374,3.7437,3.7023,3.6985,3.6908,3.6619,3.7362,3.8015,3.8454,3.8592,3.8931,3.9496,3.9496,3.9559,3.9697,3.9697,3.9697,3.9697,3.9697,3.9697,3.9697,3.9697,3.9697,3.9697,3.9697,3.9697,3.9697,3.9697,3.9697,3.9697,3.9697,3.9697,3.9697,3.9697,3.9697,3.9697,3.9697,3.9697,3.9697,3.9697,3.9697,3.9697,3.9697,3.9697,3.9697,3.9697,3.9697,3.9697,3.9697,3.9697,3.9584,3.9333,3.8743,3.8165,3.7651,3.7349,3.7211,3.7249,3.7612,3.7775,3.7775,3.7159,3.6953,3.7191,3.739,3.7646,3.7953,3.846,3.8684,3.8671,3.8383,3.8606,3.9115,3.9115,3.9638,4.0448,4.0723,4.1023,4.1311,4.1311,4.1311,4.1259,4.0932,4.0631,4.0448,4.0736,4.0213,3.9547,3.9873,3.9978,4.0043,4.0318,4.0605,4.084,4.0893,4.0435,3.9978,3.9978,3.973,3.9507,3.9586,3.9612,3.9455,3.8932,3.8566,3.8298,3.8205,3.7911,3.7598,3.7307,3.7261,3.7257,3.7137,3.7394,3.7589,3.7586,3.7839,3.7889,3.7575,3.7563,3.755,3.7549,3.8078,3.8429,3.8479,3.8981,3.9396,3.9697,3.9697,3.9697,3.9697,3.9697,3.9697,3.9697,3.9697,3.9697,3.9697,3.9697,3.9697,3.9697,3.9697,3.9697,3.9697,3.9697,3.9697,3.9697,3.9697,3.9697,3.9697,3.9697,3.9697,3.9697,3.9697,3.9697,3.9697,3.9697,3.9697,3.9697,3.9697,3.9697,3.9697,3.9697,3.9697,3.9697,3.9697,3.9697,3.9496,3.9032,3.8881,3.8316,3.7349,3.7224,3.7008,3.6543,3.6619,3.6656,3.6656,3.6568,3.6625,3.6861,3.7565,3.8045,3.842,3.9151,3.952,3.9573,3.9063,3.9194,3.973,3.973,4.0056,4.0592,4.1023,4.118,4.1167,4.1089,4.1115,4.118,4.118,4.118,4.1193,4.1285,4.0906,4.0435,4.0527,4.0553,4.0644,4.1063,4.1246,4.1193,4.0671,4.0488,4.0435,4.054,4.0488,4.0305,3.9939,3.9873,3.9573,3.8593,3.8344,3.8253,3.8174,3.8083,3.7899,3.7611,3.7629,3.7663,3.7725,3.7881,3.8015,3.8189,3.8265,3.8278,3.814,3.814,3.8316,3.8718,3.8831,3.8642,3.8153,3.9145,3.9697,3.9697,3.9697,3.9697,3.9697,3.9697,3.9697,3.9697,3.9697,3.9697,3.9697,3.9697,3.9697,3.9697,3.9697,3.9697,3.9697,3.9697,3.9697,3.9697,3.9697,3.9697,3.9697,3.9697,3.9697,3.9697,3.9697,3.9697,3.9697,3.9697,3.9697,3.9697,3.9697,3.9697,3.9697,3.9697,3.9697,3.9697,3.9697,3.9697,3.9659,3.9572,3.8668,3.8065,3.7889,3.7425,3.7149,3.7061,3.7513,3.7751,3.7751,3.7287,3.7205,3.7445,3.7287,3.7646,3.8407,3.8721,3.9128,3.9599,3.9507,3.9795,4.0292,4.0292,4.0644,4.1128,4.071,4.0553,4.0501,4.0043,4.0174,4.0553,4.0553,4.0553,4.0644,4.1154,4.0906,4.0514,4.1023,4.1167,4.1089,4.0671,4.0932,4.1298,4.1193,4.0788,4.0553,4.1063,4.0788,4.054,4.0971,4.105,4.0997,4.0814,4.037,3.9873,3.9416,3.8919,3.8423,3.7919,3.8246,3.8478,3.8286,3.9104,3.9477,3.9144,3.95,3.9474,3.8818,3.8781,3.8567,3.8165,3.8605,3.8881,3.8743,3.9358,3.9697,3.9697,3.9697,3.9697,3.9697,3.9697,3.9697,3.9697,3.9697,3.9697,3.9697,3.9697,3.9697,3.9697,3.9697,3.9697,3.9697,3.9697,3.9697,3.9697,3.9697,3.9697,3.9697,3.9697,3.9697,3.9697,3.9697,3.9697,3.9697,3.9697,3.9697,3.9697,3.9697,3.9697,3.9697,3.9697,3.9697,3.9697,3.9697,3.9697,3.9697,3.9697,3.8931,3.8065,3.7161,3.7161,3.7048,3.6795,3.6985,3.7123,3.7123,3.6908,3.6972,3.7317,3.7522,3.7947,3.8595,3.9003,3.9351,3.9612,3.9612,3.9756,4.0004,4.0292,4.0592,4.084,4.088,4.0893,4.0867,4.0618,4.0684,4.0893,4.0893,4.0893,4.0945,4.1219,4.1128,4.0958,4.1232,4.1311,4.1259,4.0971,4.1102,4.1311,4.1311,4.1102,4.0971,4.1259,4.1102,4.088,4.084,4.0827,4.0736,4.0448,4.0174,3.9795,3.922,3.8893,3.8619,3.837,3.8553,3.8851,3.9236,3.9718,3.9973,3.9943,4.0147,4.0084,3.9575,3.955,3.9335,3.8931,3.917,3.932,3.932,3.9559,3.9697,3.9697,3.9697,3.9697,3.9697,3.9697,3.9697,3.9697,3.9697,3.9697,3.9697,3.9697,3.9697,3.9697,3.9697,3.9697,3.9697,3.9697,3.9697,3.9697,3.9697,3.9697,3.9697,3.9697,3.9697,3.9697,3.9697,3.9697,3.9697,3.9697,3.9697,3.9697,3.9697,3.9697,3.9697,3.9697,3.9697,3.9697,3.9697,3.9697,3.9634,3.9509,3.9107,3.8278,3.6857,3.6958,3.6845,3.6417,3.6405,3.6405,3.6405,3.6452,3.6763,3.7326,3.7822,3.8377,3.8932,3.9403,3.9612,3.9612,3.9612,3.9612,3.9651,4.0056,4.0305,4.0448,4.0788,4.0997,4.1089,4.0971,4.0997,4.1102,4.1102,4.1193,4.1311,4.1311,4.1311,4.1311,4.1311,4.1311,4.1311,4.1311,4.1311,4.1311,4.1311,4.1311,4.1311,4.1311,4.1311,4.118,4.0723,4.0618,4.0501,4.0082,4.0004,3.9808,3.9207,3.9102,3.9063,3.8932,3.9024,3.9333,4.0037,4.0208,4.0367,4.0554,4.0605,4.0491,4.0236,4.0185,4.0083,3.9788,3.9788,3.9736,3.9697,3.9697,3.9697,3.9697,3.9697,3.9697,3.9697,3.9697,3.9697,3.9697,3.9697,3.9697,3.9697,3.9697,3.9697,3.9697,3.9697,3.9697,3.9697,3.9697,3.9697,3.9697,3.9697,3.9697,3.9697,3.9697,3.9697,3.9697,3.9697,3.9697,3.9697,3.9697,3.9697,3.9697,3.9697,3.9697,3.9697,3.9697,3.9697,3.9697,3.9697,3.9697,3.9484,3.9007,3.8944,3.858,3.7914,3.6996,3.6455,3.6405,3.6405,3.6405,3.6405,3.6581,3.7095,3.7928,3.8239,3.8787,3.9547,3.9586,3.9612,3.9612,3.9612,3.9612,3.9612,3.9651,3.9965,4.0357,3.9913,4.0043,4.0409,3.9913,4.0056,4.0488,4.0488,4.0853,4.1311,4.1311,4.1311,4.1311,4.1311,4.1311,4.1311,4.1311,4.1311,4.1311,4.1311,4.1311,4.1311,4.1311,4.1311,4.1311,4.1259,4.1246,4.1232,4.1193,4.1193,4.0997,4.0383,4.0292,4.0109,3.9612,3.9978,4.0318,4.036,4.0856,4.1108,4.0883,4.0883,4.0744,4.0504,4.0453,4.0338,4.007,4.0083,3.9981,3.9697,3.9697,3.9697,3.9697,3.9697,3.9697,3.9697,3.9697,3.9697,3.9697,3.9697,3.9697,3.9697,3.9697,3.9697,3.9697,3.9697,3.9697,3.9697,3.9697,3.9697,3.9697,3.9697,3.9697,3.9697,3.9697,3.9697,3.9697,3.9697,3.9697,3.9697,3.9697,3.9697,3.9697,3.9697,3.9697,3.9697,3.9697,3.9697,3.9697,3.9697,3.9697,3.9597,3.9396,3.9057,3.8467,3.7538,3.6807,3.6405,3.6405,3.6405,3.6405,3.6405,3.6499,3.6848,3.7441,3.7535,3.8114,3.905,3.905,3.9259,3.9625,3.9965,4.0109,4.0109,4.0109,4.0239,4.0357,3.9808,3.9939,4.0383,4.0187,4.0488,4.0971,4.0971,4.1128,4.1311,4.1311,4.1311,4.1311,4.1311,4.1311,4.1311,4.1311,4.1311,4.1311,4.1311,4.1311,4.1311,4.1311,4.1311,4.1311,4.1311,4.1311,4.1311,4.1311,4.1311,4.1115,4.0514,4.0409,4.0344,4.0135,4.0292,4.0553,4.0932,4.1167,4.1261,4.1161,4.1147,4.106,4.0795,4.0744,4.0542,4.0121,3.9929,3.9788,3.9697,3.9697,3.9697,3.9697,3.9697,3.9697,3.9697,3.9697,3.9697,3.9697,3.9697,3.9697,3.9697,3.9697,3.9697,3.9697,3.9697,3.9697,3.9697,3.9697,3.9697,3.9697,3.9697,3.9697,3.9697,3.9697,3.9697,3.9697,3.9697,3.9697,3.9697,3.9697,3.9697,3.9697,3.9697,3.9697,3.9697,3.9697,3.9697,3.9697,3.9697,3.9697,3.9697,3.9697,3.9007,3.8178,3.7224,3.6707,3.6405,3.6405,3.6405,3.6405,3.6405,3.6452,3.6776,3.7236,3.7424,3.7911,3.8616,3.8663,3.8841,3.9102,3.9468,3.9625,3.9625,3.9625,3.9847,4.0122,3.9756,4.0069,4.0697,4.0697,4.0971,4.1311,4.1311,4.1311,4.1311,4.1311,4.1311,4.1311,4.1311,4.1311,4.1311,4.1311,4.1311,4.1311,4.1311,4.1311,4.1311,4.1311,4.1311,4.1311,4.1311,4.1311,4.1311,4.1311,4.1311,4.118,4.0762,4.0697,4.0697,4.0697,4.0697,4.0853,4.1272,4.1311,4.1311,4.1311,4.1311,4.1211,4.1047,4.1047,4.0795,4.0236,3.989,3.9697,3.9697,3.9697,3.9697,3.9697,3.9697,3.9697,3.9697,3.9697,3.9697,3.9697,3.9697,3.9697,3.9697,3.9697,3.9697,3.9697,3.9697,3.9697,3.9697,3.9697,3.9697,3.9697,3.9697,3.9697,3.9697,3.9697,3.9697,3.9697,3.9697,3.9697,3.9697,3.9697,3.9697,3.9697,3.9697,3.9697,3.9697,3.9697,3.9697,3.9697,3.9697,3.9697,3.9697,3.9685,3.863,3.7764,3.7199,3.6694,3.6405,3.6405,3.6405,3.6405,3.6405,3.6581,3.7013,3.7584,3.8157,3.8394,3.8394,3.8616,3.841,3.7913,3.7913,3.7913,3.7913,3.7913,3.8593,3.9599,3.9599,4.0305,4.1311,4.1311,4.1311,4.1311,4.1311,4.1311,4.1311,4.1311,4.1311,4.1311,4.1311,4.1311,4.1311,4.1311,4.1311,4.1311,4.1311,4.1311,4.1311,4.1311,4.1311,4.1311,4.1311,4.1311,4.1311,4.1311,4.1311,4.1311,4.1311,4.1311,4.1311,4.1311,4.1311,4.1311,4.1311,4.1311,4.1311,4.1311,4.1311,4.1311,4.1311,4.1311,4.106,4.0555,3.9993,3.9697,3.9697,3.9697,3.9697,3.9697,3.9697,3.9697,3.9697,3.9697,3.9697,3.9697,3.9697,3.9697,3.9697,3.9697,3.9697,3.9697,3.9697,3.9697,3.9697,3.9697,3.9697,3.9697,3.9697,3.9697,3.9697,3.9697,3.9697,3.9697,3.9697,3.9697,3.9697,3.9697,3.9697,3.9697,3.9697,3.9697,3.9697,3.9697,3.9697,3.9697,3.9697,3.9697,3.9358,3.8567,3.8191,3.7588,3.6694,3.6505,3.6405,3.6405,3.6405,3.6405,3.6405,3.6452,3.6669,3.6975,3.7117,3.7535,3.8122,3.817,3.8333,3.854,3.854,3.854,3.8501,3.8316,3.8449,3.8748,3.8924,3.9455,4.0174,4.0553,4.0958,4.1311,4.1311,4.1311,4.1311,4.1311,4.1311,4.1311,4.1311,4.1311,4.1311,4.1311,4.1311,4.1311,4.1311,4.1311,4.1311,4.1311,4.1311,4.1311,4.1311,4.1311,4.1311,4.1311,4.1311,4.1311,4.1311,4.1311,4.1311,4.1311,4.1311,4.1311,4.1311,4.1311,4.1311,4.1311,4.1311,4.1311,4.1311,4.1161,4.0946,4.0795,4.0287,3.9981,3.9981,3.9788,3.9697,3.9697,3.9697,3.9697,3.9697,3.9697,3.9697,3.9697,3.9697,3.9697,3.9697,3.9697,3.9697,3.9697,3.9697,3.9697,3.9697,3.9697,3.9697,3.9697,3.9697,3.9697,3.9697,3.9697,3.9697,3.9697,3.9697,3.9697,3.9697,3.9697,3.9697,3.9697,3.9697,3.9697,3.9697,3.9697,3.9697,3.9697,3.9697,3.9697,3.922,3.8078,3.8002,3.7513,3.6455,3.6405,3.6405,3.6405,3.6405,3.6405,3.6405,3.6405,3.6452,3.6581,3.6675,3.7006,3.7492,3.7599,3.7826,3.8121,3.8121,3.8121,3.8143,3.8058,3.8199,3.8467,3.889,3.9429,4.0004,4.0566,4.101,4.1311,4.1311,4.1311,4.1311,4.1311,4.1311,4.1311,4.1311,4.1311,4.1311,4.1311,4.1311,4.1311,4.1311,4.1311,4.1311,4.1311,4.1311,4.1311,4.1311,4.1311,4.1311,4.1311,4.1311,4.1311,4.1311,4.1311,4.1311,4.1311,4.1311,4.1311,4.1311,4.1311,4.1311,4.1311,4.1311,4.1311,4.1311,4.1047,4.0883,4.0883,4.0491,4.0236,4.007,3.9929,3.9788,3.9697,3.9697,3.9697,3.9697,3.9697,3.9697,3.9697,3.9697,3.9697,3.9697,3.9697,3.9697,3.9697,3.9697,3.9697,3.9697,3.9697,3.9697,3.9697,3.9697,3.9697,3.9697,3.9697,3.9697,3.9697,3.9697,3.9697,3.9697,3.9697,3.9697,3.9697,3.9697,3.9697,3.9697,3.9697,3.9697,3.9697,3.9697,3.9697,3.922,3.8078,3.8002,3.7513,3.6455,3.6405,3.6405,3.6405,3.6405,3.6405,3.6405,3.6405,3.6405,3.6405,3.6581,3.6675,3.6675,3.6922,3.7062,3.7062,3.7062,3.7062,3.7062,3.7366,3.7842,3.8459,3.9281,3.9939,4.0501,4.1102,4.1311,4.1311,4.1311,4.1311,4.1311,4.1311,4.1311,4.1311,4.1311,4.1311,4.1311,4.1311,4.1311,4.1311,4.1311,4.1311,4.1311,4.1311,4.1311,4.1311,4.1311,4.1311,4.1311,4.1311,4.1311,4.1311,4.1311,4.1311,4.1311,4.1311,4.1311,4.1311,4.1311,4.1311,4.1311,4.1311,4.1311,4.1311,4.1311,4.1047,4.0933,4.0933,4.0694,4.044,4.0173,4.0121,3.9981,3.9736,3.9697,3.9697,3.9697,3.9697,3.9697,3.9697,3.9697,3.9697,3.9697,3.9697,3.9697,3.9697,3.9697,3.9697,3.9697,3.9697,3.9697,3.9697,3.9697,3.9697,3.9697,3.9697,3.9697,3.9697,3.9697,3.9697,3.9697,3.9697,3.9697,3.9697,3.9697,3.9697,3.9697,3.9697,3.9697,3.9697,3.9697,3.9697,3.922,3.8078,3.8002,3.7513,3.6455,3.6405,3.6405,3.6405,3.6405,3.6405,3.6405,3.6405,3.6405,3.6405,3.6452,3.6452,3.6452,3.6546,3.6546,3.6546,3.6546,3.6546,3.6593,3.7028,3.7561,3.8187,3.9198,3.9939,4.0501,4.1102,4.1311,4.1311,4.1311,4.1311,4.1311,4.1311,4.1311,4.1311,4.1311,4.1311,4.1311,4.1311,4.1311,4.1311,4.1311,4.1311,4.1311,4.1311,4.1311,4.1311,4.1311,4.1311,4.1311,4.1311,4.1311,4.1311,4.1311,4.1311,4.1311,4.1311,4.1311,4.1311,4.1311,4.1311,4.1311,4.1311,4.1311,4.1311,4.1311,4.1261,4.1211,4.1211,4.0946,4.0795,4.0732,4.0326,4.0083,4.0032,3.9788,3.9697,3.9697,3.9697,3.9697,3.9697,3.9697,3.9697,3.9697,3.9697,3.9697,3.9697,3.9697,3.9697,3.9697,3.9697,3.9697,3.9697,3.9697,3.9697,3.9697,3.9697,3.9697,3.9697,3.9697,3.9697,3.9697,3.9697,3.9697,3.9697,3.9697,3.9697,3.9697,3.9697,3.9697,3.9697,3.9697,3.9697,3.922,3.8078,3.8002,3.7513,3.6455,3.6405,3.6405,3.6405,3.6405,3.6405,3.6405,3.6405,3.6405,3.6405,3.6405,3.6405,3.6405,3.6405,3.6405,3.6405,3.6405,3.6556,3.6795,3.7188,3.7769,3.8476,3.9443,4.0028,4.0501,4.1102,4.1311,4.1311,4.1311,4.1311,4.1311,4.1311,4.1311,4.1311,4.1311,4.1311,4.1311,4.1311,4.1311,4.1311,4.1311,4.1311,4.1311,4.1311,4.1311,4.1311,4.1311,4.1311,4.1311,4.1311,4.1311,4.1311,4.1311,4.1311,4.1311,4.1311,4.1311,4.1311,4.1311,4.1311,4.1311,4.1311,4.1311,4.1311,4.1311,4.1311,4.1311,4.1311,4.1161,4.1047,4.0883,4.063,4.0377,4.007,3.9981,3.9839,3.9697,3.9697,3.9697,3.9697,3.9697,3.9697,3.9697,3.9697,3.9697,3.9697,3.9697,3.9697,3.9697,3.9697,3.9697,3.9697,3.9697,3.9697,3.9697,3.9697,3.9697,3.9697,3.9697,3.9697,3.9697,3.9697,3.9697,3.9697,3.9697,3.9697,3.9697,3.9697,3.9697,3.9697,3.9697,3.9609,3.912,3.8078,3.7914,3.7412,3.6455,3.6405,3.6405,3.6405,3.6405,3.6405,3.6405,3.6405,3.6405,3.6405,3.6405,3.6405,3.6405,3.6405,3.6405,3.6417,3.6505,3.6807,3.7247,3.7638,3.8248,3.8992,3.9713,4.0192,4.0483,4.1041,4.1261,4.1311,4.1311,4.1311,4.1311,4.1311,4.1311,4.1311,4.1311,4.1311,4.1311,4.1311,4.1311,4.1311,4.1311,4.1311,4.1311,4.1311,4.1311,4.1311,4.1311,4.1311,4.1311,4.1311,4.1311,4.1311,4.1311,4.1311,4.1311,4.1311,4.1311,4.1311,4.1311,4.1311,4.1311,4.1311,4.1311,4.1311,4.1311,4.1311,4.1311,4.1311,4.1311,4.1211,4.0997,4.0933,4.0681,4.0173,4.0121,3.9981,3.9697,3.9697,3.9697,3.9697,3.9697,3.9697,3.9697,3.9697,3.9697,3.9697,3.9697,3.9697,3.9697,3.9697,3.9697,3.9697,3.9798,3.9772,3.971,3.9697,3.9697,3.9697,3.9697,3.9697,3.9697,3.9697,3.9697,3.9697,3.9697,3.9697,3.9697,3.9697,3.9697,3.9697,3.9697,3.9258,3.8705,3.8052,3.7563,3.7023,3.643,3.6405,3.6405,3.6405,3.6405,3.6405,3.6405,3.6405,3.6405,3.6405,3.6405,3.6405,3.6405,3.6405,3.6405,3.6443,3.6872,3.7111,3.7272,3.8237,3.8883,3.927,3.9818,4.0203,4.054,4.087,4.1097,4.1311,4.1311,4.1311,4.1311,4.1311,4.1311,4.1311,4.1311,4.1311,4.1311,4.1311,4.1311,4.1311,4.1311,4.1311,4.1311,4.1311,4.1311,4.1311,4.1311,4.1311,4.1311,4.1311,4.1311,4.1311,4.1311,4.1311,4.1311,4.1311,4.1311,4.1311,4.1311,4.1311,4.1311,4.1311,4.1311,4.1311,4.1311,4.1311,4.1311,4.1311,4.1311,4.1261,4.1261,4.1047,4.0732,4.0453,4.0236,3.9981,3.9697,3.9697,3.9697,3.9697,3.9697,3.9697,3.9697,3.9697,3.9697,3.9697,3.9697,3.9697,3.9697,3.9697,3.9697,3.9747,4.0224,4.0111,3.976,3.9697,3.9697,3.9697,3.9697,3.9697,3.9697,3.9697,3.9697,3.9697,3.9697,3.9697,3.9697,3.9697,3.9421,3.9233,3.9233,3.8718,3.8153,3.7588,3.7312,3.6935,3.643,3.6405,3.6405,3.6405,3.6405,3.6405,3.6405,3.6405,3.6405,3.6405,3.6405,3.6405,3.6405,3.6405,3.6405,3.6443,3.6948,3.7362,3.7737,3.8551,3.922,3.9779,3.9968,4.0324,4.0744,4.106,4.1211,4.1311,4.1311,4.1311,4.1311,4.1311,4.1311,4.1311,4.1311,4.1311,4.1311,4.1311,4.1311,4.1311,4.1311,4.1311,4.1311,4.1311,4.1311,4.1311,4.1311,4.1311,4.1311,4.1311,4.1311,4.1311,4.1311,4.1311,4.1311,4.1311,4.1311,4.1311,4.1311,4.1311,4.1311,4.1311,4.1311,4.1311,4.1311,4.1311,4.1311,4.1311,4.1311,4.1311,4.1311,4.1211,4.0997,4.0744,4.044,4.0185,3.9929,3.9788,3.9697,3.9697,3.9697,3.9697,3.9697,3.9697,3.9697,3.9697,3.9697,3.9697,3.9697,3.9697,3.9697,3.9722,3.9973,4.0099,4.0187]}]]